GFSCGP_sfc_temp_000.txt.gz
Temp
77 70 66 71 74 75 75 73 73 79 85 79 77 78 82 86 86 85 85 86 85 84 85 82 80 80 78 77 77 76 76 77 75 73 70 70 71 69 67 68 70 68 68 69
72 65 74 78 78 75 74 72 72 79 84 81 79 77 82 84 84 85 85 85 85 83 82 80 78 78 76 75 76 76 76 77 75 74 73 72 71 71 72 70 70 71 68 69
67 72 79 77 75 73 73 71 72 73 80 82 78 73 77 83 86 88 88 88 87 81 79 78 77 76 76 75 76 76 77 77 76 76 72 73 70 68 70 68 66 67 70 70
73 79 77 75 74 77 68 79 78 76 72 64 78 60 73 79 80 84 86 85 84 82 81 79 77 75 75 76 77 77 77 77 76 75 73 71 66 64 67 67 67 65 71 70
70 75 74 74 76 80 75 82 79 77 71 69 69 63 70 79 76 81 84 86 84 83 81 79 78 77 78 78 77 77 77 77 77 77 74 71 69 67 67 67 67 66 64 69
75 85 82 80 84 83 84 79 77 76 71 58 67 65 65 72 77 80 85 87 84 84 82 80 79 79 77 79 77 76 76 76 77 78 77 74 69 68 66 66 66 65 65 65
73 75 83 85 78 83 80 72 60 54 55 54 70 65 68 79 82 83 83 85 84 84 81 79 77 77 77 76 76 77 76 75 76 78 77 74 70 66 67 66 64 65 64 64
64 62 76 84 80 76 75 71 61 48 51 58 71 62 70 82 86 86 87 86 84 82 80 79 78 77 78 77 76 76 76 75 76 77 77 76 70 66 68 67 65 64 64 64
66 66 82 84 85 83 74 68 76 65 68 62 67 71 78 82 82 84 84 83 80 80 78 78 79 78 77 76 75 77 76 76 78 77 76 76 70 69 68 69 67 64 66 66
73 65 79 82 86 84 78 81 64 66 51 48 61 65 67 73 77 81 81 80 79 79 79 79 79 78 78 77 76 77 78 77 78 77 76 77 71 72 71 70 68 65 67 69
77 71 73 80 76 73 74 72 72 70 66 54 52 61 80 77 79 78 80 81 79 78 79 79 80 79 80 78 78 76 77 77 76 77 77 77 73 75 72 69 70 65 66 68
77 72 66 72 82 84 79 74 72 63 59 65 64 64 82 81 83 83 81 81 80 80 81 81 81 79 79 78 78 77 77 77 77 78 77 77 75 75 70 69 70 67 68 70
76 67 62 66 75 79 73 76 76 72 69 62 59 63 82 83 83 84 81 81 80 80 81 82 81 80 80 78 79 78 78 78 79 79 76 76 74 72 72 70 69 68 66 68
75 69 64 61 68 73 68 73 76 71 63 64 66 70 76 78 80 82 82 81 81 81 81 82 80 80 80 80 80 80 79 80 79 79 76 75 74 73 74 74 71 71 70 67
73 63 70 73 76 76 74 72 73 71 71 65 68 71 77 79 81 83 84 83 82 81 82 81 80 80 80 79 79 81 80 80 79 79 75 73 75 76 76 75 75 73 71 71
74 63 70 69 75 77 72 74 74 75 74 72 73 72 83 86 86 85 83 83 83 82 83 83 82 82 80 80 80 80 80 80 79 78 76 76 76 77 73 75 75 73 74 73
70 68 64 61 72 73 65 73 74 74 78 76 69 75 83 83 84 85 82 83 84 84 85 84 82 82 80 80 80 79 80 80 79 78 78 77 76 76 75 76 75 74 72 72
63 66 67 61 66 52 72 82 81 76 78 80 80 81 83 84 87 89 90 86 85 86 86 85 84 82 81 82 82 81 83 80 80 79 79 79 78 76 76 74 73 71 72 71
71 68 63 56 57 67 72 78 77 74 73 82 80 82 85 87 87 85 91 92 88 87 88 86 86 84 81 82 82 82 82 81 81 80 80 80 80 76 75 73 71 71 71 71
71 71 64 60 52 52 71 81 86 84 66 83 83 82 82 85 75 82 89 92 89 89 90 88 87 85 82 81 81 80 81 80 80 82 82 82 81 77 75 73 71 71 72 71
60 63 58 57 56 65 79 84 86 63 68 82 84 83 82 80 83 85 88 90 90 90 90 90 86 84 80 82 80 79 80 79 83 85 85 82 79 75 74 72 72 71 71 71
58 57 58 60 55 54 83 82 73 76 82 84 84 84 82 84 87 88 91 91 91 90 91 91 87 84 82 83 81 79 78 82 85 86 85 81 77 80 78 72 71 71 70 70
45 58 58 62 64 77 81 80 81 84 83 85 85 86 86 85 87 89 89 89 91 91 91 93 89 84 82 83 82 79 80 84 85 84 81 79 77 78 75 72 70 71 70 70
55 58 54 57 67 76 80 84 85 86 85 88 89 88 87 85 88 89 89 89 90 91 91 91 90 85 81 83 83 82 84 86 85 81 79 77 75 75 74 76 74 72 70 70
53 52 52 54 65 75 78 80 85 86 87 88 89 89 89 89 89 90 90 89 90 91 92 91 89 87 84 84 84 84 86 85 82 80 79 77 77 74 73 74 75 74 72 71
55 51 46 53 56 56 72 68 73 84 81 85 87 88 90 90 89 91 90 90 90 90 91 89 89 89 88 87 86 86 87 85 81 78 79 79 79 76 77 75 75 48 56 52

GFSCGP_sfc_temp_003.txt.gz
Temp
70 58 56 63 67 68 66 63 63 70 77 74 69 71 72 75 75 72 73 72 73 70 70 71 71 70 68 67 66 66 66 65 64 63 62 60 60 62 62 63 64 63 63 64
63 57 67 71 71 68 66 63 62 69 76 74 71 69 72 73 73 73 73 72 70 66 69 70 67 67 66 66 66 66 66 65 65 63 63 63 62 63 63 63 64 64 65 64
59 64 72 70 67 65 65 62 62 63 71 74 67 61 66 73 76 77 76 73 70 68 67 67 68 64 65 66 66 66 66 66 66 66 64 62 62 62 61 62 61 62 65 65
62 71 69 66 65 68 60 71 70 68 64 53 66 46 60 67 69 73 73 68 68 69 69 68 67 64 65 66 67 68 66 66 67 66 64 63 60 59 61 62 62 61 65 64
60 66 66 65 66 71 66 74 71 69 64 57 58 50 55 66 65 70 69 69 69 70 68 67 67 67 67 68 66 66 66 66 67 66 66 63 62 62 62 61 61 61 62 63
66 74 71 69 75 75 77 71 69 67 59 44 55 53 53 59 66 68 72 72 70 68 68 68 68 68 67 66 66 66 65 65 67 67 66 63 62 63 61 59 59 59 61 61
64 65 72 76 69 74 73 61 48 39 40 39 60 54 57 66 70 72 70 68 68 69 68 67 67 66 65 64 64 66 65 64 67 67 67 63 62 62 60 59 59 59 59 59
53 51 67 75 70 66 66 62 46 37 38 47 62 52 61 70 73 74 73 70 69 67 68 67 66 66 66 66 64 66 65 64 67 66 67 63 63 62 60 59 60 60 59 59
54 55 73 75 76 74 66 58 64 53 52 47 54 62 66 70 71 72 70 69 65 64 64 66 66 65 65 64 64 65 65 66 66 66 67 63 64 63 62 61 60 60 60 61
60 52 69 74 77 76 71 69 55 49 39 35 50 53 54 62 66 69 67 65 64 64 65 66 67 65 64 65 65 65 66 66 66 67 67 66 68 64 63 62 62 61 61 61
67 56 60 71 66 65 66 59 57 55 51 40 37 47 63 64 66 67 67 68 66 67 66 66 66 66 65 65 65 65 66 66 66 67 67 70 69 66 65 63 62 63 61 62
68 55 53 60 74 76 67 62 58 53 46 51 48 49 68 67 69 68 69 69 66 67 66 68 67 66 65 64 65 65 66 66 66 67 68 69 68 66 64 64 64 63 62 63
68 59 45 55 61 72 66 68 62 57 54 49 46 49 69 71 70 72 68 69 69 67 66 68 68 66 66 65 66 66 66 66 68 67 67 68 66 65 63 64 63 64 63 63
71 58 56 49 56 66 61 66 67 58 49 51 56 58 62 67 68 69 69 69 69 69 69 69 68 66 66 67 68 68 68 68 67 67 66 65 65 66 65 66 64 65 65 63
67 58 58 64 67 68 68 67 67 62 59 56 57 59 65 67 68 69 70 70 71 70 69 69 68 67 65 66 67 69 68 68 67 66 65 65 66 67 67 64 68 66 67 65
55 57 62 58 68 67 66 69 69 68 64 62 63 62 69 71 73 70 72 72 72 72 73 72 71 70 68 69 67 70 69 68 67 66 65 67 68 68 71 66 68 65 65 67
47 50 56 52 63 64 58 66 68 69 68 66 60 64 70 69 73 71 72 74 74 74 75 74 73 72 70 71 69 67 68 68 67 67 68 68 68 68 70 69 66 64 63 62
47 46 57 52 56 44 61 74 75 70 70 68 68 70 71 71 71 76 78 75 76 77 77 75 75 73 71 71 68 68 69 68 68 67 69 69 68 68 68 66 64 63 61 61
55 49 46 46 50 57 63 70 70 64 62 71 68 73 75 75 74 72 79 79 76 78 78 77 76 74 71 73 69 71 69 69 70 68 69 71 69 67 66 64 63 63 62 60
59 56 48 45 41 43 58 71 76 70 55 70 71 69 70 71 62 66 75 79 76 78 79 77 75 76 74 74 72 71 68 69 69 70 72 73 69 68 65 63 62 63 63 63
50 50 46 43 41 54 67 74 75 57 56 69 71 69 68 66 67 72 75 77 79 79 78 78 77 75 75 74 73 72 67 70 72 73 74 72 67 68 65 65 63 63 63 63
43 40 45 42 42 44 71 72 60 63 64 71 69 70 69 72 75 74 74 78 79 79 78 79 77 75 74 75 75 71 68 71 73 73 74 71 66 74 69 67 63 63 62 61
39 41 39 42 51 57 63 59 69 71 70 72 71 70 73 73 74 76 75 77 79 78 80 80 78 74 75 75 77 72 71 72 75 71 69 69 69 67 67 66 62 61 60 60
42 46 42 44 54 51 59 60 60 63 72 73 73 72 73 73 75 74 74 76 79 76 80 81 78 75 74 75 76 76 74 75 76 69 68 70 69 64 67 69 66 63 59 59
42 44 42 44 49 52 55 57 60 64 62 65 78 76 75 74 74 75 74 76 78 77 77 81 79 77 76 76 75 75 78 76 74 68 70 71 69 67 65 66 66 64 62 61
46 43 38 39 49 49 50 55 58 63 63 61 64 77 77 77 76 77 75 76 77 77 76 77 79 78 77 78 76 77 80 77 72 68 70 71 68 66 68 65 60 46 47 51

GFSCGP_sfc_temp_006.txt.gz
Temp
64 57 53 59 63 64 60 57 56 65 71 65 65 67 72 74 71 73 69 69 69 67 65 66 66 66 64 63 63 62 63 62 61 60 60 59 59 60 61 62 62 62 61 62
58 55 64 68 67 62 60 58 58 64 70 65 65 65 72 72 69 69 70 69 66 61 64 65 63 64 63 62 62 62 63 62 61 60 60 60 60 60 61 61 62 63 62 63
56 62 70 66 62 60 60 58 59 59 66 68 63 60 62 70 69 71 71 69 64 64 63 64 64 62 61 62 62 63 62 62 62 63 61 60 60 60 60 61 61 62 63 64
59 68 66 62 60 62 55 66 66 63 59 49 62 46 55 65 66 68 69 67 63 66 65 65 63 60 61 62 63 63 63 62 64 63 61 61 59 58 59 59 60 60 62 63
57 62 61 59 61 66 60 68 64 63 58 54 58 48 54 61 62 67 68 64 62 66 65 64 63 64 63 64 62 62 62 63 64 63 62 60 59 59 59 58 59 60 61 63
62 69 66 64 69 68 70 64 62 61 56 46 56 52 56 56 63 65 65 65 64 62 62 61 64 64 63 62 61 62 62 62 63 63 62 60 59 58 57 57 58 58 58 60
60 60 67 70 62 68 64 55 42 35 40 42 55 50 55 61 65 69 68 65 62 62 61 62 62 62 61 61 61 61 62 62 62 63 61 61 60 59 57 57 57 57 57 57
50 47 61 69 64 60 60 57 46 36 36 44 57 49 58 66 69 70 69 64 62 60 62 63 63 63 61 62 61 63 62 62 62 62 61 60 60 58 57 59 58 57 57 57
50 51 66 69 70 66 59 54 63 49 48 44 48 56 63 66 65 64 63 64 60 60 60 62 63 62 61 60 61 62 61 62 62 63 61 60 60 60 59 59 58 58 58 59
54 47 63 67 69 68 63 64 52 45 39 36 45 49 50 58 60 62 61 60 59 59 60 63 64 61 61 61 61 61 61 62 63 63 62 63 66 61 60 59 59 59 59 59
59 51 53 64 59 59 59 56 54 53 48 40 35 44 57 63 61 62 62 63 61 61 62 63 63 62 61 61 61 61 61 62 62 63 63 65 63 62 61 60 59 59 60 60
62 50 48 54 62 69 65 60 56 52 44 46 45 49 62 64 63 67 63 65 63 64 63 63 63 61 60 60 61 61 61 62 63 64 64 67 64 62 61 60 60 60 60 60
57 53 43 46 53 61 60 62 58 52 48 46 45 46 66 63 65 67 63 63 63 61 62 63 61 62 62 61 62 62 62 63 63 65 64 63 63 62 62 61 60 60 60 61
52 51 52 45 52 57 54 62 62 54 45 46 53 53 60 59 64 63 64 64 64 65 65 65 63 62 63 63 63 64 63 63 63 64 62 62 62 63 62 61 61 61 62 62
45 48 56 59 60 60 61 64 62 61 58 54 54 56 61 61 65 66 65 64 65 65 65 66 64 62 63 60 63 65 64 63 63 64 62 62 63 63 64 62 62 62 61 63
44 38 56 54 62 62 59 64 65 65 59 58 60 57 65 70 68 64 65 66 66 67 67 67 68 65 64 64 65 66 64 63 64 63 63 64 64 65 65 64 62 63 62 61
39 39 45 48 59 59 52 61 64 64 64 62 57 60 64 64 67 67 65 68 69 69 69 68 68 68 67 66 68 65 63 63 64 63 64 65 65 68 63 64 62 61 59 59
40 39 40 47 52 39 57 68 70 67 66 65 62 66 65 71 70 72 72 70 71 72 71 71 71 70 68 68 67 67 64 65 66 64 65 66 66 66 63 62 60 59 58 58
48 41 37 39 47 52 59 62 65 60 58 64 68 67 71 67 65 65 74 75 74 73 74 73 73 72 69 68 68 68 66 65 67 66 65 66 66 64 63 60 58 58 57 56
50 48 41 39 38 38 55 66 73 70 56 66 67 66 68 66 57 61 73 76 75 75 76 74 73 71 70 70 68 68 67 66 66 67 68 67 65 64 62 61 60 59 58 58
41 43 39 39 34 48 53 58 70 54 52 63 69 69 69 64 65 70 75 73 76 76 75 74 72 71 72 71 69 68 68 68 69 70 70 68 64 63 62 60 60 60 59 59
36 35 36 37 37 38 55 57 50 50 57 60 66 65 65 69 68 68 75 75 75 75 74 73 72 72 72 72 71 68 68 71 71 69 70 68 64 69 65 62 59 60 59 57
34 39 35 38 40 47 52 52 53 54 55 59 56 65 70 68 69 69 71 74 75 75 75 76 74 72 71 72 74 69 70 71 72 68 69 67 65 66 65 65 60 59 59 57
38 44 40 39 48 47 51 54 54 57 56 60 62 60 69 70 69 69 70 74 76 76 75 76 74 71 69 72 74 74 71 73 72 67 67 66 65 63 65 67 65 63 58 57
40 42 39 42 47 47 52 52 54 55 58 59 63 63 65 69 70 70 71 75 76 76 77 77 74 72 72 73 73 74 73 74 73 66 67 66 67 65 64 66 64 65 63 63
43 40 37 36 47 45 47 52 56 54 54 58 59 61 62 65 69 71 73 76 76 77 77 76 74 74 74 74 74 73 75 74 72 66 67 68 66 65 65 62 55 45 49 49

GFSCGP_sfc_temp_009.txt.gz
Temp
60 52 49 55 58 59 59 55 55 61 65 62 60 60 66 72 69 70 71 71 68 67 63 62 63 64 62 60 60 60 60 59 59 58 58 58 58 59 59 60 61 61 62 61
55 51 60 62 61 58 56 53 53 60 65 60 60 60 66 68 69 71 73 68 66 59 59 61 62 64 62 60 60 60 61 60 60 58 58 58 58 59 59 60 62 63 62 61
53 58 66 62 59 57 56 53 55 56 61 62 59 56 61 69 67 68 67 65 63 63 59 61 63 61 60 61 60 61 60 60 60 60 59 58 58 59 59 58 59 60 61 62
56 65 62 60 57 60 52 62 61 58 53 47 57 41 54 60 63 66 69 66 67 62 60 62 63 58 60 60 60 61 61 60 60 60 59 59 57 56 57 57 58 59 61 62
54 60 59 56 59 64 57 65 61 57 52 48 54 44 51 57 60 62 66 65 62 59 60 61 61 61 61 61 60 60 60 60 60 60 60 59 57 57 57 57 57 58 59 61
60 68 64 62 67 66 66 57 55 53 48 40 52 47 50 54 59 63 65 67 60 58 58 58 60 61 60 59 59 59 60 60 60 60 60 59 58 57 56 56 56 56 57 59
54 59 63 66 59 61 60 48 37 31 35 37 52 47 54 61 63 66 67 63 58 57 56 59 61 59 58 58 58 59 59 59 59 61 60 59 58 58 57 56 56 55 56 56
45 43 58 65 61 56 56 54 39 32 33 40 52 46 55 63 68 67 68 62 58 55 56 60 61 61 59 59 58 60 59 60 59 60 60 58 59 56 56 58 56 56 56 56
46 48 62 66 66 64 56 49 57 45 44 41 45 52 61 62 61 61 60 59 56 55 57 59 60 59 58 58 58 60 59 59 60 60 59 58 59 58 57 57 57 56 57 58
50 43 59 63 66 64 56 59 45 41 34 32 42 46 49 57 57 58 58 57 54 54 56 59 59 58 58 59 59 58 60 60 61 60 60 60 62 59 58 58 57 57 57 58
50 47 50 58 55 54 50 53 47 49 45 35 33 42 55 60 60 59 59 58 56 56 58 60 58 59 59 58 58 58 59 60 60 60 60 63 61 60 59 58 58 58 58 58
47 46 45 50 57 65 61 56 56 46 41 43 43 49 61 61 60 61 60 60 56 57 59 60 60 58 57 57 58 58 59 60 61 61 61 62 61 60 59 58 58 58 58 59
45 41 36 43 50 54 54 58 58 52 46 44 42 48 60 59 61 62 60 58 58 57 57 57 57 59 59 58 58 59 59 60 61 62 61 61 60 60 59 58 59 59 59 59
48 38 43 42 47 53 49 56 58 55 48 49 50 51 56 55 58 59 59 58 58 60 61 60 59 59 59 60 60 60 60 61 61 61 61 60 60 60 59 59 59 60 60 60
40 32 44 51 57 56 55 56 58 55 58 51 55 54 58 59 59 63 61 58 59 59 60 61 60 58 58 58 60 61 61 61 60 61 61 61 60 61 60 59 59 60 60 60
39 32 41 45 55 57 54 56 59 60 59 57 55 55 62 64 62 61 61 61 61 61 63 64 63 61 60 62 61 61 61 60 60 60 61 62 61 62 61 60 59 60 60 60
35 35 36 36 53 52 46 55 57 58 61 61 52 57 59 58 64 63 60 63 64 64 65 65 64 63 63 63 64 60 60 60 60 61 63 63 62 63 62 61 60 59 57 58
37 35 36 31 44 34 53 62 64 60 61 62 59 62 64 63 69 69 68 66 66 67 67 67 67 65 64 63 63 62 60 62 62 61 62 63 64 62 61 60 59 56 56 56
46 37 32 29 35 47 56 58 57 56 56 61 64 62 65 64 63 60 69 70 69 69 69 69 69 67 64 64 64 62 61 62 63 62 62 63 64 61 60 59 57 55 55 55
47 42 36 34 30 34 43 50 56 54 52 52 54 59 60 63 59 61 65 70 69 70 71 70 69 68 65 65 64 63 61 62 63 64 64 63 63 62 60 58 56 56 55 56
35 35 32 32 31 41 48 52 54 49 43 48 54 53 59 64 71 74 68 71 73 71 70 69 68 67 67 66 65 64 62 63 66 67 65 63 62 62 60 58 57 56 55 55
33 33 36 35 33 34 50 50 41 44 49 51 53 55 55 66 66 65 69 71 70 68 68 70 68 68 67 67 67 65 63 67 67 66 65 63 60 65 62 59 57 57 56 54
33 35 35 38 39 49 49 46 50 50 49 51 52 55 57 58 64 66 69 71 72 71 72 72 70 67 67 67 70 66 67 66 67 66 64 61 61 61 61 59 57 56 55 55
37 42 38 38 45 49 51 51 52 55 52 54 56 56 58 59 63 66 70 71 72 72 71 71 69 67 66 68 70 71 68 69 67 65 64 62 62 58 59 63 61 60 56 55
39 41 37 39 45 49 49 51 52 53 55 56 57 56 59 58 60 63 71 72 73 74 73 72 70 68 68 69 70 70 69 70 67 66 64 62 64 61 61 62 61 63 61 61
42 38 35 35 44 45 46 50 53 52 53 55 55 56 61 60 60 61 66 74 74 73 73 72 71 70 70 70 71 70 71 71 69 65 64 62 64 62 63 60 54 45 47 47

GFSCGP_sfc_temp_012.txt.gz
Temp
55 51 47 54 56 55 54 52 52 56 64 60 56 55 61 67 64 63 66 67 67 68 63 62 60 60 60 60 61 60 59 58 58 58 58 57 58 59 60 61 62 62 62 63
52 48 58 60 58 56 54 51 51 56 63 59 56 56 62 65 66 64 68 69 68 61 59 58 57 59 61 61 61 58 59 58 58 58 58 59 59 59 60 60 62 63 63 62
51 56 63 59 56 53 52 51 52 51 60 58 54 53 57 63 64 65 65 65 63 62 60 57 57 57 59 60 59 60 59 59 59 59 59 58 58 59 59 59 60 61 62 62
53 62 59 55 53 56 48 58 58 55 51 42 53 37 52 57 62 62 65 64 64 62 57 57 56 56 59 60 60 60 59 59 60 60 59 59 58 57 58 58 59 60 62 63
49 55 55 53 55 60 53 63 58 56 49 44 47 41 50 53 55 61 64 65 63 60 57 56 56 58 60 59 60 59 59 59 60 59 59 59 58 58 58 58 59 60 60 62
54 61 62 57 63 62 64 57 53 49 44 37 47 45 43 50 58 61 62 63 60 55 55 55 57 60 57 58 58 58 59 59 59 59 60 60 59 58 57 58 58 58 58 60
50 53 57 63 54 58 56 47 34 29 29 32 50 44 51 56 60 63 64 63 56 53 54 56 59 58 57 57 57 58 59 59 59 60 60 60 60 59 58 58 57 57 57 58
41 38 54 60 56 52 55 49 36 30 31 39 49 41 50 60 64 63 65 62 55 52 54 57 59 58 58 58 58 59 59 59 59 60 60 59 60 58 58 58 58 57 57 58
41 44 57 62 64 63 52 45 52 42 44 38 41 50 58 61 64 61 59 56 53 52 53 56 58 58 57 57 58 59 58 59 59 60 59 59 59 58 58 59 58 58 58 59
47 40 54 59 61 64 56 57 44 43 33 30 40 43 48 54 60 59 56 55 52 52 54 56 57 56 57 58 58 58 59 59 60 60 60 61 60 60 59 59 58 59 59 60
44 43 46 54 51 50 48 46 44 47 39 33 32 41 53 58 61 60 58 56 52 53 55 57 56 57 58 57 58 58 58 60 60 60 60 62 61 60 59 59 59 60 60 60
42 37 39 48 55 62 58 51 47 44 39 41 41 42 58 59 58 59 60 58 54 54 55 57 58 56 56 57 57 58 58 60 60 61 61 62 62 61 60 60 60 60 60 61
42 35 34 38 47 51 53 56 55 46 42 43 40 42 60 58 58 59 58 57 55 54 54 55 55 57 57 56 57 58 58 60 60 61 61 61 61 60 60 59 60 60 60 61
45 35 34 38 42 48 45 53 56 49 38 42 47 48 56 58 58 57 57 55 54 55 57 57 56 56 57 58 58 59 59 60 60 61 61 60 60 61 60 60 60 60 61 61
37 30 37 40 45 48 50 52 54 50 53 47 49 51 54 60 58 57 56 54 56 56 56 58 58 56 56 56 58 59 60 60 60 61 61 60 60 61 60 60 60 61 62 62
39 30 36 36 47 49 48 52 53 55 55 55 51 53 60 60 58 58 58 58 58 58 60 60 60 59 57 59 58 59 60 60 60 61 61 61 61 62 61 60 61 61 61 62
35 32 32 29 40 45 42 51 53 52 57 57 50 61 56 57 59 59 58 60 60 61 62 61 61 61 60 60 61 59 60 59 60 61 62 62 63 62 61 61 61 60 60 60
38 35 33 29 36 30 47 57 60 56 56 56 59 59 60 63 65 63 65 63 62 63 63 63 63 62 60 61 60 60 60 60 60 61 62 63 63 63 62 61 60 58 58 59
44 35 33 27 28 42 48 45 42 45 46 47 48 52 56 60 61 62 65 67 66 66 67 66 65 63 59 61 61 61 59 60 61 61 62 63 63 62 61 60 59 58 58 58
42 41 35 30 27 32 38 46 51 50 41 47 48 48 49 51 54 62 63 66 64 65 67 66 65 63 62 61 61 61 59 60 61 62 63 63 63 62 61 60 58 58 58 59
35 33 31 30 27 37 45 47 52 42 38 46 48 48 47 48 59 59 64 67 68 67 66 66 64 64 63 62 62 62 60 60 64 65 63 63 62 62 61 59 58 58 57 58
33 31 31 30 29 32 48 47 38 44 46 48 49 49 49 51 54 57 62 65 65 65 65 67 65 64 63 63 64 62 60 64 63 64 64 62 61 64 61 60 58 58 57 56
32 35 32 36 37 47 52 49 50 47 46 49 49 52 52 51 54 56 62 63 67 67 68 69 67 64 63 64 66 63 63 62 63 63 62 60 60 62 61 60 58 58 56 57
38 42 36 37 42 44 47 54 53 51 49 51 53 54 54 52 56 56 62 63 66 69 68 69 67 63 62 65 67 67 64 66 65 62 60 59 61 59 60 61 61 60 58 56
36 38 37 37 42 45 51 51 52 51 52 53 54 55 55 55 56 56 62 64 68 69 69 69 67 65 65 65 67 67 66 66 63 63 61 60 62 61 60 61 60 62 61 60
38 36 35 34 42 41 44 51 53 50 51 53 53 53 58 58 58 58 58 67 69 69 69 69 67 66 66 67 68 66 68 67 64 62 61 61 62 61 61 60 56 44 47 48

GFSCGP_sfc_temp_015.txt.gz
Temp
62 57 55 59 61 63 63 61 60 66 70 67 67 66 68 74 75 75 75 76 77 78 82 77 75 72 70 71 70 70 70 70 71 72 72 72 72 74 73 73 72 72 72 71
56 53 63 66 64 60 60 58 59 65 68 66 66 65 70 72 73 76 76 76 77 79 80 75 69 69 70 69 70 70 70 69 71 73 72 75 74 74 74 73 72 72 72 71
56 61 64 62 61 57 58 56 58 59 65 67 64 61 66 74 74 76 77 78 78 77 77 73 68 68 69 68 69 70 70 70 71 72 72 71 71 72 72 73 73 72 71 70
58 67 62 60 58 61 53 63 62 60 57 53 64 51 62 68 69 73 76 77 78 79 75 71 68 67 68 70 72 72 71 70 71 71 72 70 72 72 72 71 72 71 70 70
54 59 59 57 59 63 58 65 61 60 57 57 58 52 60 66 65 70 75 79 79 76 74 70 69 68 70 71 71 71 71 71 71 70 72 72 71 72 71 71 68 69 70 71
60 68 65 63 65 64 66 63 62 60 58 46 55 54 55 62 66 72 76 79 75 70 68 68 69 70 70 73 72 71 71 70 71 71 71 71 70 69 70 69 70 70 70 70
55 58 64 67 61 65 63 58 47 44 44 44 59 54 54 68 72 72 75 79 73 68 67 67 68 70 70 70 71 72 72 70 71 71 71 71 70 68 68 69 70 68 67 68
47 45 58 66 63 59 58 57 50 39 41 50 56 49 56 71 75 75 77 77 72 68 68 69 70 71 71 71 71 72 72 71 71 72 72 71 70 72 72 70 70 69 69 70
48 50 63 65 68 66 58 54 63 54 53 52 54 57 63 70 71 73 74 70 68 67 67 68 70 71 72 71 71 72 72 72 72 72 71 71 70 68 70 68 68 70 68 69
49 46 60 63 68 68 64 66 51 55 43 41 51 52 58 65 69 74 72 69 66 66 67 69 70 71 72 72 72 72 73 73 73 73 72 72 71 70 70 69 67 68 68 69
50 50 54 61 58 58 59 57 58 59 55 46 46 54 67 69 73 75 76 71 68 68 68 70 72 72 73 73 73 72 72 72 72 73 72 72 71 70 70 69 69 69 69 69
46 44 48 55 65 68 65 60 59 52 46 55 52 55 69 70 73 73 74 70 69 70 70 72 72 72 72 72 73 72 72 73 74 74 73 72 72 71 70 69 69 70 70 70
42 44 45 49 56 63 59 62 62 60 58 51 48 55 69 70 71 72 72 70 68 68 69 70 71 71 72 72 73 73 73 74 75 75 74 72 70 71 69 69 69 70 70 70
45 42 41 46 50 57 54 58 61 59 53 54 54 61 68 72 73 72 70 69 70 69 68 70 71 72 73 73 73 74 73 74 74 74 74 72 71 71 70 70 70 70 71 71
41 36 42 45 47 50 55 57 59 56 59 54 57 59 66 72 73 73 73 69 68 69 69 70 70 71 72 72 73 74 75 74 74 74 74 72 71 71 71 70 70 71 71 71
44 38 42 45 51 53 51 56 59 60 60 59 60 61 72 74 76 71 71 69 70 70 71 71 72 72 72 72 73 73 73 74 74 74 74 73 72 72 71 70 70 71 70 71
40 40 39 42 47 49 46 55 57 59 62 61 57 65 72 72 73 74 72 71 72 72 71 71 72 72 72 73 73 72 73 74 73 74 74 73 73 72 71 71 71 70 70 70
41 39 41 42 44 37 55 57 64 60 60 60 65 68 67 70 72 79 80 75 73 73 72 73 73 72 73 75 74 75 75 74 74 74 75 74 75 73 72 72 70 69 69 70
48 38 38 38 42 49 50 49 48 53 51 52 53 57 60 63 69 74 78 79 77 75 75 75 76 74 73 73 74 74 74 75 75 75 75 76 76 73 72 71 69 69 69 69
43 39 38 39 37 41 43 51 55 55 49 53 53 54 55 58 66 76 64 70 77 78 77 75 76 75 73 73 74 73 74 74 74 76 76 77 77 75 73 72 69 69 70 70
35 35 33 37 38 43 49 54 56 46 46 53 54 55 55 54 64 60 64 68 75 77 77 76 75 73 73 73 73 73 74 73 77 78 78 76 75 74 74 71 70 69 69 68
35 33 34 36 38 35 51 53 47 49 53 54 55 56 55 57 60 61 65 67 72 75 76 76 74 74 74 73 73 74 72 77 78 78 77 76 74 75 74 71 70 70 69 67
33 36 35 36 37 47 53 51 56 55 54 55 55 58 58 59 60 63 64 66 71 75 76 78 77 74 73 73 75 74 74 77 77 75 75 74 74 74 73 72 70 70 69 71
39 42 38 39 42 45 49 54 56 57 56 58 60 60 61 59 62 63 66 69 71 75 76 77 77 74 71 73 75 77 77 77 77 74 73 73 73 72 73 74 73 74 71 72
42 44 39 38 42 46 52 50 52 55 59 60 61 62 62 62 63 64 66 68 73 76 77 77 77 75 74 74 76 78 77 77 75 74 73 72 74 72 72 74 74 74 74 72
44 42 40 38 44 42 45 51 53 54 57 59 59 60 63 64 63 65 65 69 72 77 77 76 76 76 76 76 77 77 78 77 75 73 73 74 75 74 75 73 70 44 49 50

GFSCGP_sfc_temp_021.txt.gz
Temp
70 64 61 67 71 74 73 72 71 76 83 78 77 78 83 86 86 86 88 89 89 89 95 97 98 98 91 90 89 86 83 84 84 84 82 83 83 84 85 86 85 84 82 78
66 59 69 75 75 72 71 69 70 77 82 78 77 76 82 85 85 86 86 88 89 90 92 95 96 92 86 85 83 82 82 82 82 84 83 86 85 86 86 87 84 83 82 81
60 66 73 72 71 69 70 67 69 70 77 80 76 72 76 82 85 86 87 89 89 89 90 93 95 87 85 82 81 81 81 80 81 83 84 84 84 85 83 83 83 82 81 77
64 71 71 69 68 72 64 76 73 71 69 62 76 61 71 78 80 83 85 88 89 91 92 94 94 85 83 83 82 81 80 78 82 82 81 79 81 80 84 84 85 83 81 80
60 65 66 66 69 74 70 78 74 73 67 67 68 64 69 77 75 79 84 87 89 91 92 94 92 86 85 83 82 80 78 79 80 80 82 80 80 83 84 84 80 77 78 77
64 74 72 69 74 76 78 75 74 73 69 57 65 64 66 72 76 80 85 88 90 92 94 94 90 86 83 84 82 79 78 78 79 80 80 79 79 79 81 79 77 75 72 74
59 63 71 75 68 75 75 67 57 53 54 54 69 65 67 77 82 83 84 87 91 92 91 88 84 83 82 81 80 80 79 77 79 80 79 80 79 78 76 77 73 74 73 71
51 48 62 72 69 67 68 67 59 46 52 58 70 61 70 83 85 87 88 89 89 88 88 85 84 83 83 81 81 81 79 78 79 80 80 80 80 80 78 76 78 71 76 73
47 53 69 70 73 72 67 64 73 64 69 64 69 72 79 83 83 84 86 87 87 86 84 84 84 84 83 82 81 80 80 80 80 80 80 79 79 79 77 76 77 75 75 77
47 47 65 70 73 73 72 77 62 66 52 52 64 67 68 76 80 83 84 85 86 84 84 85 84 83 84 83 82 82 82 80 81 81 81 81 79 78 78 77 77 73 76 79
52 44 55 66 64 64 67 67 68 69 68 58 56 65 80 79 81 82 86 87 84 83 85 85 85 85 85 84 84 81 82 81 81 81 81 77 78 78 79 76 76 74 75 77
56 47 47 58 71 74 72 69 68 62 59 67 67 65 83 83 86 86 88 87 86 86 86 87 86 85 84 83 83 82 82 82 82 82 82 80 79 77 76 73 74 78 76 78
49 48 44 46 60 69 67 71 72 69 70 63 63 66 83 84 83 86 86 85 85 85 86 86 85 85 84 84 83 83 83 83 84 84 83 78 78 75 74 73 73 79 79 79
44 47 48 37 53 66 62 68 72 69 63 65 68 70 77 80 81 84 84 85 85 85 85 86 85 85 85 84 84 84 84 85 84 84 83 78 75 75 75 73 74 77 80 79
42 44 52 48 49 56 67 68 71 67 70 66 70 71 76 80 81 82 84 84 84 85 85 84 84 84 85 84 84 84 85 85 84 84 82 75 77 76 77 73 74 74 76 76
49 43 51 42 47 55 64 68 71 71 71 72 75 72 83 84 87 85 85 85 84 85 86 85 86 85 84 84 84 84 84 84 84 83 80 78 81 80 75 75 74 73 75 75
44 47 42 36 49 54 55 66 70 71 74 74 69 75 83 81 81 83 84 84 85 87 87 85 85 85 84 84 84 83 84 85 83 83 82 82 81 80 79 80 78 78 72 73
46 45 42 41 46 40 62 74 76 72 74 77 77 78 81 80 81 83 85 83 86 89 88 87 87 86 85 86 86 85 85 84 84 84 84 83 82 81 78 79 78 77 74 74
57 47 40 34 40 55 60 68 68 69 67 71 72 77 78 78 78 78 80 81 84 89 91 89 89 87 86 85 85 85 84 84 85 84 84 84 84 81 77 76 75 74 72 72
56 51 38 42 39 34 44 65 70 71 55 67 69 70 70 71 69 71 76 80 82 86 92 90 90 88 86 85 85 83 84 84 84 85 85 86 85 82 76 76 75 75 74 73
43 41 40 43 45 46 52 66 68 55 50 64 67 68 68 67 71 71 76 79 82 85 91 92 90 87 85 86 84 83 84 83 86 88 87 86 84 82 80 78 76 75 75 73
36 37 43 47 41 35 58 62 57 57 64 66 67 68 66 70 72 74 78 79 81 83 89 91 89 87 85 86 84 83 82 86 88 88 87 85 82 84 82 77 77 76 74 72
36 38 35 39 36 44 57 55 60 62 65 67 67 69 70 71 72 75 77 79 82 84 87 92 90 86 85 86 85 83 84 87 88 86 85 84 83 84 81 78 77 78 77 74
41 44 39 42 41 48 54 58 60 62 63 69 71 71 72 71 74 76 78 80 82 85 86 90 90 87 84 85 86 86 87 89 88 84 83 83 81 81 81 82 81 81 80 80
41 42 40 39 42 52 57 59 60 62 65 68 71 72 71 72 74 76 78 80 83 85 87 89 89 88 86 86 86 88 88 88 85 84 83 82 83 80 80 82 82 83 82 77
47 40 38 37 45 46 52 58 64 63 63 66 67 69 73 74 74 76 77 80 82 84 86 88 88 89 89 88 87 88 90 88 85 82 83 83 84 82 83 82 80 45 50 50

GFSCGP_sfc_temp_024.txt.gz
Temp
68 61 58 62 67 70 70 68 67 74 81 77 75 76 80 85 86 86 86 86 86 87 92 93 92 90 90 87 87 84 83 81 80 79 78 77 76 76 77 78 79 79 79 78
61 57 66 70 70 68 67 66 66 74 79 77 76 75 81 84 84 86 86 85 86 87 89 91 90 89 84 83 83 81 80 79 79 79 78 78 77 77 78 78 78 78 78 77
56 62 69 68 66 65 66 65 66 66 74 77 74 70 75 82 85 87 88 88 87 86 85 87 89 86 82 80 79 79 78 78 79 79 78 78 77 77 76 77 76 77 78 77
61 67 65 65 63 67 61 72 71 69 66 60 74 58 70 77 79 83 85 86 86 87 88 88 88 80 79 79 80 79 78 77 79 77 76 75 74 73 75 75 74 74 78 77
56 61 62 60 65 70 65 74 71 70 66 65 66 61 67 76 74 78 83 85 86 88 89 89 90 82 82 79 78 78 76 76 77 77 76 75 75 76 76 76 73 74 73 75
60 69 67 67 70 71 74 70 69 70 68 56 64 62 62 69 74 78 84 87 88 89 90 91 84 82 80 80 78 76 75 75 76 77 76 75 75 75 74 74 72 70 71 72
57 59 66 69 64 70 69 64 53 50 52 51 67 63 65 74 80 82 83 86 88 90 90 82 80 80 78 77 76 76 75 73 75 76 75 76 75 76 74 74 73 72 68 69
40 42 60 67 64 63 64 63 55 43 48 55 67 58 66 80 85 86 87 88 89 88 85 82 81 78 79 77 76 76 75 74 76 76 75 76 76 74 75 74 71 70 70 70
42 46 64 67 69 68 64 58 69 60 63 58 64 69 75 80 82 84 85 86 85 84 82 81 81 79 78 76 76 76 75 75 76 76 75 75 76 73 72 74 74 72 72 71
49 40 55 62 69 68 66 72 57 62 48 48 60 64 68 74 77 82 82 82 81 82 82 81 80 78 78 78 77 77 77 76 77 76 76 76 73 76 74 74 70 71 72 70
54 46 46 55 56 58 62 61 64 65 63 53 51 61 79 78 81 79 82 84 81 80 81 80 81 80 80 80 79 77 77 77 76 77 77 74 74 76 70 72 70 72 74 71
53 46 41 47 62 70 67 63 64 57 54 62 62 63 83 82 84 83 84 84 82 82 82 83 82 80 80 79 79 78 77 78 78 78 75 73 75 73 71 71 71 73 72 73
45 43 37 42 54 61 61 65 67 66 65 59 57 62 82 83 83 85 83 83 82 82 82 82 81 81 80 80 79 80 79 79 79 80 76 71 71 71 70 71 71 72 74 73
47 41 41 37 40 48 51 63 67 66 58 61 65 66 75 79 81 83 81 81 82 81 81 81 81 81 81 81 81 80 80 81 80 81 75 73 73 70 71 71 73 72 75 74
41 35 45 47 44 43 45 53 65 65 66 61 66 68 75 79 81 81 81 82 81 81 81 81 80 81 81 80 80 81 81 81 81 80 75 72 73 72 72 71 72 75 73 72
46 36 43 42 48 44 42 54 61 69 69 69 69 71 79 80 83 81 81 81 81 81 83 82 82 82 81 81 81 80 81 81 81 76 75 74 72 72 71 72 72 73 74 72
47 42 37 37 49 41 41 55 61 69 73 72 66 74 79 78 79 80 81 83 82 83 83 83 83 82 81 81 81 79 80 81 80 77 77 77 78 74 72 73 72 71 70 70
47 45 39 37 37 30 57 69 68 71 74 76 76 76 79 79 79 80 80 78 82 84 85 83 84 82 81 83 82 81 82 81 81 79 77 79 79 78 73 71 69 69 69 69
56 47 39 35 34 43 53 54 60 63 60 66 68 73 74 78 76 71 76 79 79 81 86 85 86 84 82 82 82 82 81 81 82 82 79 81 78 76 76 72 69 68 67 66
57 52 41 38 31 34 47 57 63 66 52 65 69 68 69 74 68 64 73 77 79 81 87 87 87 85 82 81 81 79 80 81 81 83 83 83 76 74 72 72 70 69 69 69
44 43 38 37 33 38 50 51 65 49 46 65 68 67 67 65 68 70 76 78 80 83 85 88 86 83 81 81 80 79 80 79 83 85 85 83 76 72 72 72 70 70 68 69
35 36 39 41 36 32 49 54 47 48 61 66 67 68 68 71 73 74 76 77 80 82 85 89 85 82 82 82 80 79 78 82 85 85 85 80 77 79 77 72 71 70 68 68
34 38 35 38 35 43 47 53 56 60 61 66 67 69 71 71 72 75 76 78 80 83 85 90 87 82 82 82 81 79 79 84 85 83 81 78 79 77 76 74 71 71 68 68
40 45 38 40 42 44 47 58 60 63 61 66 70 71 72 71 74 74 77 79 81 84 84 87 87 83 80 82 82 82 83 85 85 81 79 78 77 75 75 76 76 74 71 72
43 46 40 40 45 50 50 53 58 62 64 66 69 72 72 73 73 75 76 78 81 84 87 87 88 84 82 83 83 84 85 85 81 79 79 78 79 76 75 76 74 77 69 68
48 45 38 38 48 48 51 56 62 62 63 66 67 69 73 74 73 75 75 77 78 80 85 86 87 85 85 85 85 85 87 85 80 77 79 79 79 78 77 74 70 44 50 48

GFSCGP_sfc_temp_030.txt.gz
Temp
52 45 44 50 53 54 55 53 53 57 64 63 62 63 67 72 73 70 72 75 76 75 79 80 78 77 74 72 71 70 68 67 70 70 69 68 67 66 65 65 67 67 67 68
47 43 53 57 56 54 52 49 49 56 63 62 61 61 67 71 72 73 74 74 75 74 74 74 73 74 72 72 71 67 67 69 70 73 70 67 67 65 67 65 68 69 68 68
43 49 58 55 52 51 51 49 50 50 58 62 57 55 60 67 69 71 71 73 72 74 74 72 74 72 68 68 68 67 68 68 68 68 69 66 66 65 65 64 64 65 68 67
47 54 53 52 50 53 45 56 56 54 51 43 57 43 57 64 66 69 71 69 73 74 70 71 72 65 67 66 66 67 68 68 69 70 69 70 63 62 63 64 63 64 67 67
45 49 48 49 51 56 49 58 56 55 49 48 50 42 55 59 60 65 70 73 76 74 70 71 72 68 65 65 65 67 67 68 67 67 69 68 64 63 61 62 62 63 64 66
50 57 54 52 56 57 59 54 53 53 46 36 48 47 50 55 60 63 68 70 73 71 70 65 65 66 64 64 66 66 66 64 66 67 65 65 64 61 61 61 60 60 61 62
48 49 55 58 50 54 51 41 33 30 32 36 51 46 52 58 62 65 68 70 71 69 65 62 63 64 64 65 65 65 66 63 65 65 64 64 63 62 61 61 60 61 60 61
37 35 49 57 50 45 45 42 32 26 28 38 52 42 50 65 71 74 73 72 68 63 61 62 63 63 64 65 65 64 65 63 65 64 63 63 63 63 61 61 60 60 60 61
36 38 54 55 55 51 44 41 48 39 45 36 44 50 58 68 69 71 71 66 61 60 61 62 63 63 64 63 63 64 64 63 64 63 63 62 62 62 61 61 61 60 61 62
41 32 48 52 56 53 48 51 37 37 30 28 40 44 49 56 60 65 65 61 60 60 62 62 63 63 63 63 63 63 63 63 63 63 63 63 63 63 62 62 61 61 61 63
40 34 38 46 44 42 42 40 42 41 39 36 31 40 56 60 62 65 63 64 61 62 63 63 63 64 64 64 64 62 63 63 63 63 63 63 63 63 62 62 61 62 61 62
43 34 29 37 48 54 47 43 41 33 34 40 39 44 64 64 64 66 64 65 63 64 63 64 64 65 65 64 64 62 62 63 63 64 63 63 62 62 61 62 62 62 62 62
40 32 25 31 40 46 43 46 44 42 41 40 38 42 64 65 65 66 65 65 65 64 64 64 65 65 66 65 65 64 63 64 64 64 64 62 61 61 61 61 62 62 63 63
44 35 31 23 34 41 37 42 45 40 34 42 44 49 60 63 62 67 63 65 65 65 65 65 65 66 67 67 67 66 64 65 65 67 64 62 61 61 61 62 62 65 65 68
39 32 36 36 39 40 41 42 43 40 41 35 45 47 58 63 65 66 65 66 65 65 65 66 66 66 67 66 67 67 66 65 65 68 67 63 62 62 62 62 65 65 68 67
38 32 35 34 40 42 38 44 44 45 45 45 45 47 61 64 67 64 66 67 66 66 67 68 68 68 67 68 67 67 67 64 67 70 68 67 64 63 62 61 66 66 66 66
36 34 34 29 38 40 32 41 44 47 49 48 42 52 59 58 62 61 65 69 67 68 69 69 69 69 69 69 69 65 65 65 65 69 69 68 65 64 63 63 62 64 63 63
39 34 35 30 34 24 41 47 48 50 54 52 53 57 59 58 59 59 60 69 69 70 71 71 71 70 69 70 67 64 66 66 66 67 70 67 70 65 63 62 61 60 60 62
45 40 31 29 30 39 42 43 42 41 44 51 49 54 58 57 57 58 61 61 68 72 73 73 73 71 70 69 66 67 66 67 67 70 68 68 68 64 64 62 60 60 60 59
45 44 35 33 28 28 35 42 47 46 41 51 49 51 55 55 48 52 60 61 65 69 75 73 72 72 71 68 68 68 65 66 67 70 69 69 68 65 63 62 61 60 62 61
34 35 31 31 31 34 39 42 47 39 41 49 50 50 54 53 56 58 61 62 65 68 72 74 72 71 71 68 70 68 65 65 69 74 72 69 66 66 62 61 61 61 61 60
32 31 33 34 31 28 40 42 40 43 48 49 52 56 55 56 59 61 63 63 65 69 72 74 72 71 70 70 71 67 66 68 68 71 71 66 64 67 65 61 61 60 59 59
33 35 32 34 33 40 40 43 48 48 47 49 50 57 60 57 58 61 60 60 64 66 68 73 71 69 70 69 71 67 68 67 68 69 67 65 65 64 62 61 60 59 58 59
40 43 37 38 41 41 45 48 49 50 49 51 54 60 63 56 59 60 60 63 62 64 67 66 65 67 67 67 70 71 68 68 70 67 65 65 64 61 62 62 61 60 58 58
40 41 39 38 43 45 47 48 48 49 52 54 59 62 62 61 60 59 60 63 66 68 70 68 68 65 66 68 69 69 70 69 68 67 67 65 64 63 61 58 58 61 60 61
39 40 36 36 45 44 45 49 51 51 50 53 57 60 62 61 60 61 61 62 64 67 70 69 67 65 65 67 68 70 70 69 68 66 66 66 65 62 60 57 54 44 46 46

GFSCGP_sfc_temp_033.txt.gz
Temp
51 43 41 48 51 52 49 48 46 53 60 59 58 59 63 68 69 69 72 74 74 74 75 77 78 77 71 69 68 68 67 64 67 66 66 64 65 64 64 66 67 67 67 68
44 41 49 53 52 50 49 45 44 52 58 55 55 55 61 65 66 69 69 69 69 72 74 75 74 71 69 73 69 66 67 64 68 69 68 64 64 62 65 65 67 67 67 67
39 46 55 52 49 48 46 44 45 46 53 57 53 51 56 62 64 67 67 69 68 68 71 71 73 70 68 67 67 66 64 65 66 65 65 65 65 64 62 62 63 64 66 65
42 50 50 47 46 49 41 51 52 50 46 39 52 39 53 59 62 65 66 67 68 70 69 67 71 69 67 68 65 65 65 65 66 67 65 68 67 65 61 62 62 63 65 65
41 45 44 45 47 52 45 53 50 50 45 40 44 38 51 54 56 61 66 69 71 74 72 70 72 67 66 64 64 64 66 66 66 66 68 66 64 62 61 61 62 61 62 64
47 54 51 48 53 53 54 49 47 47 41 30 43 41 45 51 57 60 62 64 66 66 66 67 67 64 61 62 64 65 65 63 64 66 65 65 64 61 60 59 59 59 60 61
44 45 51 54 46 50 47 37 28 26 27 31 46 42 48 52 57 59 60 63 65 67 64 64 62 59 61 62 63 64 64 62 63 63 63 63 62 62 61 60 59 59 59 60
33 32 45 54 48 42 41 39 29 25 27 33 48 38 47 58 65 68 68 66 65 64 63 61 59 60 62 63 63 63 63 61 63 63 61 61 61 60 60 60 60 60 59 60
34 37 53 54 54 49 41 36 46 35 37 32 40 46 55 62 63 63 64 64 62 62 57 57 60 62 62 62 61 63 63 62 63 62 61 60 61 61 60 60 60 59 60 61
39 32 46 51 53 53 45 48 35 32 27 26 35 39 44 52 61 59 60 61 60 56 57 59 61 61 62 62 61 62 64 63 62 61 62 62 61 61 60 60 60 60 59 61
38 34 37 44 41 38 41 37 39 39 35 28 29 35 50 54 57 58 60 65 58 56 57 59 60 61 61 61 62 62 63 62 61 62 61 61 61 61 60 60 60 60 60 61
40 32 28 35 45 50 45 42 40 31 32 37 34 38 60 55 56 60 63 65 56 57 58 60 60 61 61 61 62 61 62 63 62 61 61 60 60 60 60 60 60 60 60 61
37 30 25 29 36 43 38 44 42 38 36 33 31 38 59 57 59 61 57 57 58 58 59 59 60 61 61 62 63 62 62 62 61 62 60 60 60 60 60 60 60 60 60 61
43 34 30 25 31 39 34 41 41 37 29 35 40 43 53 56 53 58 60 58 57 59 60 60 60 61 62 63 63 63 61 62 62 62 61 60 59 60 60 60 59 60 62 62
38 30 33 35 38 38 36 37 39 38 39 33 39 40 52 52 57 60 61 59 59 59 60 61 60 61 62 62 63 63 62 62 62 63 61 60 60 60 60 60 61 62 64 66
36 29 35 33 38 38 34 38 40 41 43 42 43 42 57 58 60 61 61 61 60 61 62 63 63 63 63 64 64 63 62 62 63 63 64 65 64 61 60 60 63 63 65 65
33 33 29 27 39 35 31 38 41 43 45 45 39 47 54 54 56 55 57 63 63 63 64 64 64 65 65 65 66 61 63 62 63 67 67 66 62 62 61 61 61 64 61 62
33 31 31 29 32 22 39 46 49 45 48 50 49 51 53 55 55 56 57 59 64 66 66 66 66 66 66 65 64 61 62 62 64 68 68 64 63 62 61 60 60 58 59 61
40 35 31 27 27 33 41 40 39 39 41 47 46 49 50 55 56 54 58 60 59 65 68 67 69 67 66 63 63 63 61 62 64 66 66 65 64 61 60 60 58 58 58 57
42 40 33 31 25 25 36 41 45 44 36 46 49 47 47 50 47 51 58 60 60 61 69 68 69 67 66 64 64 63 61 62 64 67 66 65 64 63 61 60 58 59 58 58
34 33 29 29 28 34 40 41 43 35 37 46 48 48 48 49 52 56 58 61 62 63 68 68 68 67 67 64 65 63 62 62 66 68 67 65 63 62 61 59 59 59 59 59
32 30 32 32 30 27 39 38 39 43 47 48 49 48 52 54 56 57 60 60 62 64 68 69 67 67 65 67 67 62 62 66 66 67 66 63 62 65 62 60 59 59 58 57
31 34 31 32 32 37 38 38 46 48 47 48 48 51 53 55 57 58 56 59 61 65 67 70 69 65 66 67 68 63 65 63 65 66 63 61 62 62 60 59 58 57 57 57
39 43 36 36 39 41 44 47 48 49 48 50 51 53 57 55 57 57 58 59 62 63 63 65 65 66 64 66 67 68 63 65 66 63 61 61 60 59 60 60 59 58 57 57
38 40 37 38 42 45 46 47 48 49 51 51 55 57 59 58 57 57 57 59 61 62 63 63 67 65 65 65 66 65 65 65 63 62 63 61 60 60 59 58 57 58 58 58
38 39 37 35 43 43 44 47 49 49 49 51 57 59 60 58 58 59 58 59 60 60 65 64 65 64 64 66 65 64 66 65 63 62 62 62 61 60 58 56 53 42 47 49

GFSCGP_sfc_temp_036.txt.gz
Temp
47 40 39 45 48 50 47 44 42 48 55 54 54 56 61 64 64 65 67 69 70 71 76 76 71 72 70 67 65 65 64 62 66 65 64 63 65 66 65 66 67 67 67 67
41 36 46 51 50 48 46 41 41 48 54 51 50 49 55 58 60 63 65 66 65 65 66 69 69 71 67 67 67 64 62 62 66 66 64 65 64 65 65 66 67 68 67 67
37 42 51 49 47 45 43 41 41 43 51 53 49 48 53 59 59 63 64 66 66 67 68 70 69 67 67 65 65 65 61 62 64 64 64 62 62 62 62 63 64 66 67 67
40 47 46 44 43 47 39 48 48 47 42 36 48 35 49 56 58 60 61 63 65 63 65 67 67 66 69 70 65 64 62 63 64 65 63 64 62 62 62 63 64 64 67 66
41 43 41 41 44 49 42 51 48 47 41 38 42 35 48 50 51 53 60 65 67 69 68 66 66 68 72 65 63 63 63 64 65 65 66 64 62 61 61 62 62 63 64 65
43 51 48 46 50 50 52 46 44 42 37 29 39 39 43 48 53 57 58 61 62 62 63 64 65 63 62 61 62 64 63 63 64 65 64 64 63 62 63 61 61 61 61 63
42 42 49 51 43 46 44 35 26 24 24 28 43 38 45 49 54 55 57 59 61 62 62 62 61 61 59 62 64 64 63 62 63 63 63 64 63 63 63 62 60 60 60 61
31 30 43 50 45 39 38 37 26 24 24 28 43 35 43 55 61 61 62 60 60 61 60 60 60 58 62 64 64 63 63 61 62 63 62 63 63 63 61 61 61 60 61 62
31 33 45 49 49 48 39 33 43 33 34 29 34 42 50 57 60 59 59 60 60 60 58 57 59 61 63 62 62 62 62 61 62 62 62 61 61 62 61 61 61 61 61 63
39 30 45 48 49 49 43 46 33 29 25 25 32 35 40 49 52 56 58 57 59 59 55 60 61 62 61 61 61 61 62 62 61 62 63 62 61 62 61 61 60 61 61 62
40 33 38 44 41 39 41 35 36 34 31 27 27 33 46 49 52 53 54 57 57 57 57 60 61 61 60 60 61 61 62 62 61 62 62 62 61 61 61 61 61 61 61 62
39 33 28 34 43 45 42 39 38 30 30 34 30 33 52 51 51 53 57 59 55 54 59 61 61 61 60 60 61 61 62 62 62 62 62 61 61 61 60 61 61 62 62 63
38 31 25 30 36 41 36 39 39 36 33 29 28 34 53 56 55 56 57 56 55 58 59 60 61 61 60 60 61 62 62 62 62 62 61 60 60 60 60 61 61 62 62 63
42 34 29 23 30 35 32 36 38 36 28 33 36 39 48 53 51 55 59 57 54 57 60 60 61 60 60 61 62 62 61 63 62 62 61 60 60 60 61 61 61 62 63 63
35 31 32 33 36 37 35 35 36 35 36 31 36 37 45 49 52 56 58 58 56 56 59 60 59 59 59 60 61 62 62 62 62 62 61 60 61 61 61 61 61 62 63 64
39 31 31 32 37 37 33 36 37 37 38 38 40 39 51 53 56 55 59 57 56 57 59 60 60 60 61 62 62 62 61 61 63 62 62 62 62 61 61 61 63 63 65 64
35 33 27 25 36 34 27 35 37 38 42 41 35 42 52 51 54 54 56 56 59 60 61 61 61 62 62 63 63 61 60 61 63 63 64 64 63 62 62 62 63 64 62 63
35 33 31 25 29 19 37 44 43 42 43 45 46 49 52 51 53 56 56 55 60 62 63 62 63 62 62 62 61 60 61 62 63 64 65 64 63 62 62 61 62 61 61 61
40 36 29 24 25 33 39 41 39 37 38 47 47 50 50 52 52 54 58 59 60 62 63 64 65 63 62 62 61 62 61 62 64 66 65 64 64 62 61 61 60 60 60 59
38 39 31 29 24 21 35 35 44 43 35 47 48 49 48 48 44 49 58 60 60 64 65 64 64 64 61 60 61 62 60 62 63 65 65 65 65 63 61 61 59 60 60 60
33 32 28 29 26 32 38 40 42 33 34 46 49 48 47 45 50 55 57 59 61 63 64 65 65 63 63 60 61 61 60 62 65 67 66 65 63 63 62 60 60 60 60 60
31 29 30 31 28 26 38 38 36 41 42 48 49 49 48 49 52 55 58 59 60 61 64 67 65 63 61 62 63 60 61 64 65 67 66 64 62 65 63 61 60 60 60 59
31 33 31 31 32 39 38 37 41 42 44 48 48 50 50 51 52 56 56 57 59 61 65 68 66 62 61 63 65 62 63 63 65 65 63 63 62 63 62 61 60 59 59 59
38 42 36 36 39 41 42 45 46 48 48 51 51 52 54 55 54 55 57 57 58 61 63 65 64 63 61 64 65 66 63 65 66 63 62 62 62 61 61 62 61 59 58 59
38 38 38 37 40 43 44 45 47 49 51 51 55 56 56 57 55 55 57 57 59 60 63 62 64 64 63 65 65 63 64 66 64 62 62 62 61 61 60 59 59 61 60 60
40 39 36 35 42 42 43 47 48 47 49 50 51 53 55 57 55 56 55 58 59 59 63 63 63 62 62 65 65 64 66 66 63 61 62 62 62 61 60 58 56 42 46 47

GFSCGP_sfc_temp_039.txt.gz
Temp
56 50 47 52 54 55 55 52 53 59 63 62 62 62 67 72 72 73 74 75 75 77 82 83 82 83 83 81 78 79 79 78 76 77 77 76 76 74 73 75 75 75 75 75
50 45 53 54 55 52 52 50 50 55 60 59 61 59 65 67 67 70 71 73 74 76 78 80 81 81 80 79 79 79 77 76 75 78 77 78 78 72 71 74 75 76 75 73
46 51 55 52 51 49 50 48 50 49 57 60 57 54 59 66 70 71 72 74 74 74 76 78 79 80 80 79 78 79 79 76 75 76 76 74 74 70 70 71 70 72 74 74
49 56 51 50 48 51 44 54 53 52 50 45 58 45 58 63 64 67 70 72 73 75 76 76 78 79 78 80 83 79 77 74 75 74 75 73 77 72 75 73 75 72 75 75
46 49 49 47 50 54 48 56 52 52 50 49 50 46 54 63 61 65 68 71 73 76 77 78 78 79 80 81 79 78 75 73 74 74 75 76 76 77 76 76 72 73 74 74
48 56 53 52 55 55 57 53 52 52 49 38 47 46 50 58 62 66 71 73 75 75 76 77 79 79 78 79 77 75 74 73 73 74 75 75 73 73 74 73 73 74 75 75
46 48 53 54 49 54 52 47 37 35 35 35 51 46 50 61 65 67 68 71 75 77 76 78 79 79 78 76 73 70 74 72 73 74 74 74 73 73 73 74 75 73 73 75
32 30 42 53 50 48 49 47 40 30 34 39 49 42 52 64 68 70 69 72 73 76 77 75 76 76 76 74 71 72 74 72 73 74 74 74 74 77 76 76 76 75 77 75
32 34 46 47 53 54 48 42 53 42 44 42 46 52 60 64 65 70 71 71 71 72 73 73 73 72 71 70 67 74 74 73 74 74 74 73 74 74 73 72 73 75 74 74
41 32 45 42 52 52 50 55 41 44 33 32 43 45 51 59 62 65 66 67 70 71 70 71 69 66 67 68 72 74 74 74 74 74 75 75 74 74 73 73 72 73 73 73
45 39 41 48 43 38 43 44 47 48 46 38 39 46 58 59 60 60 65 67 69 68 67 67 65 66 68 72 74 73 73 73 73 74 73 73 73 73 73 73 73 73 72 73
45 39 34 40 50 51 48 45 46 39 39 44 43 45 62 61 63 62 64 68 71 68 63 64 64 66 69 72 73 73 73 74 75 75 74 73 73 73 72 72 73 73 72 74
44 37 32 37 42 47 43 46 46 45 44 40 39 45 62 63 63 64 64 68 70 68 63 62 64 69 71 72 73 73 74 74 75 76 74 72 71 72 71 72 72 73 73 73
47 40 36 31 37 41 38 42 45 43 38 41 43 47 55 58 59 61 64 68 70 69 63 63 64 69 71 72 73 74 74 75 75 76 74 72 71 71 72 72 72 73 74 74
40 35 40 41 42 42 41 41 43 41 43 38 45 47 53 58 57 61 64 68 71 72 64 63 63 67 71 71 73 74 74 75 75 75 74 71 71 73 73 72 72 73 73 74
40 34 36 36 42 42 39 43 43 43 44 43 45 44 56 58 60 63 65 68 70 70 67 64 64 68 71 71 73 73 73 74 75 74 74 73 73 73 72 71 72 72 73 71
36 36 36 32 41 39 34 42 44 45 47 47 41 49 57 56 58 61 65 66 66 69 70 67 66 69 71 72 73 72 73 75 75 75 74 73 73 72 72 73 73 73 68 66
35 34 33 32 34 23 43 49 48 45 48 52 51 54 57 58 61 63 65 65 66 70 70 71 71 71 72 74 74 74 75 75 75 75 75 74 74 73 73 73 72 68 66 65
39 36 31 29 29 37 41 39 37 35 41 52 52 54 58 61 60 59 66 69 69 71 73 73 74 73 73 73 74 74 74 75 76 75 75 75 75 73 72 72 71 70 67 66
37 37 33 32 26 24 37 40 44 39 33 52 55 55 56 56 44 57 66 69 70 72 74 73 74 74 73 73 74 73 74 75 75 77 76 76 75 74 72 72 70 70 70 69
33 32 29 30 28 34 38 40 42 31 38 43 48 53 54 47 53 62 61 65 70 72 73 75 74 73 73 73 73 73 74 74 77 78 77 76 75 73 73 71 70 69 69 69
32 31 31 31 28 28 41 38 33 38 41 42 45 52 53 54 57 59 61 66 69 71 73 75 74 74 73 74 74 74 73 77 78 78 77 75 74 75 73 71 69 66 65 65
33 35 32 32 33 41 42 37 40 43 43 46 48 53 54 56 57 61 64 67 69 71 73 77 75 73 73 74 76 74 75 76 77 77 75 74 74 74 73 71 69 63 65 66
43 44 36 34 40 40 42 43 45 46 46 50 54 56 55 56 61 63 65 67 70 71 72 76 75 73 72 74 76 77 76 77 77 75 74 74 73 72 72 74 73 70 68 66
43 40 37 37 40 43 43 46 46 48 51 52 55 56 57 60 61 64 65 66 68 68 71 74 75 74 74 75 76 77 77 77 76 75 74 74 74 73 71 72 71 72 71 67
45 38 35 35 43 42 43 46 48 47 48 50 51 53 54 57 61 65 64 65 65 65 68 70 73 75 75 76 76 77 79 77 76 74 74 75 75 74 72 69 66 42 48 46

GFSCGP_sfc_temp_045.txt.gz
Temp
70 63 60 64 68 68 66 63 62 69 78 75 73 74 79 83 83 82 85 88 88 90 95 97 97 97 95 94 91 89 89 87 89 92 91 92 92 93 93 92 91 90 87 85
64 58 66 68 66 63 62 59 60 66 72 72 70 70 77 81 83 84 84 85 87 89 91 93 94 94 92 91 90 88 88 86 88 91 87 93 94 95 94 93 89 88 85 84
57 62 67 64 61 58 59 57 57 58 66 69 67 64 68 77 82 83 85 86 88 88 89 90 91 91 92 91 90 89 87 87 88 87 90 89 89 89 92 90 86 84 84 82
60 66 62 60 58 61 53 64 61 59 57 51 66 52 65 72 74 78 81 84 86 87 88 88 89 90 90 91 92 91 89 87 88 86 85 84 86 86 88 86 86 81 79 78
56 59 59 57 59 63 57 64 61 60 56 55 57 54 62 72 70 74 79 83 84 87 88 89 91 91 93 93 93 92 89 87 86 85 84 88 84 89 87 87 78 74 75 75
61 64 63 60 57 62 64 59 59 59 56 45 54 54 57 64 69 75 81 83 85 88 89 90 91 92 93 95 94 92 88 86 87 85 84 84 83 86 85 83 75 72 75 77
57 59 54 59 54 60 58 50 41 39 43 42 57 53 58 68 74 77 78 82 86 88 89 90 90 92 92 92 92 91 88 84 85 85 84 84 84 86 83 77 77 75 78 79
43 41 55 59 54 51 48 52 42 31 37 43 54 48 57 72 77 80 81 81 84 85 88 88 90 91 93 92 91 90 88 85 85 84 83 84 85 86 86 82 83 82 83 82
43 44 59 62 61 58 53 49 56 44 48 40 45 53 64 71 73 76 78 80 81 83 83 85 88 90 91 91 90 89 87 86 85 84 84 83 83 85 85 84 83 82 81 79
53 41 55 59 60 61 56 59 39 48 34 33 45 50 52 63 67 74 76 77 79 81 84 85 88 89 89 91 89 86 88 85 85 85 84 84 84 85 83 83 84 84 83 83
57 48 48 56 53 50 51 52 47 47 44 37 35 45 61 67 69 71 76 77 78 81 81 81 83 81 86 88 88 86 86 85 84 85 84 81 79 80 82 83 83 81 81 82
55 46 42 48 61 62 59 54 51 34 35 48 45 43 63 59 77 75 75 75 79 81 80 76 73 75 82 86 87 86 85 86 86 83 80 78 81 82 81 81 81 82 81 83
49 45 36 44 52 49 45 52 54 51 47 40 34 38 58 66 72 74 73 74 77 80 82 75 73 78 87 87 87 86 86 86 86 85 83 81 81 80 80 80 81 82 81 81
50 45 39 35 43 42 39 46 52 52 43 46 46 48 46 48 58 73 74 74 75 79 82 76 72 77 75 80 83 83 85 86 86 85 83 80 80 80 80 80 80 81 82 81
45 36 45 49 52 51 51 52 54 51 53 47 50 50 55 53 58 65 73 74 74 78 81 76 69 74 73 76 79 84 86 86 85 84 82 80 80 81 80 80 80 81 81 80
48 37 45 44 51 53 50 55 55 55 56 55 55 54 64 66 70 70 71 73 74 76 79 75 73 69 71 76 81 85 85 85 85 83 81 81 81 81 79 79 77 80 76 75
39 39 40 36 50 51 45 54 56 56 59 58 52 60 67 66 68 69 71 73 73 75 78 78 74 68 71 74 78 83 84 85 83 83 83 83 82 80 75 78 79 75 73 76
36 37 37 37 42 29 51 60 58 54 56 59 59 63 65 66 70 73 75 75 75 77 78 72 74 70 72 77 82 85 85 84 84 83 84 84 81 80 80 79 76 73 77 74
44 36 34 32 33 42 46 50 45 43 46 57 57 59 62 65 69 70 74 77 76 77 81 74 76 76 74 76 83 84 84 85 85 85 84 80 83 77 77 76 74 76 75 73
44 39 34 35 29 27 42 45 47 50 40 50 50 51 56 63 59 66 75 78 77 74 66 72 77 76 74 76 84 83 83 84 84 85 79 81 84 77 75 73 74 76 76 74
41 37 32 34 31 40 43 45 44 32 43 49 49 54 57 57 61 64 74 74 76 74 66 76 75 78 75 84 84 82 83 84 84 83 81 84 76 73 73 73 72 76 76 73
37 34 35 35 33 31 51 42 35 44 46 44 47 53 55 60 64 66 71 73 75 65 66 75 72 76 84 84 83 82 82 85 83 81 84 84 77 80 82 75 76 76 73 73
38 40 34 34 37 49 48 43 46 45 42 45 45 51 56 60 63 66 70 73 70 65 70 74 73 78 83 84 84 82 84 84 79 81 83 78 77 77 77 76 75 73 73 72
52 54 42 37 49 47 47 47 47 47 46 47 49 52 57 59 63 67 72 70 63 67 74 76 77 81 81 83 85 85 86 83 81 78 77 75 75 73 77 78 74 72 71 70
51 52 45 44 47 45 46 47 48 47 48 48 54 58 63 62 64 70 71 64 66 71 69 74 80 82 82 84 85 86 87 83 76 78 75 75 78 78 77 68 69 72 61 66
54 51 41 37 43 43 43 47 48 45 45 49 50 54 63 65 66 69 65 68 69 66 72 75 82 83 84 85 86 87 89 86 83 73 76 75 80 80 81 76 70 44 45 43

GFSCGP_sfc_temp_048.txt.gz
Temp
70 62 58 63 67 67 64 61 60 66 73 69 68 71 77 82 81 79 81 82 84 86 90 92 92 93 91 85 83 82 82 82 82 82 80 79 78 80 82 83 84 84 82 82
63 57 66 69 68 64 61 58 57 63 68 66 65 66 73 79 80 82 80 80 82 85 88 89 89 90 88 84 82 80 80 80 81 81 77 79 80 83 85 84 83 84 82 80
57 61 68 64 61 59 59 56 56 56 63 66 62 59 66 74 78 80 82 84 84 83 83 86 88 87 88 84 81 81 79 78 79 79 79 79 79 80 81 82 82 82 81 80
59 65 63 61 59 60 52 63 61 59 56 48 63 47 60 67 70 75 77 79 83 85 86 86 87 86 85 86 86 83 80 79 79 79 79 77 78 77 79 82 82 80 81 80
56 59 59 57 58 61 55 63 59 59 55 53 54 50 56 65 64 71 76 79 81 85 86 87 88 87 88 87 86 82 80 79 79 79 79 78 78 80 82 81 79 77 76 75
61 69 64 59 60 61 62 57 57 56 54 43 51 51 52 59 64 69 76 80 82 84 86 87 88 88 87 90 88 83 79 78 79 80 78 77 77 78 79 78 75 74 73 71
59 59 62 59 52 56 59 50 36 39 40 40 53 50 55 63 69 71 73 78 83 86 87 86 87 88 87 86 86 85 81 79 79 79 79 77 76 77 79 76 75 72 71 71
45 42 55 59 53 49 53 51 36 27 34 41 54 44 54 64 69 74 77 79 82 83 85 86 87 87 89 87 84 84 82 79 80 79 78 79 78 80 78 77 74 73 73 74
46 46 61 62 62 57 52 46 51 36 41 40 47 53 62 66 67 70 73 76 79 80 81 85 87 86 86 86 86 82 81 80 80 79 79 78 80 80 77 77 75 76 76 77
53 42 55 59 62 58 54 59 44 45 30 29 42 45 49 58 58 67 71 74 77 80 82 83 84 84 85 86 85 83 84 82 82 81 80 80 80 82 79 77 76 77 77 77
56 48 46 53 51 51 52 50 50 39 40 34 34 42 58 53 52 50 57 75 78 79 81 83 84 82 86 88 88 82 84 83 81 81 80 79 80 80 79 77 76 76 77 77
55 45 39 46 57 59 52 49 45 37 37 44 41 43 59 50 51 53 50 66 77 78 81 80 80 80 80 83 84 83 82 83 82 79 77 75 76 77 77 77 77 77 76 77
48 44 34 41 51 47 43 48 51 51 46 39 35 40 56 48 47 52 48 54 73 76 77 78 77 76 79 81 84 84 83 81 77 76 74 73 73 75 76 76 76 77 77 78
52 44 39 33 40 44 37 45 50 49 41 44 44 45 52 46 48 49 51 54 72 75 76 76 75 75 81 84 83 81 79 77 76 76 75 75 75 76 76 76 76 76 77 77
49 36 43 46 49 50 50 49 52 50 49 44 49 50 54 52 51 51 55 61 70 74 77 75 71 74 77 74 77 76 79 77 77 77 75 76 76 77 77 76 76 76 76 75
49 38 44 41 49 50 48 53 54 55 55 54 55 53 62 64 61 61 64 69 71 73 76 78 74 74 77 75 71 74 77 79 81 79 78 78 78 77 75 75 75 75 73 74
39 39 38 34 46 48 41 50 51 52 56 51 46 52 59 60 62 64 68 70 71 74 76 77 75 73 73 68 75 75 80 82 80 79 79 79 78 77 73 75 73 71 70 71
40 36 35 34 40 29 49 58 54 50 52 55 55 56 58 61 65 68 71 71 72 75 76 75 74 71 70 74 72 77 83 81 81 80 80 80 77 76 74 71 70 69 70 70
48 37 34 31 32 40 45 47 43 41 43 53 51 55 58 62 65 65 70 74 74 75 73 72 69 72 71 74 76 80 81 81 82 81 81 79 75 73 71 70 70 70 68 68
44 41 35 34 28 27 38 42 46 43 36 45 46 49 52 58 52 58 67 69 76 72 68 68 66 72 71 74 75 80 80 81 81 83 80 79 77 75 70 71 71 70 68 69
40 37 33 34 31 38 41 45 45 31 37 46 47 48 50 48 54 57 65 67 73 70 66 68 65 69 72 75 77 79 80 80 82 83 82 77 74 74 73 72 71 69 68 69
38 35 36 35 33 31 48 46 35 42 44 45 46 47 48 52 56 60 65 68 72 71 65 66 64 69 73 74 80 79 79 81 82 82 79 76 72 76 73 71 70 70 68 67
39 43 34 35 37 50 51 46 47 47 44 45 46 48 49 50 53 59 63 67 70 68 63 65 62 70 72 80 81 79 77 81 81 80 73 74 73 73 73 70 68 67 67 66
51 55 44 42 47 45 44 50 49 47 46 47 48 47 48 51 55 59 64 68 70 68 64 65 64 71 75 80 82 81 81 83 81 73 74 74 72 71 72 72 69 68 68 66
51 52 46 46 48 47 47 47 47 46 47 46 48 48 53 57 60 62 64 65 66 64 63 68 68 74 79 82 82 80 82 81 74 73 72 72 72 72 65 58 58 65 58 61
52 43 43 38 43 40 41 46 47 44 44 46 46 50 53 57 60 64 65 67 63 62 64 70 75 76 81 83 83 81 82 81 75 73 73 73 73 73 71 68 61 43 43 43

GFSCGP_sfc_temp_051.txt.gz
Temp
60 50 45 52 56 58 57 54 51 57 63 59 57 59 63 69 70 72 75 76 77 79 84 83 86 85 79 75 76 76 74 75 75 72 71 71 72 71 72 73 76 75 76 76
53 46 57 63 61 57 55 51 49 56 62 59 56 56 62 65 67 69 70 75 76 77 76 79 84 80 77 76 74 73 75 74 74 72 71 72 71 71 73 73 75 76 75 75
47 54 63 60 56 54 52 50 50 50 57 59 55 51 56 64 67 70 72 71 72 75 78 80 81 77 76 73 72 73 73 75 73 74 70 69 68 69 71 71 74 73 75 75
51 59 59 56 54 55 44 56 55 52 47 39 53 38 51 57 60 64 68 70 69 71 72 77 77 75 75 75 78 76 73 73 73 72 69 70 75 68 69 71 72 71 74 73
49 53 53 52 53 55 48 56 52 51 46 44 46 40 48 54 55 59 63 69 71 71 71 72 73 75 75 75 74 73 72 73 74 75 76 73 68 68 70 69 70 70 70 72
54 63 57 53 57 56 56 50 49 46 41 33 43 42 43 49 55 60 65 68 71 74 76 75 76 75 73 75 74 72 72 74 75 73 71 71 68 69 68 68 68 67 67 68
52 53 56 58 48 53 48 39 27 25 26 29 46 43 45 55 60 62 62 64 69 72 74 76 78 78 76 73 74 73 70 70 70 71 72 72 69 69 69 68 68 67 66 66
33 33 52 56 49 44 43 40 31 21 25 31 45 37 44 57 60 57 57 63 67 70 73 71 72 81 82 81 81 73 71 71 68 71 71 71 70 71 70 70 68 67 67 67
37 39 56 59 59 55 43 39 47 37 36 31 35 43 52 53 52 53 53 56 55 55 65 74 72 70 71 71 72 73 70 69 70 69 68 68 69 70 69 68 69 68 68 69
45 35 51 55 56 54 48 50 35 32 26 25 35 38 38 43 45 49 49 52 53 55 61 70 72 72 72 71 72 70 70 70 69 69 69 70 70 71 72 70 68 68 69 70
46 39 41 48 44 42 45 39 40 34 32 26 26 32 45 43 47 46 49 53 54 56 57 66 69 70 70 70 71 69 70 70 70 71 70 70 71 72 72 70 70 70 70 70
43 37 32 39 50 54 47 38 34 30 28 33 30 31 50 47 48 48 51 54 55 57 57 58 67 69 70 70 69 71 70 73 72 72 71 71 71 72 70 70 70 70 70 70
42 34 28 34 41 43 39 44 45 41 38 33 28 31 51 49 50 52 50 52 54 56 58 62 65 66 69 69 72 71 74 73 72 72 70 70 69 70 70 68 70 72 70 71
49 36 32 27 35 40 37 43 46 40 30 36 37 42 49 47 49 50 50 52 52 55 60 61 61 60 66 70 72 74 70 72 73 73 71 70 70 69 68 66 66 68 71 69
41 33 37 41 44 45 44 44 46 43 44 38 43 44 45 48 49 52 52 53 58 57 60 63 63 62 64 67 71 72 70 73 73 73 71 70 69 69 67 66 67 68 68 68
41 35 38 34 42 45 42 46 48 48 47 45 44 44 53 57 55 55 56 56 61 63 65 67 68 67 66 68 72 71 71 73 74 73 72 72 70 70 66 67 66 66 66 68
40 36 33 30 42 41 34 45 46 47 48 45 38 46 53 52 55 56 58 59 64 65 68 67 66 69 65 66 67 70 70 74 73 73 73 72 71 69 67 66 67 65 66 67
36 36 34 29 33 25 43 46 46 42 45 46 45 47 51 53 56 60 62 60 60 62 66 62 63 64 60 63 67 70 74 75 73 73 73 73 71 69 67 67 68 66 66 62
41 37 32 28 24 36 43 41 40 37 37 46 43 45 47 50 51 54 56 57 57 60 62 62 63 61 59 59 68 71 74 74 74 73 73 72 71 68 69 68 67 65 62 62
41 41 34 30 26 24 36 42 47 44 32 45 43 42 44 45 38 44 53 56 58 61 63 62 63 62 60 61 67 74 73 73 73 74 73 74 74 70 69 68 66 62 62 62
35 34 31 32 29 33 42 44 46 30 32 43 45 45 45 41 44 48 52 54 58 62 62 63 62 61 62 64 70 72 72 71 74 75 73 72 72 69 68 67 62 62 62 62
34 32 29 30 30 26 44 43 35 40 44 45 46 46 45 47 49 51 52 53 56 58 63 63 61 61 63 66 75 69 68 75 74 74 73 72 71 73 68 64 62 62 62 61
29 36 33 34 32 46 45 43 46 45 44 45 46 47 47 47 48 48 48 52 55 57 61 62 60 61 63 68 75 70 73 74 72 71 69 70 69 69 66 63 61 61 61 61
43 47 39 38 41 43 45 47 46 46 44 45 45 46 47 45 47 49 51 53 55 58 62 61 61 61 62 67 74 75 76 73 71 69 69 69 69 68 63 63 62 61 61 61
42 45 40 39 43 43 46 45 45 45 47 46 47 47 47 48 51 53 55 56 57 60 62 61 61 60 63 73 74 77 75 73 70 71 69 67 69 62 57 53 53 60 58 59
44 42 38 37 43 40 42 44 46 43 44 45 45 46 50 51 51 54 56 60 60 61 62 61 61 61 64 75 76 74 74 73 72 68 70 69 66 61 57 57 54 42 44 45

GFSCGP_sfc_temp_054.txt.gz
Temp
55 46 41 47 49 52 50 48 46 51 58 53 52 54 58 61 62 61 63 67 69 72 79 84 79 80 78 73 73 75 76 78 78 74 75 75 77 77 70 71 73 72 74 73
48 42 53 57 56 52 50 45 44 51 57 54 52 53 59 59 59 61 62 64 65 69 73 79 81 75 76 75 74 73 76 80 78 80 79 73 75 67 73 72 72 73 73 72
43 50 59 57 52 50 46 44 44 45 52 52 49 47 52 59 60 62 63 63 64 65 68 72 77 74 74 72 71 73 75 77 78 78 73 67 66 66 67 67 68 70 71 72
48 55 55 52 50 50 41 52 50 48 43 34 47 33 47 52 54 58 61 60 61 63 67 67 72 72 71 74 73 74 75 75 76 73 75 70 71 68 69 70 69 70 70 72
46 50 49 48 49 52 46 52 48 47 42 36 41 34 45 51 50 55 59 62 64 63 65 67 70 74 77 72 72 72 73 74 76 75 75 74 65 68 65 65 68 67 68 70
51 57 53 51 54 53 54 46 44 41 37 27 38 37 40 45 50 56 59 55 57 61 63 66 71 71 71 71 69 67 69 69 69 69 69 70 69 67 63 65 65 66 66 68
48 49 53 56 46 50 46 34 25 24 24 26 42 37 41 50 55 49 51 53 56 56 56 57 59 67 72 68 70 68 72 72 72 72 72 72 73 72 68 67 66 65 65 65
31 31 48 54 47 41 40 37 25 20 25 29 41 31 38 49 52 54 55 54 57 55 55 56 58 61 67 73 68 70 67 71 70 71 71 71 71 72 69 68 68 69 69 68
34 37 52 55 53 48 40 34 41 31 33 26 32 39 47 50 50 52 52 54 53 55 55 56 59 62 68 72 74 70 70 73 71 71 70 68 69 68 67 67 68 67 66 68
42 32 49 52 52 51 44 46 30 27 23 22 30 34 35 42 45 48 50 50 52 55 56 57 58 60 64 69 66 66 68 70 70 68 68 69 67 67 68 68 67 67 67 68
39 35 38 45 41 38 39 34 35 33 31 25 25 31 42 43 46 45 47 50 52 54 55 56 57 59 64 68 66 67 64 65 64 64 64 66 66 68 68 67 67 67 67 67
40 34 29 36 47 50 43 35 34 23 23 31 31 30 53 51 46 47 47 52 54 54 55 56 57 57 62 64 68 65 64 65 67 68 67 67 68 68 67 67 67 68 68 68
41 32 27 32 38 41 38 40 38 37 34 28 27 30 50 47 46 50 47 50 53 53 56 56 55 59 61 62 65 67 66 67 68 69 68 67 68 69 68 68 69 69 68 68
48 34 31 27 33 36 34 40 43 37 31 32 34 37 45 47 45 47 48 50 51 54 58 57 55 60 63 63 65 66 67 69 69 69 68 67 67 68 68 68 68 68 69 69
41 30 34 37 40 41 40 40 42 39 38 33 39 37 43 45 46 49 50 54 55 56 61 63 61 62 61 61 63 67 66 68 69 68 66 66 66 67 66 66 66 67 69 70
38 31 37 35 40 42 40 43 44 44 43 41 40 39 48 50 51 50 53 58 59 61 62 65 64 60 57 57 59 68 67 67 69 67 67 67 68 69 68 64 68 66 66 67
34 32 34 30 39 38 31 39 40 42 44 40 33 40 44 44 46 47 49 54 53 55 58 60 60 58 57 58 59 58 68 68 68 68 68 69 70 68 68 66 65 63 63 62
36 33 34 30 31 23 39 47 47 42 45 46 43 42 43 43 46 48 52 50 50 53 55 55 57 57 57 58 59 61 64 69 69 68 69 71 70 68 66 65 62 61 63 62
43 35 32 28 21 34 41 41 39 36 37 45 41 42 43 46 46 47 54 53 51 52 54 55 58 58 58 59 60 61 60 68 69 69 70 70 69 65 65 63 62 63 62 61
39 36 30 30 26 22 34 42 45 45 30 44 41 41 42 46 37 42 49 52 52 53 54 54 57 61 58 59 60 60 61 66 68 70 69 69 68 66 64 64 64 63 62 60
33 34 31 31 28 34 41 44 45 28 33 41 43 43 44 41 44 49 51 51 53 53 54 56 57 60 58 59 59 57 61 66 70 71 71 70 68 66 67 66 63 61 61 60
32 30 31 32 28 24 44 42 35 42 45 44 43 43 43 46 48 48 49 49 50 51 54 56 55 60 60 59 58 57 62 71 72 71 72 68 70 68 67 65 61 61 60 59
27 35 33 33 32 42 44 44 44 45 43 43 41 43 45 45 46 48 48 49 50 52 53 56 58 61 61 61 63 63 68 71 70 69 67 68 68 65 64 62 60 60 59 59
38 42 35 38 39 42 43 43 43 42 42 45 46 46 46 44 47 48 49 51 53 56 55 56 59 59 59 63 66 68 71 73 70 68 64 66 63 61 62 62 62 61 59 58
39 41 40 39 42 43 43 44 44 43 45 45 46 46 46 46 47 49 51 52 53 55 57 57 59 60 60 63 68 72 72 71 69 66 66 64 63 59 56 52 56 61 60 59
42 41 37 35 44 41 42 42 45 43 43 45 44 45 48 49 49 51 51 52 54 55 59 59 60 59 61 62 68 71 73 72 68 65 64 63 60 57 56 55 52 41 44 45

GFSCGP_sfc_temp_057.txt.gz
Temp
51 44 39 46 46 49 46 43 42 48 54 49 48 50 55 58 58 58 60 62 64 66 71 74 75 76 73 70 69 72 73 73 71 69 70 71 70 72 73 74 74 71 71 71
45 39 50 53 51 48 46 41 40 47 53 50 48 49 54 56 57 57 59 59 61 64 68 71 73 73 73 69 69 71 74 77 75 79 79 76 78 79 78 73 70 71 72 71
41 48 56 53 48 47 43 41 41 42 48 49 46 46 50 53 55 59 60 60 61 61 63 67 70 70 70 69 66 69 72 75 77 78 69 66 67 67 68 69 68 70 71 71
45 52 52 48 47 47 39 48 47 46 40 32 46 31 42 50 51 53 56 57 58 59 61 62 65 66 69 71 69 67 71 73 76 77 72 71 78 75 68 67 74 69 68 69
46 46 46 45 47 50 44 49 45 44 38 33 37 30 39 51 48 51 55 54 53 55 56 57 59 62 65 68 69 68 68 70 74 75 78 77 77 74 66 64 65 65 66 68
49 53 51 49 52 51 51 44 41 37 33 24 35 34 33 39 44 49 50 54 55 55 56 57 59 60 60 62 65 64 63 66 71 72 73 76 77 70 64 62 63 63 64 66
45 45 50 53 45 48 43 33 24 23 23 25 37 34 38 47 52 50 51 53 54 55 53 53 56 58 59 60 63 66 63 64 67 70 72 72 75 73 71 69 66 63 64 65
30 30 45 52 46 40 39 35 24 19 23 28 39 28 37 49 52 52 53 53 54 54 52 52 55 56 58 60 62 64 65 67 64 68 71 73 74 73 70 67 64 65 65 66
33 35 49 52 50 47 37 32 38 29 28 21 30 37 45 51 49 51 50 52 51 52 53 54 55 56 57 58 60 63 64 67 69 69 71 66 67 66 65 64 65 66 66 66
40 31 45 49 49 48 42 44 27 26 21 20 28 30 33 43 47 49 49 50 51 53 53 56 56 57 58 56 60 64 62 66 70 69 69 68 66 64 63 65 65 66 65 67
40 34 37 42 39 37 36 32 32 29 26 18 18 28 41 42 46 46 49 51 50 51 53 54 56 57 56 56 59 62 63 60 63 64 63 63 62 63 65 66 66 66 66 67
41 33 28 34 45 47 41 36 33 21 21 29 25 29 49 51 50 48 48 53 52 53 53 54 56 56 57 56 58 61 63 61 63 66 63 63 63 65 65 65 66 66 66 67
40 31 26 31 36 40 36 37 37 35 29 28 25 30 48 48 49 51 49 50 52 52 52 55 57 57 57 59 58 62 63 64 61 62 63 64 65 65 65 65 66 66 66 67
47 33 31 27 32 33 33 39 42 38 29 30 31 35 42 45 45 46 48 48 48 52 55 56 55 57 58 58 59 60 62 65 63 64 65 66 66 66 66 66 67 67 68 67
38 30 32 35 39 39 37 37 39 36 37 31 35 36 42 45 42 44 47 50 51 54 55 54 55 53 56 55 56 60 60 65 65 65 65 66 67 67 67 67 67 68 67 67
35 29 33 33 39 39 36 39 41 41 41 40 39 37 46 43 44 46 46 48 50 53 53 53 53 54 55 56 56 58 59 62 66 66 65 66 66 66 66 66 66 66 65 66
33 30 29 28 37 36 31 38 39 41 44 42 33 42 43 42 42 44 45 47 49 51 51 52 51 52 54 57 58 56 57 61 65 65 65 65 65 64 64 65 65 64 64 63
33 32 34 29 30 23 38 44 44 40 43 45 45 46 43 43 45 46 48 47 49 51 51 50 51 51 53 56 58 58 59 61 66 65 66 66 66 65 65 65 64 62 62 61
39 35 32 28 24 32 38 40 38 35 37 45 42 42 44 46 45 46 50 51 51 50 51 51 53 52 53 55 58 58 60 60 66 66 66 67 68 65 64 63 63 61 59 58
39 39 33 30 26 20 33 41 44 42 31 41 41 41 42 43 36 42 48 50 50 51 52 51 53 54 54 57 58 58 59 58 66 66 67 67 67 66 63 61 61 60 59 58
32 34 30 30 27 30 40 42 44 29 33 43 43 43 41 39 43 46 48 49 51 52 51 53 52 52 54 58 58 57 59 57 64 67 67 67 66 64 63 61 61 60 59 57
28 25 26 31 28 23 43 41 35 41 45 45 42 42 41 43 44 45 47 48 49 50 51 53 52 53 54 60 58 58 58 59 61 65 67 66 64 66 63 61 61 61 59 56
25 34 32 30 28 39 42 42 46 46 43 42 40 42 44 43 44 46 47 49 50 50 51 54 55 54 57 60 58 57 59 61 62 64 64 63 64 63 63 62 60 58 58 57
37 39 32 35 38 41 44 45 46 45 40 42 44 44 45 43 45 46 48 49 49 51 52 54 55 55 57 59 61 61 61 62 64 63 64 63 61 62 64 62 60 59 57 57
39 40 37 38 42 43 45 45 45 41 43 44 46 46 45 45 45 47 48 50 51 52 53 54 56 55 58 59 60 62 61 68 65 64 63 63 61 60 56 53 56 59 58 57
39 37 36 35 43 41 42 44 45 43 44 44 44 44 46 47 46 48 49 50 50 51 53 53 57 58 60 62 63 66 68 69 67 63 61 60 57 57 56 55 52 42 44 47

GFSCGP_sfc_temp_060.txt.gz
Temp
49 43 39 44 45 45 43 40 40 45 50 47 46 47 51 57 57 56 58 60 62 64 69 70 71 71 69 68 66 67 67 67 67 67 69 68 71 73 72 72 73 72 71 70
44 38 48 51 49 46 43 39 38 44 50 46 46 46 52 54 55 57 57 58 59 60 64 68 68 68 66 65 64 64 65 67 66 71 73 73 74 73 75 75 73 72 71 71
40 46 53 50 46 45 41 39 39 40 45 45 43 40 44 52 54 56 58 57 58 58 58 60 64 64 64 64 63 64 64 65 66 69 69 67 67 67 68 68 70 71 72 71
43 49 50 45 46 46 37 47 46 43 38 30 43 27 38 45 47 51 54 54 55 56 56 57 59 59 61 63 63 63 62 63 67 66 69 70 75 75 80 79 73 70 71 71
44 45 44 43 45 48 43 47 43 42 36 31 34 27 34 43 42 45 50 53 54 55 55 56 57 58 61 61 59 60 61 61 64 65 68 72 72 77 78 67 69 68 67 69
46 51 49 48 50 48 48 42 39 34 31 24 32 31 29 37 43 46 50 53 54 54 55 56 57 58 57 58 57 57 57 58 61 64 66 70 72 73 65 64 66 65 64 66
44 43 48 51 43 45 41 32 24 23 23 24 35 31 35 44 49 50 50 52 54 53 52 52 53 56 58 59 57 58 59 59 60 61 65 68 72 73 69 71 70 64 63 65
33 32 45 50 44 39 36 34 23 19 21 23 36 28 34 46 50 52 52 51 52 53 52 51 53 54 57 59 58 57 57 57 59 60 64 68 70 74 72 71 69 68 67 66
36 37 49 51 49 46 35 31 35 28 24 19 27 34 43 49 48 49 50 51 50 52 52 52 54 53 55 56 57 57 56 58 60 60 63 65 68 69 69 65 66 65 66 67
41 33 46 49 48 45 40 42 27 24 19 19 26 29 32 41 46 46 47 47 52 54 51 54 55 55 58 57 57 56 57 59 61 60 63 66 66 67 67 63 64 66 66 68
42 37 38 43 40 36 35 31 31 28 23 17 17 28 39 40 43 43 45 50 53 54 52 51 54 56 57 57 57 57 58 59 60 60 61 64 64 64 64 65 65 66 66 67
43 36 31 36 44 46 39 35 32 21 21 29 26 29 46 48 44 45 47 50 51 53 51 51 52 54 56 58 59 59 59 60 61 63 59 61 62 63 64 65 66 66 67 68
41 33 27 31 35 37 34 35 34 32 28 28 25 30 47 46 45 49 45 46 48 50 50 51 52 54 56 57 58 60 61 61 63 63 59 59 62 63 64 65 65 66 67 68
46 35 32 26 31 32 31 37 37 34 29 29 31 34 42 44 44 44 43 45 46 48 50 50 51 53 53 56 56 57 59 60 61 63 61 61 62 64 65 65 66 66 67 67
39 32 33 35 38 38 36 36 37 34 35 30 35 35 41 44 44 42 44 45 48 49 50 51 51 51 53 53 55 57 59 60 61 64 62 63 64 65 65 66 67 67 68 68
35 29 31 30 36 36 34 38 38 38 38 37 37 36 48 47 43 43 44 46 47 48 50 51 53 53 53 53 53 55 57 59 60 64 64 68 67 67 67 67 67 67 67 67
34 30 30 27 35 34 29 36 38 39 41 39 33 41 43 43 43 44 45 46 47 47 50 52 52 52 51 53 53 52 54 59 60 64 66 67 67 67 66 67 67 66 65 66
31 31 31 27 30 22 36 43 43 40 42 43 43 43 44 42 45 48 50 47 47 49 50 50 51 51 51 53 53 54 55 59 60 65 66 67 67 66 66 66 65 63 64 63
36 34 30 27 25 30 37 38 36 34 37 46 43 42 43 47 46 45 51 51 48 49 50 51 52 51 51 52 53 54 57 59 60 64 66 66 67 65 64 63 62 62 61 60
38 36 32 29 19 14 33 39 43 40 32 41 43 42 42 43 35 41 48 49 49 50 50 51 52 52 51 52 53 54 57 58 59 64 66 66 66 64 64 62 61 61 61 59
32 33 29 29 27 28 38 41 42 28 31 41 44 44 41 36 41 44 47 48 49 49 49 52 51 50 51 53 53 53 57 57 61 67 66 65 64 63 63 62 61 59 59 58
25 27 26 29 27 22 41 39 33 38 45 44 43 43 40 41 44 45 47 47 49 49 50 52 50 51 53 55 55 54 57 61 61 66 65 63 62 63 63 61 60 59 58 57
25 30 25 27 26 36 41 40 44 46 43 43 44 41 41 43 44 45 45 47 49 50 51 52 51 52 55 57 57 58 58 60 61 64 62 62 62 62 62 61 59 58 58 57
37 37 32 34 36 39 42 44 46 45 44 43 42 44 44 43 45 45 46 48 49 50 50 52 52 52 53 58 60 59 61 61 62 62 61 62 61 61 62 62 60 59 58 57
39 39 34 34 39 43 44 45 46 43 42 43 46 45 45 45 44 45 46 47 49 50 51 52 52 52 54 57 60 61 62 63 61 61 61 61 61 61 56 53 57 59 59 58
39 36 34 33 40 41 42 45 44 40 43 44 44 44 46 46 45 46 46 48 48 49 51 52 52 53 55 58 61 63 61 62 61 60 61 60 59 58 57 56 53 42 44 44

GFSCGP_sfc_temp_063.txt.gz
Temp
59 56 52 55 56 56 53 51 50 55 58 57 57 58 61 65 65 64 64 64 66 68 76 77 77 77 77 77 75 74 76 77 79 79 79 79 77 79 79 79 78 78 77 74
55 51 58 58 55 53 52 50 50 54 58 56 56 55 61 64 64 66 66 64 64 66 68 71 74 74 73 72 73 73 74 75 77 79 80 83 83 84 84 84 81 80 79 77
51 55 58 57 54 52 51 50 49 49 53 56 53 54 55 62 64 65 67 66 65 64 65 67 68 69 70 70 70 71 71 72 74 77 79 80 81 80 82 82 81 79 79 79
54 58 56 54 53 55 48 55 52 50 48 44 52 42 51 57 58 62 64 65 67 67 66 65 66 67 68 70 71 70 70 69 74 74 76 75 79 80 83 84 83 81 79 79
52 54 54 52 54 56 51 55 51 50 49 45 48 43 50 54 55 59 62 64 67 67 66 66 67 68 69 70 70 68 68 69 70 71 72 76 75 81 84 85 82 77 76 79
56 60 58 57 56 56 55 52 49 47 46 39 44 43 46 52 56 58 64 65 67 68 68 69 69 69 69 71 71 69 67 67 70 70 71 71 73 75 79 80 80 80 78 79
52 52 56 58 52 54 53 48 40 37 38 39 44 42 47 55 59 60 61 64 67 67 68 68 68 69 68 69 69 69 69 67 69 69 69 70 71 73 74 76 78 76 73 76
43 40 50 56 54 51 49 48 40 28 33 39 45 39 49 57 61 62 63 63 64 66 67 66 67 67 69 69 68 68 67 67 69 69 70 71 72 75 77 77 78 76 76 80
42 42 53 54 56 55 45 43 48 40 38 35 42 47 53 58 58 60 60 61 62 64 65 66 66 67 67 68 68 67 66 67 69 69 70 69 71 73 77 77 77 79 78 82
46 38 49 50 54 53 50 52 39 41 29 28 39 41 44 51 55 58 58 60 61 63 64 66 66 66 67 68 68 69 68 68 69 69 70 71 72 74 75 77 76 77 78 79
43 37 42 46 44 44 46 44 42 41 38 31 31 41 52 53 56 55 58 60 60 62 63 65 66 67 68 69 70 69 70 69 69 70 70 70 71 74 75 76 76 77 78 78
44 42 38 42 49 51 49 46 46 34 32 37 35 38 57 57 57 56 58 61 62 62 63 65 66 66 67 68 68 69 69 69 70 70 70 70 71 73 73 74 76 77 77 79
46 37 32 36 41 45 42 45 46 45 41 37 33 40 55 55 57 59 57 59 60 60 62 63 64 65 66 66 67 68 68 69 69 69 69 69 71 70 72 73 75 77 78 78
49 41 37 33 39 42 39 43 45 43 35 38 40 43 50 53 54 56 57 58 58 58 59 61 60 63 63 64 65 65 66 69 68 68 68 65 70 70 72 74 75 76 78 78
47 35 39 42 44 45 43 43 44 42 43 36 42 43 49 53 55 56 57 56 56 57 59 60 59 60 61 62 63 64 64 66 66 65 65 64 69 71 73 74 75 76 76 78
44 36 39 38 42 43 40 44 44 45 45 44 44 43 54 57 58 55 56 55 55 57 59 60 60 60 59 60 60 61 62 62 64 63 62 64 69 73 72 73 73 73 74 76
40 39 37 33 41 41 34 42 45 46 49 47 42 50 57 54 54 54 54 55 55 57 58 60 59 59 59 59 60 58 59 62 62 60 62 63 68 69 72 71 70 70 69 71
38 37 35 32 36 26 46 51 50 47 50 53 52 54 55 53 54 55 56 55 55 57 58 58 59 58 58 59 58 58 59 60 61 60 63 63 67 68 69 69 70 68 69 71
42 36 31 29 30 39 43 47 45 43 46 52 50 49 50 52 53 50 55 57 56 55 56 56 57 57 57 57 56 55 55 58 61 62 64 64 67 67 68 68 67 67 67 66
35 36 33 32 28 26 41 45 49 48 37 47 47 46 46 46 35 42 53 55 53 54 55 56 56 57 56 57 57 55 54 57 60 63 65 64 67 67 67 67 66 66 67 62
34 32 29 31 28 37 45 47 48 32 39 49 50 46 43 38 45 51 53 51 53 52 53 55 55 55 56 57 57 55 55 56 62 65 67 66 67 67 66 65 64 64 63 61
34 32 33 33 29 29 48 46 38 47 50 50 50 47 46 49 50 50 49 48 50 49 51 53 53 54 57 58 55 55 55 60 63 63 63 67 67 65 64 63 63 63 60 60
34 39 34 34 37 49 50 47 51 51 49 50 47 51 50 48 46 46 46 48 49 49 51 54 54 55 56 56 56 55 58 61 63 62 62 64 64 63 63 62 62 60 61 59
44 45 40 39 45 47 49 51 53 53 50 52 52 51 50 44 45 45 47 47 48 50 50 53 53 54 55 58 58 57 60 64 61 60 62 62 62 61 62 62 64 62 62 62
43 42 40 40 44 44 48 50 51 51 52 51 52 50 47 45 45 46 46 47 49 50 51 51 51 53 54 58 57 58 64 62 59 62 62 61 61 62 62 63 67 69 69 65
44 37 34 34 41 39 43 50 53 49 47 48 45 43 46 46 45 46 47 49 49 49 50 50 51 52 55 57 58 59 64 62 62 61 61 60 58 59 62 59 55 42 46 44

GFSCGP_sfc_temp_069.txt.gz
Temp
75 67 63 68 71 71 68 65 64 70 75 70 69 70 75 80 80 78 79 80 80 81 85 89 88 85 83 82 81 81 82 80 78 79 78 81 81 82 81 84 85 87 86 87
69 62 70 73 72 68 66 63 63 69 74 70 67 67 74 78 78 79 79 80 80 81 82 83 85 84 81 80 77 77 79 81 80 76 79 80 84 87 88 85 83 85 87 87
64 68 73 69 67 63 64 62 63 63 70 71 66 62 67 74 78 79 81 82 83 81 79 79 81 81 81 80 78 78 78 78 80 81 78 78 80 80 84 84 84 82 85 87
67 73 68 65 63 66 59 69 67 63 60 54 69 53 66 71 72 74 77 79 79 79 80 78 77 79 80 80 82 80 76 76 75 81 81 80 78 77 82 82 86 82 83 85
63 67 64 62 64 68 62 69 65 63 60 59 60 56 62 71 68 71 74 76 78 79 79 79 78 78 80 80 80 81 79 78 76 76 75 79 79 84 85 87 84 82 78 82
68 75 71 67 70 69 68 65 63 62 59 49 57 57 58 66 68 71 74 76 77 78 80 80 81 81 78 82 79 78 77 78 78 78 77 76 75 77 80 83 85 86 89 89
64 65 72 72 63 68 64 55 44 44 47 47 62 58 61 68 71 74 73 75 77 79 79 80 80 81 81 79 81 80 79 76 77 77 78 78 76 75 75 77 82 83 89 92
50 48 64 67 64 60 59 56 45 33 39 47 57 51 62 72 74 75 75 76 76 76 79 78 79 80 80 80 80 80 79 77 78 77 78 78 78 79 81 81 82 85 88 90
48 52 58 63 65 65 58 52 60 48 51 46 53 59 67 69 69 71 72 73 73 74 75 77 80 80 80 79 79 78 78 79 80 79 78 78 78 78 77 78 79 83 83 87
58 46 61 61 64 65 61 63 47 51 38 36 47 52 52 62 65 68 69 70 72 74 75 77 79 79 80 80 79 79 80 78 79 80 80 80 80 80 80 79 78 79 81 83
60 49 52 58 55 53 56 54 54 53 41 37 38 47 63 62 67 67 69 71 72 73 75 77 79 80 81 81 81 80 80 79 79 79 80 79 80 80 80 79 80 80 81 81
59 49 42 49 61 63 59 43 46 36 40 47 47 48 66 65 69 69 69 71 74 75 76 77 78 78 79 79 80 79 79 80 80 80 79 78 79 79 78 78 79 81 80 83
56 46 39 46 54 56 54 57 56 54 50 42 39 47 65 67 67 69 69 73 74 74 75 76 76 76 77 78 78 78 79 79 80 79 79 78 77 77 76 77 78 79 81 83
54 49 44 38 45 42 37 50 55 50 41 46 49 52 56 57 59 67 70 72 74 74 74 74 74 75 76 76 77 77 77 78 78 78 77 75 75 75 76 76 77 78 79 83
55 44 48 51 54 54 53 52 53 47 50 45 50 50 55 59 62 68 72 72 72 72 74 73 73 74 75 75 75 76 76 77 77 75 74 73 74 76 76 76 77 78 78 82
57 44 47 45 52 54 49 54 55 55 55 54 53 52 63 67 70 70 69 70 70 70 73 72 73 73 73 74 73 73 73 73 74 72 72 73 74 75 75 76 76 77 76 80
51 46 41 38 50 49 45 54 55 56 59 58 51 58 64 64 66 67 68 66 67 70 71 72 72 72 71 71 71 69 70 71 71 71 72 72 73 73 74 76 77 77 74 76
48 45 43 40 45 33 52 61 62 58 60 61 61 61 63 66 66 68 69 69 68 69 70 70 69 68 69 70 70 69 68 70 70 70 70 72 73 74 75 76 76 74 74 74
53 41 36 33 36 47 53 54 53 52 53 61 60 64 66 67 67 66 71 71 69 68 68 67 69 68 68 67 65 61 61 63 65 66 69 71 72 73 74 75 74 71 72 74
47 43 36 38 30 30 50 58 61 60 46 59 59 57 55 58 52 60 65 65 63 64 66 67 67 66 63 61 60 61 59 58 59 64 69 71 72 72 70 73 70 67 72 75
39 39 33 38 33 44 54 58 61 38 45 55 57 57 55 50 56 58 58 60 62 64 65 67 63 61 61 60 58 54 56 56 62 64 66 67 70 69 70 70 63 65 71 74
43 39 37 39 33 31 57 53 40 49 55 54 54 54 55 56 56 58 59 61 61 61 64 63 59 60 58 56 54 53 54 59 63 64 63 66 65 68 69 66 62 66 68 69
42 46 38 42 42 54 58 54 57 56 54 55 53 54 54 53 54 56 55 58 59 59 58 59 56 56 55 55 55 53 57 59 60 62 64 65 68 68 66 61 62 64 66 65
52 57 46 44 53 53 53 55 56 55 53 53 53 53 54 50 50 50 54 53 54 56 54 56 55 53 53 56 56 57 61 65 62 56 61 65 62 65 61 62 64 63 63 63
45 48 38 43 51 50 53 53 52 51 54 55 56 53 47 45 45 46 48 51 54 53 52 52 52 52 53 57 57 59 64 63 60 64 64 61 62 61 62 58 62 65 66 68
40 37 34 34 42 40 42 46 47 45 51 51 47 43 45 45 44 46 46 49 49 49 50 50 51 52 54 56 58 61 63 66 61 60 61 59 58 59 57 56 52 44 46 48

GFSCGP_sfc_temp_072.txt.gz
Temp
73 65 61 66 69 70 68 65 63 69 75 72 71 70 73 78 80 79 79 79 80 81 85 88 86 83 81 80 78 77 75 74 77 77 76 75 75 78 78 78 79 80 82 81
67 61 70 73 71 68 67 63 62 67 73 70 69 68 72 75 76 79 79 78 79 80 82 84 84 81 78 77 78 76 76 75 74 76 77 76 78 78 76 76 77 78 80 79
63 68 75 71 67 64 64 61 60 61 68 71 68 63 67 73 76 79 81 82 82 80 79 80 81 80 79 77 74 74 76 73 75 77 75 76 75 76 75 77 75 77 78 78
67 73 70 67 65 66 57 68 67 64 60 53 67 51 63 69 71 75 77 79 80 81 82 81 80 80 77 77 79 76 75 76 73 74 75 74 72 71 76 81 78 77 78 78
63 67 66 64 64 68 61 69 64 63 59 58 58 53 59 68 66 71 75 78 79 81 80 80 79 78 80 79 78 79 75 75 74 71 73 73 72 73 73 74 75 75 76 77
66 74 71 68 71 70 70 65 62 61 56 45 55 54 55 62 67 72 76 76 78 79 79 80 80 78 78 79 77 76 75 75 77 75 72 70 71 71 70 71 71 73 76 77
64 64 70 72 63 68 66 57 45 42 43 41 56 49 57 67 73 75 73 75 77 78 78 77 78 78 76 76 76 75 73 73 75 75 74 73 71 71 71 70 70 71 73 75
49 43 61 57 53 57 56 53 47 34 38 44 56 41 55 65 75 76 77 76 77 77 78 78 79 79 80 79 77 78 75 74 75 75 73 75 73 72 71 70 71 72 72 74
50 50 65 56 58 61 53 46 58 47 50 45 49 49 58 66 69 73 73 73 73 75 75 77 78 78 78 79 78 78 75 75 75 75 74 73 73 73 72 71 72 73 73 77
57 47 61 63 61 59 50 54 40 41 30 32 45 49 50 58 59 68 70 70 72 74 75 76 77 77 78 78 77 76 76 74 73 76 75 75 74 74 73 73 72 72 73 74
59 51 51 55 53 51 51 47 53 51 46 36 35 44 59 58 64 63 69 72 72 73 75 75 77 78 79 79 80 77 76 76 75 73 73 74 75 75 75 74 74 74 74 75
55 46 43 49 59 63 60 55 51 33 36 43 40 40 64 63 65 66 69 72 74 75 75 77 77 76 77 77 78 77 76 77 76 76 75 73 74 75 73 72 73 75 74 75
57 48 38 41 53 51 40 43 46 39 44 34 32 43 64 58 62 65 65 71 73 73 76 76 76 76 76 76 76 77 77 76 77 77 76 73 71 71 71 71 72 73 73 75
56 50 44 37 44 50 39 41 47 41 35 42 46 50 58 57 56 59 64 67 67 67 73 75 74 75 75 75 76 75 75 76 76 76 74 71 70 70 68 69 70 72 74 73
56 45 49 51 53 53 52 52 51 48 51 45 49 50 57 60 56 60 65 64 63 62 60 74 72 73 74 74 75 75 75 75 75 73 72 70 70 70 70 69 69 70 71 74
57 44 49 45 51 52 49 53 54 54 55 55 55 54 64 67 68 67 65 64 64 65 66 72 74 73 72 73 73 73 72 73 73 70 69 71 70 70 69 68 69 69 70 72
51 48 42 37 49 49 41 49 52 52 56 54 47 54 59 58 64 64 61 61 62 64 58 57 68 71 70 69 69 68 69 71 69 69 69 70 69 69 69 69 69 68 68 69
49 47 44 37 43 30 51 60 58 45 42 52 51 48 54 54 55 56 56 53 52 59 60 66 68 67 67 68 68 68 68 67 67 66 67 68 69 69 69 68 67 67 68 69
55 46 35 33 35 44 50 49 51 51 50 56 54 57 58 59 59 58 64 61 59 63 65 66 66 66 65 67 67 65 64 64 64 64 64 65 66 66 66 67 66 67 68 69
51 48 37 38 30 30 48 53 57 49 43 55 54 54 53 56 49 54 61 63 63 65 66 65 65 66 64 65 64 62 61 61 60 61 62 63 63 62 63 65 65 67 69 69
39 38 33 37 33 42 53 55 57 39 40 52 54 54 53 49 53 56 59 59 62 63 63 64 64 63 62 64 62 60 59 57 59 60 61 59 60 59 60 63 66 66 67 67
40 36 37 39 34 31 54 51 40 45 53 53 54 52 50 52 54 56 57 57 59 59 61 63 61 60 61 61 60 58 55 56 57 57 59 58 60 62 64 62 64 64 64 63
41 44 36 42 41 52 53 51 55 53 50 51 51 50 51 52 52 54 53 53 53 54 57 58 57 56 57 58 57 56 55 56 56 57 57 59 60 61 62 60 61 62 62 62
52 54 44 43 51 51 49 54 53 52 48 49 50 49 51 50 49 45 48 48 50 52 52 53 54 54 54 57 58 57 57 58 57 56 56 58 58 59 61 61 61 61 62 62
44 47 38 43 50 46 49 48 49 47 47 47 47 48 49 47 44 45 44 46 47 49 51 53 52 51 53 55 56 57 58 58 57 56 55 55 58 60 60 61 60 62 64 65
44 39 35 34 41 38 40 46 48 45 46 48 45 43 44 45 42 44 44 46 47 47 50 49 50 50 53 54 55 56 58 58 57 56 55 55 56 58 58 56 55 45 51 48

GFSCGP_sfc_temp_075.txt.gz
Temp
63 51 47 54 58 60 59 57 55 62 68 62 60 60 64 69 68 66 66 68 68 71 75 76 73 72 70 69 69 69 70 68 69 71 72 71 70 72 74 75 77 77 76 77
55 50 61 66 66 62 60 55 54 61 65 63 60 60 64 67 65 65 66 66 68 69 71 74 69 69 69 67 67 68 68 69 68 70 73 73 74 73 74 74 75 76 77 76
52 59 69 67 63 60 58 54 54 54 61 63 59 55 58 65 66 69 70 69 68 68 68 70 71 67 67 66 66 67 67 68 67 68 69 69 72 72 72 72 70 72 75 75
57 65 65 62 60 62 53 61 61 59 54 43 57 42 52 59 61 66 70 72 67 68 69 69 69 64 65 66 67 66 67 67 69 68 66 66 69 69 72 73 73 71 74 74
55 59 59 57 60 65 57 63 59 58 49 44 49 41 49 57 58 61 66 71 72 68 67 65 67 67 68 68 66 65 65 66 66 67 66 64 65 67 68 69 70 73 74 73
59 68 64 61 62 59 60 57 55 51 45 34 46 44 46 51 56 60 68 68 71 67 67 67 68 68 65 67 67 65 65 65 65 65 65 65 64 65 65 66 66 68 74 77
57 60 62 64 53 58 54 44 32 31 31 33 50 45 47 55 60 62 63 71 65 67 65 65 64 65 66 64 65 65 64 63 65 65 65 65 67 66 66 66 66 66 67 69
45 40 56 60 51 45 43 42 31 24 25 33 47 41 49 58 63 66 69 64 66 64 63 64 66 66 64 65 65 65 63 63 64 65 65 66 65 64 66 68 67 67 67 68
42 45 61 61 58 52 43 38 46 34 37 32 38 46 54 58 60 65 64 65 60 61 62 63 65 66 66 64 64 64 63 64 65 65 65 65 66 64 64 66 66 68 69 71
49 38 56 59 58 53 47 50 36 34 26 25 34 39 42 51 56 61 62 61 62 62 62 64 65 65 64 65 66 65 66 66 67 66 65 66 66 66 65 65 65 66 68 70
47 40 44 50 48 46 41 36 40 39 35 29 26 36 53 48 52 56 62 64 62 62 61 62 65 65 65 65 64 65 64 64 64 65 66 66 66 67 67 66 66 66 66 67
47 39 33 41 51 53 48 38 38 30 30 33 32 32 53 50 50 56 58 61 62 60 61 63 64 64 66 65 66 65 64 64 64 65 65 65 65 65 65 65 66 66 66 68
49 37 28 33 41 45 41 44 41 39 36 31 30 31 55 53 56 57 55 59 63 65 63 62 66 66 64 64 65 66 65 65 66 66 65 63 64 63 64 64 65 66 66 66
53 40 35 28 36 42 37 42 44 37 28 31 35 38 44 52 51 55 57 62 64 63 60 57 58 65 65 64 66 65 65 66 67 66 64 62 61 61 62 63 62 64 66 67
46 35 41 44 48 48 46 46 48 44 40 35 43 41 45 52 50 53 57 60 59 60 64 60 56 55 63 65 63 65 65 65 65 65 62 61 61 62 62 62 63 62 63 67
45 35 41 39 47 47 45 48 49 48 48 47 43 43 51 53 53 49 53 58 59 61 62 59 59 57 56 63 60 62 62 63 63 61 61 62 62 62 60 60 60 60 61 64
39 36 33 30 43 42 34 44 47 48 50 42 35 41 48 46 48 47 46 52 51 52 54 54 56 57 57 59 62 59 60 61 61 60 62 63 62 61 60 60 60 60 61 62
39 36 34 29 34 24 42 51 50 46 48 45 45 48 47 48 50 49 51 48 50 51 52 52 57 58 57 58 60 58 60 59 59 58 60 61 60 60 59 59 60 59 62 62
45 37 29 23 23 37 44 45 44 40 41 47 46 48 50 51 52 50 53 54 52 54 56 56 60 61 60 59 57 57 56 57 57 58 58 60 61 60 60 59 59 61 63 64
46 40 31 29 24 20 37 47 52 49 32 47 48 46 46 46 37 42 51 54 54 55 57 57 57 57 56 57 57 55 55 54 55 58 59 60 59 58 56 56 56 58 59 62
35 34 31 32 26 35 44 49 52 33 33 45 46 45 45 42 43 47 51 53 54 55 52 52 53 53 56 57 55 54 52 51 55 59 59 57 56 56 57 56 57 57 58 58
34 33 32 33 30 28 47 46 36 41 45 44 44 43 43 45 46 46 48 50 51 50 51 52 51 52 54 56 54 53 51 53 56 57 56 56 57 57 59 56 56 56 55 55
33 37 34 35 32 44 45 44 47 46 42 43 42 44 44 43 43 46 48 47 48 50 49 50 50 50 51 53 54 52 54 55 55 53 55 56 56 56 57 55 56 56 54 55
43 44 35 34 44 42 44 46 46 47 43 46 47 47 46 42 43 43 43 45 46 48 48 49 50 49 50 54 56 56 57 56 55 53 54 55 53 53 54 55 54 54 55 55
41 44 37 36 42 41 45 44 44 43 45 46 47 45 44 43 42 43 42 45 45 46 47 48 48 48 50 52 52 54 56 56 54 53 53 52 53 54 53 54 55 55 58 58
41 37 34 32 40 37 38 42 43 43 43 45 44 42 41 42 40 42 40 43 44 44 46 47 47 46 48 51 52 53 55 56 54 52 52 52 52 54 53 53 54 44 44 45

GFSCGP_sfc_temp_078.txt.gz
Temp
58 49 44 50 52 55 53 51 50 56 61 55 54 55 60 62 63 65 67 64 65 66 70 71 68 68 67 67 67 66 68 66 68 69 68 67 68 70 73 70 73 77 78 77
51 45 57 59 59 56 54 51 50 55 60 56 55 54 61 62 62 62 62 62 64 62 66 66 65 67 66 65 65 65 67 66 66 67 68 68 68 69 70 70 71 71 73 76
48 54 63 61 57 55 54 50 50 51 57 56 53 51 55 62 62 65 65 66 64 65 64 62 65 64 64 64 64 64 64 65 65 66 67 68 68 69 68 68 68 72 71 74
52 62 60 57 55 56 46 54 53 53 49 42 53 39 49 54 56 61 62 61 62 63 63 63 66 63 64 64 64 64 64 64 65 64 63 64 65 65 67 68 71 70 73 73
53 55 54 53 56 57 51 56 51 51 46 41 45 36 48 51 52 56 59 62 63 65 64 64 66 66 62 63 62 62 62 62 63 63 62 62 62 63 66 65 66 68 72 71
57 63 59 58 60 58 58 50 47 45 41 34 45 39 45 48 53 54 59 64 65 66 62 64 64 65 62 62 61 61 62 62 62 62 62 61 61 61 62 62 63 65 69 71
55 56 61 61 51 53 50 40 31 27 30 35 46 40 46 54 57 59 59 60 64 68 59 63 64 64 64 61 60 61 61 60 61 62 62 61 61 61 62 62 62 62 64 66
40 39 52 57 49 43 41 39 27 22 23 32 42 36 45 54 58 62 62 60 61 64 63 64 64 66 66 63 62 62 60 60 61 62 62 61 61 61 61 62 63 63 62 64
39 42 56 59 54 52 41 37 44 35 33 29 32 41 51 58 57 60 61 61 61 58 62 63 65 65 61 61 61 61 60 61 62 62 62 61 61 60 60 61 61 62 63 66
46 37 52 55 54 52 45 47 33 33 19 26 32 36 38 46 47 52 53 56 59 61 61 60 62 62 60 61 61 60 61 62 63 62 61 63 63 62 62 61 61 62 64 66
47 39 42 47 44 40 39 37 36 34 29 21 25 30 46 44 48 48 54 56 56 61 61 62 62 62 62 61 61 62 62 63 61 62 61 61 61 63 63 62 63 63 63 65
47 38 32 40 48 51 44 39 36 27 28 33 30 32 53 52 53 51 51 59 59 60 61 60 61 60 59 60 59 59 64 63 63 63 62 61 62 60 60 61 62 62 63 63
46 35 28 32 38 42 41 43 42 39 32 28 22 29 52 52 52 54 53 57 60 62 61 58 59 57 59 59 61 63 62 61 61 62 61 59 60 61 60 61 61 61 62 62
51 37 33 27 34 37 35 40 42 37 26 28 32 37 45 49 47 51 52 53 59 61 59 63 57 53 54 59 61 61 60 61 61 61 59 59 60 59 59 60 60 61 62 62
43 34 37 40 43 44 43 43 44 38 39 32 40 39 43 44 44 46 49 51 54 55 60 62 56 53 54 55 58 60 63 62 62 62 60 59 58 59 59 59 59 60 60 61
41 33 36 36 44 43 41 43 44 44 45 44 42 39 45 48 48 48 48 49 50 50 54 55 57 57 56 58 56 60 60 61 60 58 58 59 59 59 58 58 58 58 58 58
37 32 30 27 40 39 32 40 41 42 41 39 32 40 43 43 47 46 46 48 49 50 52 52 52 55 55 55 57 56 58 61 60 60 60 60 59 59 58 58 57 56 55 56
36 33 29 27 31 22 38 47 46 43 43 44 43 43 46 46 47 49 49 46 48 50 51 52 51 51 54 57 56 57 59 60 57 57 60 59 59 58 57 56 55 53 53 53
42 32 26 22 20 34 41 43 41 39 39 44 42 44 46 47 47 48 51 51 49 49 51 52 53 53 53 53 55 55 55 55 56 58 58 59 58 56 55 54 54 54 53 57
41 39 31 25 24 21 37 45 48 46 33 43 42 40 40 40 35 41 47 48 49 51 51 51 51 50 49 50 51 51 52 54 56 58 58 59 58 56 54 53 52 53 55 57
35 35 31 28 25 31 43 46 48 30 31 43 43 41 39 37 41 44 47 47 48 49 50 50 50 51 51 52 52 51 52 52 55 57 57 56 54 54 53 52 51 52 53 55
31 31 31 32 29 27 44 43 34 38 41 41 41 41 40 42 44 46 47 46 47 47 48 50 49 50 51 51 50 49 50 54 55 54 55 54 52 54 57 52 53 53 53 52
32 36 33 33 28 39 41 42 43 42 39 40 40 42 44 43 43 45 44 45 45 46 48 47 49 50 51 52 53 50 50 53 54 53 53 53 55 54 54 52 54 54 51 50
41 42 33 31 40 39 42 43 45 45 43 43 45 45 43 39 41 41 41 43 44 45 46 48 48 47 47 50 52 53 54 56 55 53 53 53 51 51 52 54 52 50 51 51
37 38 32 33 38 41 43 44 44 43 45 44 45 45 43 41 40 39 40 40 43 44 44 46 46 45 46 50 51 53 53 53 52 52 52 52 52 52 53 52 52 52 55 54
39 36 34 32 39 38 39 43 44 42 43 44 42 42 42 41 40 40 38 39 41 41 43 43 44 45 47 49 50 51 53 54 52 51 51 51 50 51 51 51 52 46 46 46

GFSCGP_sfc_temp_081.txt.gz
Temp
54 47 43 48 49 52 50 46 45 52 59 52 52 54 57 59 58 58 59 61 64 63 72 70 70 69 65 64 65 67 68 67 71 68 68 68 70 68 69 68 73 72 75 74
49 43 53 55 54 51 49 46 46 51 57 51 51 52 56 57 58 60 61 63 60 59 63 68 65 63 65 65 64 63 65 66 68 69 67 68 67 67 68 68 68 71 73 74
46 52 59 56 53 50 49 45 46 46 53 53 50 50 52 59 57 61 61 61 61 60 61 62 61 61 62 63 63 63 63 64 63 67 67 67 66 68 65 67 67 68 70 72
49 58 55 53 51 52 44 53 52 49 44 36 49 37 49 53 53 57 60 58 59 60 62 61 60 59 60 66 62 62 62 62 62 63 64 66 65 65 66 66 66 67 69 70
50 52 51 50 53 55 49 54 50 49 42 37 41 35 48 48 49 53 56 60 60 61 60 62 61 63 64 61 61 60 60 60 60 60 61 61 61 62 63 63 65 67 68 68
55 59 57 55 58 56 55 48 45 42 38 30 41 40 44 48 50 54 56 59 64 62 61 61 65 66 61 58 59 58 59 59 60 60 59 59 59 59 59 61 61 62 64 66
51 53 57 58 50 50 47 38 28 28 27 32 40 37 41 50 56 56 57 58 59 59 58 58 59 59 59 59 58 59 59 59 59 60 59 59 58 58 58 59 60 60 61 62
39 38 51 55 50 45 40 39 29 22 25 32 40 30 40 51 55 58 59 57 58 56 54 56 60 62 63 63 59 60 58 58 58 59 60 59 59 58 58 59 59 59 59 60
37 41 54 56 52 50 39 34 39 31 29 25 31 38 46 52 52 55 54 55 53 54 54 55 60 63 64 60 59 59 58 58 59 60 59 59 59 58 59 59 59 59 60 63
45 36 50 53 54 49 43 45 30 29 25 22 28 32 36 44 47 51 52 52 52 54 55 56 57 58 57 59 59 58 59 60 61 60 59 59 59 59 59 58 59 59 60 61
46 39 41 47 45 40 38 33 33 33 31 26 21 29 44 45 47 47 48 52 53 52 54 57 60 62 61 60 58 59 59 60 60 59 59 59 59 60 59 59 60 60 60 62
46 38 33 40 46 49 42 37 35 24 24 31 26 30 51 50 49 51 54 55 57 59 54 57 61 60 60 58 55 57 59 58 61 60 59 59 59 59 59 58 59 60 60 61
47 36 31 34 38 41 38 39 38 36 32 28 25 30 51 49 46 48 49 53 54 56 55 58 59 56 57 56 58 57 57 61 60 59 59 57 57 57 57 58 58 59 59 60
50 37 36 31 34 36 33 39 39 35 27 29 31 36 44 46 43 46 47 48 50 54 57 57 56 55 55 56 56 59 59 58 58 58 58 58 57 57 58 58 58 59 60 60
43 35 37 39 41 41 40 40 41 34 37 31 37 37 39 40 41 45 47 49 49 50 54 57 56 58 55 57 58 58 59 58 58 58 57 57 57 57 57 57 57 58 58 59
39 33 35 34 42 41 39 41 41 41 41 40 41 38 40 44 45 47 47 49 48 48 50 51 53 55 55 56 57 58 57 58 58 58 59 58 57 56 56 56 56 56 57 57
37 33 30 29 37 36 31 37 39 40 42 41 35 41 44 43 46 47 46 47 49 49 50 50 51 52 52 53 54 56 57 57 56 57 58 58 57 57 56 56 56 55 54 54
34 32 28 27 30 22 36 44 44 41 43 43 43 43 45 42 46 46 49 47 46 47 49 50 49 49 50 52 56 55 56 56 55 55 57 58 57 57 57 55 54 53 52 52
40 31 25 21 20 32 39 41 39 37 37 42 41 43 45 46 42 43 51 49 45 45 46 48 51 50 49 50 51 51 52 53 53 55 55 56 57 55 54 53 52 51 50 50
40 37 30 22 24 20 35 43 47 44 31 44 44 41 40 38 32 38 45 47 48 49 49 49 49 50 49 47 48 48 49 50 51 54 56 57 56 57 55 53 52 51 50 53
33 34 27 24 27 31 40 44 46 28 30 38 40 39 37 36 41 45 47 47 49 48 48 48 48 48 49 51 50 47 49 49 52 54 55 56 56 55 53 51 49 49 49 51
32 31 29 32 28 23 43 41 33 38 39 41 41 41 40 42 43 45 45 44 46 47 49 48 47 49 49 50 48 48 48 50 51 52 53 54 56 54 56 49 48 48 47 48
31 36 27 32 28 37 41 40 42 41 39 41 42 43 41 40 41 43 42 44 45 45 45 45 45 47 50 50 49 47 50 51 51 49 50 51 52 52 52 49 49 49 49 48
37 39 36 35 37 38 40 44 44 45 43 43 44 43 44 40 41 42 43 41 42 44 43 43 44 45 46 49 51 52 52 53 52 50 49 50 50 51 51 52 52 50 50 49
36 36 32 32 36 39 43 45 45 44 44 44 44 43 42 42 41 41 40 40 41 42 42 42 43 43 45 47 49 51 52 52 51 52 51 51 52 52 51 51 49 50 52 51
36 36 33 33 36 35 38 42 43 41 41 42 41 42 43 41 40 41 40 38 40 40 42 41 41 43 44 46 48 49 51 52 50 49 49 49 48 50 51 50 49 45 47 46

GFSCGP_sfc_temp_084.txt.gz
Temp
51 46 42 47 47 49 46 43 42 48 55 48 49 50 53 56 56 56 58 59 59 60 64 66 68 66 65 64 64 66 70 70 70 69 70 70 70 68 69 69 72 72 73 74
47 42 51 53 51 49 46 42 42 48 53 48 48 50 53 54 55 57 58 59 59 58 61 62 62 61 62 67 67 64 67 68 71 73 73 70 69 68 68 69 70 71 71 72
44 50 56 53 49 48 45 42 43 45 49 50 48 48 48 53 55 58 58 59 58 58 59 60 62 59 58 60 64 66 65 66 70 70 68 66 67 67 66 67 68 70 71 72
47 54 54 48 48 49 41 50 50 48 42 35 47 36 48 51 52 53 56 57 58 59 60 60 61 61 59 60 62 64 64 64 66 68 69 67 66 67 66 67 67 68 70 71
49 49 47 47 50 52 47 52 49 46 40 35 40 33 42 48 50 52 58 56 59 60 60 60 62 63 64 60 59 59 60 61 62 67 70 68 65 66 65 65 66 67 68 70
51 55 54 53 54 54 53 46 43 39 35 27 39 37 38 42 48 49 56 58 59 62 58 59 61 62 61 58 58 58 59 59 59 61 62 64 64 63 62 62 63 64 66 67
48 51 54 56 47 47 45 38 28 25 27 32 40 34 40 47 54 52 52 55 58 57 57 56 56 58 60 56 57 58 57 57 58 58 59 60 60 60 60 61 61 61 62 63
37 38 50 54 49 43 39 38 29 21 25 32 38 30 38 50 51 53 54 52 54 53 53 54 56 57 60 59 58 61 58 57 57 58 58 58 58 59 59 59 60 61 61 63
36 39 52 54 51 49 39 34 40 31 27 23 29 36 44 50 50 51 52 53 53 52 52 53 54 54 56 58 60 62 60 60 59 59 59 58 59 59 59 59 60 61 61 63
43 35 47 50 50 47 43 45 31 27 18 18 27 31 34 42 45 48 48 49 52 53 53 53 54 55 54 55 57 59 62 59 60 61 60 60 59 60 60 59 60 60 61 63
46 39 40 44 42 40 37 34 32 31 27 19 22 28 40 41 43 44 48 51 53 53 52 54 54 54 55 56 55 55 56 58 58 58 59 59 59 60 60 60 61 61 62 63
44 39 32 38 42 47 43 38 34 25 25 31 28 30 48 45 44 45 46 50 51 53 55 54 55 54 54 54 55 58 57 58 61 61 61 59 60 59 59 59 60 61 62 63
45 36 28 32 38 42 37 39 37 33 29 26 26 30 48 47 47 45 44 48 50 52 52 55 56 56 58 58 59 59 59 60 60 59 58 58 58 58 58 59 60 61 61 62
51 37 35 31 38 36 33 38 38 33 21 29 31 35 43 45 41 42 44 46 48 51 51 51 52 54 56 59 58 59 59 59 60 59 58 57 57 57 57 58 59 60 61 61
43 32 37 40 41 39 38 39 39 33 36 29 37 36 43 41 40 42 45 46 48 49 51 51 50 50 54 56 58 60 60 60 59 58 59 59 59 57 57 58 59 59 59 60
38 33 34 35 41 40 37 41 40 40 39 38 38 37 44 42 44 43 44 46 46 48 50 51 51 51 51 53 54 56 58 58 59 57 57 58 57 58 56 56 57 57 58 58
36 33 30 29 36 35 30 37 38 38 40 38 32 38 41 41 43 42 42 45 46 48 49 48 48 49 50 50 52 53 55 58 57 57 58 59 58 58 57 57 56 56 55 55
34 32 28 26 29 22 36 42 43 39 41 41 40 41 43 44 43 43 46 43 44 46 47 46 47 47 50 52 52 52 53 53 54 56 57 58 58 57 57 56 56 55 54 54
40 32 23 20 20 31 37 39 37 34 34 42 40 42 44 45 43 41 47 46 44 44 46 48 49 49 48 49 51 50 50 51 52 53 54 56 57 56 56 55 54 54 53 52
39 36 26 22 19 19 33 41 45 42 30 41 41 41 42 38 32 39 45 46 47 48 48 48 49 50 49 49 48 48 49 49 50 52 54 55 55 54 54 54 53 53 53 54
33 33 28 29 26 29 39 43 46 28 30 40 39 38 39 36 39 44 47 46 48 48 48 49 49 48 49 49 47 46 48 48 51 53 54 53 53 53 53 54 54 53 53 54
30 30 29 31 27 22 42 41 32 36 41 42 40 41 41 42 43 43 45 45 46 47 47 48 47 47 50 48 48 47 46 50 51 52 52 51 51 53 55 53 53 52 53 51
31 35 29 32 27 36 39 39 41 41 38 40 42 42 41 40 40 41 41 43 44 45 46 47 46 45 47 48 47 45 48 50 50 49 49 50 50 52 52 51 52 51 50 51
37 37 36 36 36 36 39 41 43 45 43 43 43 42 41 39 40 40 41 41 41 44 44 45 45 42 44 47 47 48 51 52 51 49 49 50 50 50 51 52 52 51 51 49
35 36 34 34 36 38 41 43 43 43 44 43 43 42 41 40 39 40 39 39 39 40 41 40 39 42 44 45 46 48 50 50 49 50 50 50 51 50 49 50 51 52 53 52
39 36 33 32 39 37 37 41 43 41 41 41 40 40 42 41 40 39 38 39 38 38 37 40 40 41 43 43 45 47 49 49 48 48 49 49 50 50 51 50 50 45 46 45

GFSCGP_sfc_temp_087.txt.gz
Temp
62 60 55 59 60 59 57 54 53 58 64 58 61 61 65 70 70 72 73 74 74 74 80 79 78 77 76 75 75 77 77 77 78 78 78 77 77 78 79 80 79 78 79 79
59 55 62 62 60 57 55 54 54 59 62 58 61 60 65 68 69 71 72 73 74 76 78 78 79 78 75 74 74 74 76 77 76 78 77 79 79 79 79 78 78 80 79 80
56 60 61 59 58 55 56 53 54 54 60 61 58 57 61 67 68 71 72 73 73 73 74 76 77 77 77 73 73 74 74 77 77 78 78 78 78 76 74 74 76 77 78 79
58 65 59 58 56 58 52 60 58 56 53 49 57 45 57 62 64 65 69 72 70 71 73 75 75 75 77 77 77 74 75 76 77 78 77 75 77 76 78 78 78 77 77 78
58 57 56 56 59 60 57 60 58 57 53 49 53 49 55 62 59 64 66 67 68 69 70 71 74 75 77 78 76 74 73 74 76 77 78 77 77 80 80 79 77 78 78 78
60 64 62 63 61 62 61 58 54 51 51 42 51 50 52 56 59 62 65 66 66 68 69 70 72 73 73 77 76 73 71 71 73 75 76 76 76 77 77 76 77 78 80 80
58 59 64 63 58 59 57 53 44 41 42 41 52 47 51 59 63 63 62 64 66 68 70 69 69 70 71 72 74 73 71 71 72 73 75 76 77 76 76 75 76 76 78 78
48 46 57 61 59 56 54 53 44 33 38 43 52 42 52 60 64 64 64 64 66 67 68 67 69 68 70 70 71 72 72 71 71 71 73 74 74 73 76 75 77 78 78 78
46 46 58 57 58 58 50 47 52 44 42 38 46 51 56 61 61 62 62 62 63 64 64 66 69 69 68 69 68 69 70 71 72 72 71 70 70 72 74 73 73 75 74 76
53 45 53 54 57 54 52 55 43 44 32 31 43 44 45 53 56 58 59 59 61 63 64 65 66 68 67 69 68 69 70 71 71 71 70 71 71 72 73 72 72 73 73 75
55 49 49 52 50 51 48 47 44 45 40 33 33 42 53 53 56 55 57 60 61 61 63 64 65 67 68 70 69 67 68 69 69 69 70 70 71 70 70 72 73 73 72 73
51 47 42 46 56 53 52 51 49 37 36 37 36 37 58 58 58 57 58 61 62 61 63 64 64 65 67 67 68 68 68 67 67 68 65 67 68 70 69 71 73 73 73 74
53 45 38 41 47 49 47 49 49 46 45 39 35 40 57 56 58 60 58 59 60 60 62 63 63 63 64 67 68 69 67 68 69 68 69 67 64 67 68 70 72 74 74 75
54 44 41 37 43 47 42 46 49 46 37 39 41 45 51 55 55 58 57 58 58 59 60 61 61 62 63 63 65 65 63 68 67 67 68 68 64 66 66 69 71 73 75 74
50 38 43 46 47 47 46 46 47 44 46 40 45 46 51 55 56 57 57 57 56 57 59 60 60 60 61 61 63 63 63 57 61 68 68 66 68 67 65 68 70 73 73 74
47 41 43 41 46 46 43 46 47 47 47 47 47 46 57 57 56 54 55 55 55 56 58 59 60 59 58 59 60 61 62 61 57 59 64 66 66 67 64 65 67 69 71 72
45 44 40 35 42 41 36 44 46 48 50 48 42 50 54 52 53 54 55 54 54 55 56 57 58 58 58 58 58 59 60 62 60 59 57 63 65 66 65 64 65 66 68 68
42 41 41 35 38 27 44 50 48 46 48 51 50 51 53 53 54 54 56 54 54 55 56 57 58 58 58 59 59 59 60 61 61 60 60 61 62 63 64 64 63 64 66 65
46 42 35 31 32 40 45 44 44 41 44 51 50 52 51 53 53 51 56 57 55 55 56 57 58 57 57 57 59 58 58 59 60 60 61 61 62 63 63 64 63 65 65 64
43 45 37 32 28 27 40 46 50 48 37 48 48 47 47 48 36 45 55 55 53 54 55 55 56 56 56 56 58 56 56 58 58 60 61 62 62 62 61 62 63 65 64 65
33 33 31 34 29 38 46 48 50 33 39 48 48 47 46 41 45 49 49 49 51 50 52 54 54 54 54 56 56 54 55 55 59 60 60 60 60 60 60 61 62 62 63 64
37 34 32 33 30 29 47 48 39 46 48 47 47 46 43 42 42 42 44 44 46 46 49 49 48 51 54 55 55 52 53 56 58 58 58 58 59 60 61 59 60 60 61 60
36 40 35 37 39 45 49 46 50 49 46 46 45 44 42 40 40 41 41 42 42 43 44 47 46 49 51 53 54 51 53 55 56 55 55 56 57 58 58 57 58 59 59 60
43 45 40 41 46 48 47 50 50 49 46 46 44 43 41 39 40 40 40 40 40 41 42 43 44 44 44 46 49 51 53 55 54 53 54 56 55 56 57 59 59 58 60 60
45 45 40 40 47 45 48 49 47 46 45 44 44 42 42 42 39 39 39 39 39 39 40 42 42 43 42 44 44 47 51 53 51 52 53 53 54 54 55 57 58 58 59 59
46 40 37 37 43 39 42 46 46 42 42 43 42 42 42 40 39 39 38 38 38 38 39 38 39 40 43 47 48 48 51 50 48 47 49 50 51 52 53 55 57 47 47 45

GFSCGP_sfc_temp_093.txt.gz
Temp
76 71 67 72 76 76 75 71 70 75 80 75 73 74 78 83 83 83 84 85 86 87 91 92 93 93 92 91 89 88 87 87 87 89 88 87 84 87 89 91 89 89 88 86
72 65 75 78 77 73 71 67 68 74 78 74 72 72 77 80 81 83 83 84 85 87 89 89 90 89 88 87 87 86 86 85 85 88 88 90 89 90 91 91 89 90 89 85
67 73 76 74 72 68 69 66 67 68 74 75 71 68 72 79 82 83 84 85 85 85 85 84 85 85 85 85 85 85 85 86 86 85 87 89 89 89 90 90 88 87 88 86
72 77 73 70 69 71 63 74 71 68 65 60 74 58 70 76 77 80 81 82 83 84 84 83 83 83 84 84 86 85 84 83 85 85 83 80 84 86 91 91 92 90 87 86
69 71 70 68 70 74 67 75 71 69 65 64 65 62 68 76 73 77 79 82 82 83 82 82 83 83 85 85 85 84 84 84 83 82 81 82 82 88 91 92 87 84 84 85
71 79 74 73 76 75 75 71 69 68 66 55 63 63 64 70 73 76 81 80 81 82 82 82 83 83 83 86 85 83 81 81 82 82 81 79 78 81 86 87 89 90 85 80
65 68 75 76 69 74 71 63 53 52 54 53 68 64 66 74 77 76 76 78 79 80 80 80 80 81 81 81 82 83 81 79 80 81 81 80 79 80 79 82 88 88 87 80
56 53 68 74 70 66 67 64 52 41 46 54 65 56 65 76 77 78 79 77 77 77 79 79 79 80 81 81 80 81 80 79 80 79 80 81 81 83 84 82 81 89 90 88
53 54 70 72 73 71 64 59 67 56 57 51 57 64 72 77 75 74 74 75 74 76 77 77 80 80 79 79 79 79 79 79 79 79 79 79 81 80 82 80 78 78 80 89
58 48 64 68 69 70 64 68 53 55 39 40 52 56 58 65 68 72 71 73 74 76 76 78 78 78 79 79 79 80 80 78 79 79 80 80 81 82 81 80 78 78 79 79
59 49 53 62 59 59 61 58 59 57 52 40 40 50 68 65 68 68 71 74 74 75 77 77 78 79 79 80 81 79 79 78 78 78 76 76 80 82 80 77 78 78 77 77
61 53 47 53 64 68 65 61 58 44 44 50 46 47 69 70 71 70 71 73 76 77 77 78 78 78 78 78 78 77 77 74 77 76 75 68 68 79 78 76 78 77 75 78
59 47 44 50 58 62 58 60 59 57 55 48 44 50 69 68 68 71 72 74 75 76 76 76 76 76 76 76 77 77 76 76 73 76 74 68 68 71 76 77 79 80 80 79
58 53 46 44 48 49 47 53 58 55 46 47 49 53 62 66 68 72 72 74 74 73 74 74 73 74 76 76 76 76 75 76 75 74 73 69 68 72 71 71 78 76 79 81
52 44 51 53 55 55 55 54 56 53 54 47 53 54 60 67 68 71 73 73 71 72 71 70 69 72 74 74 74 74 75 75 75 73 71 69 67 69 70 73 76 77 73 77
50 39 49 46 52 54 52 56 58 58 58 58 58 57 68 71 73 71 67 68 68 69 68 71 71 71 71 72 72 72 72 72 73 72 72 71 63 62 64 68 68 75 77 72
42 43 40 40 52 52 46 55 57 59 62 60 54 61 67 66 65 64 65 66 66 67 68 68 67 67 68 69 69 69 71 72 71 71 72 72 67 59 58 62 67 71 69 74
39 40 40 41 46 34 54 62 61 57 58 62 61 62 64 63 64 65 67 67 65 64 63 62 63 63 64 65 66 65 67 68 70 69 70 71 70 65 60 59 62 66 69 68
42 40 37 36 38 47 53 57 54 52 52 61 57 59 61 61 59 61 67 62 59 57 57 58 59 59 59 58 59 61 62 63 64 68 69 71 71 68 63 60 57 60 66 65
46 43 36 39 33 33 47 56 61 59 46 57 56 55 55 58 49 56 59 58 57 57 56 54 54 54 53 53 55 56 57 57 60 64 67 71 71 67 68 64 60 57 62 66
37 38 36 38 34 45 55 58 61 42 43 55 57 57 55 51 54 55 57 57 56 53 49 48 47 48 49 51 51 49 52 53 56 61 66 66 70 66 66 65 65 61 58 63
38 38 37 40 34 33 58 57 45 52 56 57 56 56 53 54 54 54 54 53 49 45 45 46 45 45 47 50 50 51 48 53 54 56 60 62 64 68 65 65 63 62 59 58
42 47 39 41 44 57 57 57 58 56 53 56 55 56 54 49 49 53 50 45 44 43 42 43 41 41 44 46 47 45 50 55 54 52 55 56 60 63 65 61 64 62 60 57
53 57 48 49 55 54 58 62 58 57 57 57 56 53 50 51 51 45 43 41 40 40 41 42 39 38 40 45 48 49 49 51 52 50 51 51 56 58 60 63 65 62 61 60
54 55 52 53 54 56 59 58 56 58 57 56 55 54 53 50 43 41 39 38 38 38 40 39 37 37 39 43 45 49 53 54 51 51 49 48 55 56 57 60 61 65 67 63
57 53 45 42 55 50 53 56 59 56 55 54 53 51 52 44 40 39 37 37 36 36 37 37 38 38 40 43 45 48 51 50 50 47 50 51 53 57 58 58 61 52 48 47

GFSCGP_sfc_temp_096.txt.gz
Temp
75 68 64 69 72 73 73 71 69 75 82 77 74 74 78 83 84 82 82 82 82 84 88 89 89 89 85 82 82 82 82 82 78 77 81 81 81 82 82 84 83 84 82 81
69 63 73 77 77 74 72 68 68 73 78 76 73 72 77 80 80 82 82 83 84 85 87 88 88 83 82 80 80 79 80 79 79 78 76 80 81 82 84 85 84 84 83 82
65 71 78 74 72 70 70 66 67 67 74 76 72 67 71 78 81 83 84 85 85 84 84 84 82 81 83 82 81 80 79 78 79 80 78 76 78 82 80 79 80 80 84 83
70 77 74 71 68 71 63 73 71 68 65 58 72 55 68 75 77 80 81 82 82 84 85 84 83 83 82 82 82 81 80 78 79 78 76 73 75 75 81 83 86 84 84 84
67 71 70 68 70 74 67 75 71 70 65 63 64 58 65 74 72 76 80 81 82 84 84 82 83 82 83 81 80 80 81 79 76 76 75 75 72 76 79 81 79 81 81 82
69 79 76 73 76 76 76 71 69 68 64 52 60 60 61 68 73 77 81 82 82 82 82 82 83 83 81 82 81 78 76 77 79 76 74 73 72 73 74 75 77 82 85 81
62 66 74 76 68 74 71 63 51 49 50 49 65 61 64 73 77 78 78 80 80 80 80 80 80 80 79 78 79 79 76 73 76 75 75 74 72 72 72 73 76 76 82 84
51 49 65 71 68 64 66 63 52 41 44 51 63 54 62 76 80 80 80 80 79 78 78 78 79 78 79 78 77 77 76 74 76 75 74 74 73 75 75 75 76 78 80 81
53 54 69 71 72 69 62 55 64 52 53 47 54 61 71 75 75 77 77 77 76 76 76 77 79 78 78 76 76 75 74 74 75 75 74 73 73 73 73 73 74 78 78 80
60 48 61 65 69 70 65 68 51 52 35 39 50 54 57 62 67 71 72 73 75 76 77 78 78 77 78 78 76 75 76 73 75 75 73 74 72 72 72 73 73 75 76 77
62 53 50 60 57 57 59 57 57 56 51 39 39 49 67 65 68 68 71 73 74 75 76 77 78 79 79 79 79 75 75 75 74 72 72 71 71 70 69 68 73 75 74 75
62 53 45 52 63 67 63 56 56 40 42 48 45 45 66 67 69 69 71 73 75 76 77 78 79 79 78 77 77 76 74 75 75 74 71 71 70 70 69 66 66 67 65 73
59 48 42 48 58 61 57 60 59 56 54 46 42 48 69 66 66 68 68 72 73 75 76 77 77 76 75 76 76 76 74 73 75 74 72 68 69 68 66 64 64 63 67 73
58 51 47 41 48 49 44 49 53 53 45 47 49 52 60 64 65 69 71 73 74 74 74 73 71 71 71 71 72 74 74 75 73 74 71 67 67 67 66 65 62 62 60 65
52 44 50 51 53 55 54 54 54 50 53 47 52 53 59 64 66 69 72 69 69 70 71 71 69 70 71 69 67 70 70 73 73 69 70 67 68 68 66 65 63 62 58 59
49 41 47 45 52 52 51 55 56 57 57 57 57 56 67 70 70 66 66 66 66 67 68 68 66 66 65 64 64 66 66 68 70 69 69 69 66 69 65 64 64 60 57 57
43 44 42 38 51 49 43 53 55 58 61 59 51 57 63 62 62 61 62 64 64 63 63 62 60 60 59 58 60 60 61 62 63 64 68 69 68 66 67 65 64 60 58 57
42 41 38 36 44 33 54 63 62 58 60 61 57 58 58 60 62 64 66 64 60 59 60 60 60 59 58 58 57 58 59 60 60 60 63 67 69 67 67 64 61 60 58 58
50 42 36 35 37 46 52 56 53 50 51 56 54 57 59 60 60 59 66 62 60 60 60 60 59 56 53 53 53 53 54 55 56 57 58 63 66 66 66 64 60 60 59 58
49 45 35 38 32 31 45 55 62 60 44 55 56 55 55 56 47 53 59 60 59 58 59 56 53 52 51 50 52 49 48 51 52 54 57 59 62 64 62 64 62 61 60 61
37 36 32 33 31 43 53 58 62 41 42 55 56 56 54 50 53 55 57 56 58 56 53 52 50 47 47 48 48 46 48 49 53 55 55 56 57 59 62 61 62 61 59 60
40 37 36 38 34 32 54 55 44 50 55 56 55 55 53 54 55 55 56 55 52 48 46 45 43 43 46 46 45 43 43 49 51 52 55 54 54 56 60 58 60 61 60 58
38 43 38 39 41 50 54 52 57 58 55 55 55 55 55 53 53 55 51 47 44 43 42 43 41 41 43 44 44 41 44 48 50 50 50 52 52 53 54 54 58 58 59 59
51 50 45 48 51 51 52 58 58 58 57 58 58 56 55 52 52 47 43 40 39 40 39 39 38 37 38 42 42 43 45 48 48 49 49 49 52 49 51 52 56 57 57 57
53 53 50 51 48 53 57 57 57 58 59 57 57 55 53 51 44 41 39 38 37 37 37 38 37 37 38 40 42 44 46 47 47 48 48 47 49 50 49 50 55 58 61 58
54 50 44 42 51 51 52 57 60 56 55 55 54 53 53 45 41 39 37 37 35 35 36 36 37 38 39 40 41 43 46 47 46 48 47 49 47 49 50 49 54 50 48 46

GFSCGP_sfc_temp_102.txt.gz
Temp
59 52 47 54 56 58 57 54 54 60 66 62 62 63 68 70 67 67 67 69 69 71 76 76 74 71 69 68 70 70 69 67 68 66 67 65 66 70 72 72 73 73 72 74
53 48 58 62 62 60 58 54 53 59 65 61 56 59 62 64 64 65 67 66 68 68 72 69 67 68 68 67 67 68 69 68 66 65 64 66 65 65 67 70 73 74 72 72
49 57 65 63 59 58 57 54 54 55 61 58 56 52 56 63 66 68 67 69 70 70 70 66 67 65 65 65 66 67 67 67 66 66 64 63 63 63 62 63 67 71 73 71
53 63 62 60 59 60 51 62 61 59 54 44 56 40 49 59 61 64 66 65 65 67 66 68 66 63 65 66 66 65 65 66 67 65 64 63 61 60 62 62 63 64 68 71
54 56 56 55 58 62 57 64 60 58 50 45 48 42 48 54 56 60 63 66 69 66 66 64 64 65 65 66 65 65 65 65 65 65 64 62 61 61 61 62 63 65 65 65
57 64 61 59 64 63 64 57 52 48 45 37 45 44 42 51 56 60 63 62 65 62 63 63 64 65 64 64 64 64 64 64 64 64 64 63 62 62 60 61 60 62 67 70
55 55 61 65 56 59 56 44 34 33 33 34 49 44 45 57 62 63 61 61 61 61 61 61 62 62 63 64 64 63 63 63 63 63 63 63 62 60 60 60 59 60 62 65
44 42 56 62 56 49 48 45 34 29 30 36 47 40 48 61 62 64 66 64 64 62 62 62 63 64 65 66 65 64 63 64 64 63 62 62 60 60 60 61 60 59 60 62
43 48 61 63 61 57 52 45 50 39 37 32 38 46 54 59 60 62 63 62 62 63 64 64 63 63 63 64 64 63 62 62 62 62 60 60 62 61 61 60 59 59 60 64
50 42 56 60 62 61 54 58 43 37 29 26 36 41 43 51 54 58 58 58 60 60 62 63 63 62 62 62 62 60 61 62 62 62 61 63 62 61 60 59 58 58 58 60
49 43 45 52 48 47 50 45 45 42 36 28 28 36 52 55 57 56 59 62 62 60 62 63 62 61 60 60 58 58 59 60 60 60 60 60 59 60 60 59 59 58 58 58
48 42 35 43 51 54 49 44 44 35 33 32 29 33 56 58 57 56 58 61 60 59 56 56 56 57 57 57 57 57 58 58 58 59 59 58 58 58 58 58 58 57 57 57
48 38 32 38 43 47 44 51 49 45 42 37 33 37 55 56 55 56 52 53 55 55 54 53 53 53 54 54 55 55 55 55 56 56 56 56 56 56 55 56 56 56 56 56
52 40 37 32 38 41 40 46 50 44 35 37 38 38 49 52 49 50 50 52 52 52 53 53 51 51 52 53 54 55 54 54 55 55 54 53 53 55 56 57 56 57 57 56
43 35 38 41 45 46 44 44 45 42 42 35 41 42 48 46 47 47 50 52 51 51 53 52 51 51 51 52 53 55 54 54 53 55 56 55 56 57 58 58 56 58 58 56
40 33 37 36 44 44 41 46 46 46 47 46 45 44 50 53 47 49 48 50 48 50 51 53 54 54 54 55 53 52 52 52 53 53 53 55 55 55 55 56 56 55 57 56
37 34 33 30 39 39 33 42 45 46 48 46 40 43 45 44 47 46 46 46 47 49 51 52 52 51 48 47 49 48 50 52 52 52 53 54 54 53 53 55 58 56 55 53
36 36 35 29 31 23 40 53 51 45 46 47 46 47 47 45 46 48 46 44 49 49 50 48 44 45 47 48 48 49 49 48 48 48 49 51 51 52 53 53 54 56 53 53
41 36 31 24 25 35 44 47 46 45 39 46 43 45 46 46 45 43 49 49 47 45 44 44 46 46 47 45 46 46 46 46 46 45 47 50 51 50 49 51 50 50 50 51
44 42 34 29 24 23 38 49 55 53 33 46 46 43 42 42 35 40 46 48 44 43 45 45 45 45 44 45 46 44 43 43 43 45 47 49 49 48 48 48 50 49 48 52
36 35 32 31 28 32 44 49 52 35 33 44 45 42 41 37 39 44 44 43 45 44 44 44 44 43 43 44 43 40 40 40 43 45 46 46 47 46 47 48 47 48 47 52
35 33 32 33 30 27 47 47 38 42 47 45 43 42 40 41 42 42 42 43 43 41 42 42 40 40 41 42 40 38 38 42 44 44 44 44 45 47 48 47 47 47 49 48
35 39 34 36 36 45 47 46 50 48 44 44 41 42 43 40 39 41 41 42 40 40 40 40 38 38 39 40 40 38 40 42 42 42 42 42 44 46 47 46 46 46 48 48
42 46 38 38 43 45 47 50 50 48 44 46 45 43 40 38 40 40 40 38 37 37 37 37 37 36 36 39 40 40 41 43 42 40 41 42 42 43 45 46 46 46 46 47
41 45 42 41 43 47 49 48 48 47 46 45 44 42 41 39 38 38 36 35 35 35 36 37 35 35 36 38 39 41 43 43 42 41 41 41 42 43 43 45 45 47 48 49
41 40 35 37 45 42 42 46 47 44 42 42 42 41 40 40 36 36 34 34 34 35 35 35 35 35 36 38 39 40 42 42 41 41 42 42 42 42 44 45 46 43 45 45

GFSCGP_sfc_temp_105.txt.gz
Temp
58 50 45 51 53 55 54 51 51 57 63 59 57 57 64 69 64 64 65 66 67 67 71 69 69 66 65 65 65 66 66 65 67 65 64 62 64 66 68 71 72 72 71 72
51 46 55 58 57 56 54 50 50 56 61 58 55 56 60 61 62 67 67 66 66 67 70 67 65 65 68 67 65 65 67 66 67 66 64 65 63 63 64 65 67 69 71 70
47 53 61 58 55 54 53 50 51 52 58 57 53 51 55 62 62 65 64 65 66 67 68 64 65 67 66 67 64 65 65 65 64 64 62 61 61 60 60 60 62 66 68 70
50 58 58 54 54 55 47 58 59 56 50 44 53 40 49 56 59 61 65 64 65 66 66 63 64 62 63 64 64 64 63 63 63 62 63 63 62 61 61 61 61 62 64 66
51 52 52 51 55 58 53 60 58 56 49 45 46 41 47 51 54 59 62 63 62 62 65 63 66 67 63 63 63 63 63 63 62 62 63 61 59 59 59 59 60 60 61 64
54 60 58 57 61 59 61 54 49 45 43 36 44 43 42 49 53 56 60 62 62 60 57 61 61 62 60 60 60 60 62 62 62 61 61 61 61 59 57 58 58 58 60 62
51 52 57 61 52 56 52 42 34 33 33 34 45 41 45 53 56 58 58 58 56 56 56 57 59 60 59 59 60 60 60 61 61 61 61 61 61 60 59 58 58 57 58 59
42 40 54 59 52 47 45 43 33 30 29 35 45 38 45 55 57 59 60 58 58 58 60 61 62 62 62 62 61 61 60 61 60 60 61 60 60 59 58 59 58 58 57 58
43 47 57 60 59 56 46 40 46 36 34 32 36 44 51 55 56 58 58 59 57 58 57 58 59 58 59 60 60 59 59 60 60 60 59 59 58 58 58 58 57 58 57 60
49 41 54 58 61 59 53 54 38 35 28 26 33 37 41 48 51 55 56 57 58 58 58 57 57 56 56 57 56 56 56 56 56 56 56 58 58 59 58 57 57 56 57 58
47 43 44 49 47 48 46 41 41 38 33 27 27 34 50 53 53 53 52 54 53 51 51 51 52 53 53 53 53 53 54 53 54 54 55 55 56 56 56 55 57 57 56 57
48 41 36 41 48 51 46 41 40 31 32 29 27 32 53 51 50 51 51 51 51 50 50 50 52 53 53 52 53 52 53 53 53 54 53 53 53 54 53 54 55 56 55 56
48 38 33 36 41 46 42 44 42 40 39 37 33 37 53 53 49 49 48 50 51 51 50 50 50 50 51 52 53 53 53 52 53 53 52 51 52 52 51 52 53 54 56 56
50 38 37 33 36 39 37 43 45 38 35 38 39 40 47 49 48 48 48 47 47 48 50 49 49 49 50 52 52 53 53 52 52 52 51 50 50 50 50 52 52 53 56 56
42 35 37 38 42 43 41 41 42 38 38 34 38 38 44 46 43 44 46 47 47 47 48 49 49 48 49 49 49 50 50 50 51 51 52 52 53 54 54 53 52 52 53 56
39 32 35 35 41 40 38 42 42 42 43 41 41 40 44 47 46 45 45 46 45 46 48 49 50 51 50 47 48 50 50 50 51 50 50 52 52 53 53 53 52 50 51 53
35 33 30 28 35 37 32 38 42 42 42 42 37 39 42 42 44 44 43 44 45 46 48 49 48 45 46 46 48 46 47 48 47 47 47 48 48 48 49 51 51 50 49 49
35 32 30 27 30 22 38 49 48 43 43 44 43 43 44 42 45 48 47 42 45 47 47 44 44 45 46 46 45 45 45 45 45 45 46 47 48 47 48 50 50 51 49 47
39 33 30 26 25 33 40 44 42 40 37 45 45 45 44 44 43 41 46 45 44 43 42 42 44 44 44 43 44 44 44 44 44 44 45 46 47 46 47 47 47 47 47 48
40 38 30 29 23 22 36 46 52 49 33 43 42 40 40 39 32 36 44 43 42 41 40 41 42 43 44 44 45 42 41 42 41 43 44 46 45 45 45 46 46 47 48 49
35 35 32 30 29 31 42 47 49 32 32 41 42 39 37 35 38 42 42 41 41 41 42 41 43 41 42 43 42 39 40 39 42 44 44 44 44 43 44 44 45 44 45 45
35 33 31 33 29 26 45 45 36 38 42 42 40 39 38 38 39 39 40 40 41 42 40 40 38 39 41 41 40 38 38 42 43 43 43 43 43 44 44 43 44 44 44 44
35 35 34 34 33 42 46 42 47 45 41 40 38 40 38 37 37 38 38 40 39 38 37 38 37 37 39 40 39 37 39 42 42 42 42 43 43 43 44 42 42 43 44 44
40 45 39 38 42 45 46 50 48 44 41 41 41 39 38 36 39 38 37 36 36 36 36 37 37 35 36 38 39 39 41 42 41 40 41 43 42 42 43 43 44 44 44 44
38 42 38 41 42 46 48 45 43 42 42 42 41 39 37 37 37 36 35 35 35 35 36 36 35 34 35 38 38 40 41 41 39 40 41 42 42 42 43 44 44 45 45 45
38 37 33 33 41 40 38 41 43 40 40 40 38 37 40 38 35 35 34 34 34 34 35 35 34 35 36 37 38 39 41 41 40 39 41 42 42 42 43 43 44 43 42 42

GFSCGP_sfc_temp_108.txt.gz
Temp
51 46 41 47 49 53 50 48 48 53 61 58 58 59 63 68 62 62 66 67 67 68 72 68 66 65 64 64 64 65 65 66 68 66 64 64 67 68 70 71 72 72 71 72
47 42 52 55 53 52 50 46 46 52 58 58 56 56 62 63 62 63 66 67 65 65 65 66 64 63 63 65 63 62 64 62 63 64 63 64 63 64 64 66 68 70 71 71
45 51 58 55 52 50 48 46 47 50 53 56 54 52 56 61 62 64 63 64 63 65 63 63 62 61 63 62 61 62 62 63 64 63 61 60 61 61 62 62 63 66 69 70
49 55 56 52 51 52 44 54 54 52 48 42 52 41 49 55 58 61 62 62 64 65 63 62 62 61 61 64 63 63 63 63 63 62 62 62 61 61 61 61 62 63 66 67
49 50 50 49 52 55 50 56 54 52 46 44 45 42 48 52 55 58 61 62 64 64 63 63 62 65 61 61 61 61 61 61 61 62 62 61 60 61 61 60 61 61 63 65
52 58 55 54 57 57 56 50 46 42 41 34 43 44 43 48 52 57 60 61 60 59 58 59 59 60 59 60 60 60 60 61 61 61 61 61 61 60 59 59 59 60 61 63
48 50 55 59 50 52 49 41 32 32 32 33 42 42 45 51 55 56 56 57 56 56 55 55 57 58 59 60 60 60 60 60 60 60 60 60 60 59 59 59 59 58 60 61
41 39 52 57 51 47 42 42 33 30 29 34 43 37 44 55 56 56 57 56 57 56 54 56 57 57 58 57 56 57 56 56 56 57 57 57 57 57 58 59 59 60 60 61
43 45 55 58 56 53 44 38 42 33 32 31 35 42 51 54 54 56 56 56 54 54 54 53 53 52 53 52 52 53 54 54 55 55 55 55 56 56 56 57 58 59 60 62
48 41 53 57 59 55 48 50 38 33 28 26 32 35 39 46 49 51 51 51 50 50 50 51 52 52 52 51 52 53 53 53 54 54 54 55 55 56 56 56 57 58 58 60
47 43 43 48 46 45 45 40 39 38 33 26 27 33 45 45 46 47 47 47 47 47 48 49 51 52 52 53 53 53 54 54 54 55 54 54 54 55 55 55 56 57 57 58
49 42 36 39 45 48 44 42 40 32 31 29 27 32 47 45 46 47 47 49 48 49 49 50 52 51 52 52 53 53 53 53 53 53 53 52 52 53 52 53 54 55 55 57
48 39 34 36 41 45 40 42 39 37 35 31 29 32 49 49 46 46 46 47 48 49 49 50 49 50 50 51 51 52 52 51 52 52 51 51 52 52 52 51 52 53 54 56
50 39 38 32 35 37 37 41 40 37 33 32 34 37 45 45 46 45 45 46 46 47 48 48 48 48 48 49 50 50 50 50 51 51 51 51 51 52 52 52 52 52 54 54
41 34 36 38 41 41 39 40 40 36 36 32 36 38 44 43 44 44 45 46 46 46 47 48 47 47 47 47 47 49 50 51 51 49 49 48 50 51 51 51 51 52 52 52
37 32 34 33 39 38 37 40 40 39 40 38 39 37 44 44 45 44 45 46 45 45 47 48 48 48 47 47 47 48 48 47 48 46 46 47 48 48 48 48 48 49 49 50
35 32 30 28 33 35 31 36 39 40 39 40 34 39 42 41 43 42 44 45 44 45 46 46 45 44 45 45 46 44 45 46 45 45 46 46 47 47 47 48 48 47 47 47
34 31 28 26 29 23 36 46 46 42 42 41 41 42 43 42 44 45 45 43 43 44 45 43 44 43 43 44 43 44 45 44 45 45 45 46 46 46 47 46 46 47 49 48
39 31 29 22 22 31 38 42 44 42 39 43 41 43 43 43 42 42 46 45 42 41 42 43 42 41 42 43 45 43 43 44 43 43 44 45 46 45 45 44 44 46 46 45
38 35 28 29 20 23 35 45 51 50 34 42 42 40 40 40 33 36 43 42 41 40 40 40 45 43 43 42 42 42 41 41 41 43 44 45 45 44 43 44 44 45 45 45
33 34 31 30 24 31 40 45 47 31 32 40 41 39 38 35 38 40 40 40 40 39 41 42 40 40 40 41 42 39 40 39 42 43 44 44 44 44 44 44 44 43 43 44
33 31 31 32 28 22 44 43 36 37 40 41 39 38 37 37 37 37 38 38 39 39 39 40 38 38 40 41 40 38 38 41 42 42 42 43 44 45 45 43 43 43 42 42
34 37 30 31 30 40 44 42 45 42 39 38 37 37 36 35 35 37 39 38 38 38 38 38 37 38 39 40 39 36 38 41 41 41 41 42 43 43 44 42 42 41 42 42
42 45 39 35 38 41 45 43 42 42 39 39 38 36 36 34 36 36 37 36 36 37 36 37 36 35 35 38 39 39 40 41 41 40 40 41 41 43 44 43 43 42 42 42
36 43 39 41 44 45 44 44 42 39 40 38 38 37 36 38 36 36 35 35 35 35 35 35 34 34 35 37 38 40 40 41 39 40 40 41 42 43 43 43 44 44 46 45
36 36 33 31 40 37 38 39 41 38 37 38 37 37 39 38 35 36 34 34 34 34 34 33 34 34 35 36 37 38 40 40 38 38 40 42 43 43 43 43 44 43 42 41

GFSCGP_sfc_temp_111.txt.gz
Temp
61 56 52 58 60 61 60 57 58 62 69 64 63 64 67 71 68 62 65 69 72 75 80 80 80 79 77 76 76 77 77 77 77 77 78 79 79 79 79 79 80 80 80 81
56 52 60 63 62 58 58 57 58 62 67 64 64 62 68 71 69 69 69 71 74 77 80 80 78 75 74 77 76 77 77 76 77 79 77 80 80 80 82 82 81 82 82 81
55 59 64 59 59 55 57 56 58 59 63 66 63 60 64 70 70 71 71 73 74 75 77 75 75 74 77 76 75 76 76 75 75 75 74 74 75 76 78 77 79 79 80 79
58 65 61 59 58 60 53 62 62 59 58 54 62 53 61 66 65 68 69 67 69 71 75 75 72 72 74 78 77 74 73 73 75 75 76 75 78 77 80 80 79 78 78 79
57 59 59 57 60 63 59 64 62 62 59 57 57 56 62 62 62 66 69 68 69 69 69 72 73 74 75 74 72 73 72 73 73 74 76 78 76 79 78 77 75 75 75 77
62 66 65 64 64 64 65 60 57 57 58 49 57 57 58 59 62 65 67 66 64 67 66 68 68 71 70 73 74 73 73 74 74 75 75 75 75 75 76 75 76 77 78 78
56 59 66 66 61 62 60 56 48 45 46 47 54 54 59 59 61 63 64 64 64 64 66 67 69 71 72 73 74 75 73 68 70 70 70 70 69 69 70 73 76 76 77 77
48 45 58 65 63 60 58 57 51 39 42 48 52 50 56 61 62 64 66 66 66 64 64 63 65 66 68 67 68 70 69 68 69 69 68 69 69 73 72 71 71 73 74 76
49 50 60 62 64 64 56 54 56 48 45 49 52 53 59 62 61 63 63 62 60 60 61 62 63 64 65 65 64 66 66 66 66 66 67 66 67 67 68 67 68 71 70 73
56 47 57 60 64 61 60 60 50 53 40 40 46 48 53 56 58 60 58 58 58 60 61 62 63 62 64 65 65 66 67 65 66 66 66 67 66 66 66 66 66 67 68 69
57 53 50 56 52 54 54 53 51 52 48 43 42 49 56 58 59 57 57 58 58 60 61 62 63 64 65 66 66 64 65 65 65 65 64 64 64 65 64 64 65 65 65 66
53 50 46 48 53 55 54 51 53 45 42 45 45 47 58 59 59 59 59 58 59 60 61 62 63 64 64 64 64 64 62 63 64 64 63 62 62 62 62 62 62 63 62 64
53 42 36 42 50 53 50 50 49 48 48 45 44 48 57 57 58 59 59 59 59 60 60 62 62 62 62 62 61 62 62 62 62 62 62 60 59 59 59 59 60 60 60 61
57 44 39 43 44 48 45 47 50 49 42 44 47 49 51 54 56 57 58 58 59 59 59 60 60 61 61 60 60 60 60 61 61 60 59 57 57 57 57 57 57 58 59 59
52 44 46 46 47 48 47 47 47 47 47 43 47 48 54 56 57 57 58 58 58 58 58 59 58 58 59 58 58 58 58 58 57 56 56 55 55 56 56 55 56 56 55 56
48 41 46 41 45 46 44 47 48 48 48 48 49 48 59 56 57 55 56 57 56 55 56 57 57 56 55 55 54 54 54 54 55 53 53 54 54 55 54 54 54 54 54 55
45 44 42 38 41 42 40 46 48 48 49 50 45 52 55 52 53 54 56 55 54 53 54 54 54 54 53 52 52 51 52 53 52 52 53 53 53 53 53 53 53 52 51 52
44 42 41 37 40 32 44 52 52 50 48 50 49 50 51 52 54 56 57 54 52 52 53 53 53 52 52 52 51 52 52 51 51 51 51 51 50 49 49 50 50 49 50 49
48 42 35 34 35 39 42 48 48 47 45 50 50 51 52 53 55 53 53 53 52 51 51 51 51 51 49 49 50 48 48 49 49 48 48 47 47 46 47 48 46 47 47 47
45 45 39 35 31 31 42 48 52 52 42 50 51 50 49 52 48 53 52 52 51 50 50 49 49 48 47 46 46 45 46 47 46 44 44 45 46 45 45 45 45 46 46 45
37 39 35 34 33 39 47 49 51 38 41 50 51 50 49 47 49 50 51 49 50 49 48 47 46 45 44 45 45 44 44 42 42 44 45 45 46 45 46 45 46 45 45 46
36 34 33 36 32 30 50 50 44 47 50 50 49 47 46 47 47 47 47 46 46 44 44 44 44 43 44 46 44 39 38 43 44 44 44 44 45 47 47 45 46 46 44 43
37 44 38 41 41 48 51 49 50 51 49 47 47 46 44 44 44 44 44 43 41 41 41 42 40 40 44 41 39 37 41 43 43 43 44 46 48 48 48 46 44 45 45 43
46 48 43 43 46 47 46 46 50 50 47 46 46 44 44 42 43 41 40 39 39 39 39 39 39 37 35 38 39 41 41 42 42 41 44 47 45 45 48 47 46 46 46 44
47 47 45 44 47 45 47 47 45 45 47 46 46 45 43 42 40 39 38 37 38 37 36 37 35 34 35 39 40 41 41 41 39 40 42 43 44 44 46 48 46 46 50 48
50 45 43 43 51 49 45 44 47 46 45 45 44 44 44 41 38 38 36 36 35 35 36 34 34 35 36 37 38 39 40 39 37 37 40 44 42 45 46 46 46 45 42 42

GFSCGP_sfc_temp_114.txt.gz
Temp
69 63 59 65 67 68 67 64 63 68 74 71 69 70 75 79 78 78 80 81 81 84 83 84 85 86 87 83 82 82 83 87 87 88 87 88 87 89 91 91 90 89 89 89
64 58 68 70 69 66 65 62 63 69 74 71 69 69 75 78 79 80 79 78 79 80 78 80 87 90 83 80 77 78 82 81 83 88 88 90 90 91 91 91 88 88 87 87
61 65 70 67 65 63 64 61 63 64 68 72 69 66 70 78 80 80 82 82 81 80 78 80 85 81 80 77 79 79 82 82 82 85 85 84 88 87 86 87 87 86 87 87
65 72 67 65 64 66 59 69 66 65 63 57 70 57 67 73 74 77 80 81 82 81 83 79 79 81 82 80 84 84 82 82 83 81 82 81 85 85 88 87 88 86 86 86
62 65 64 63 65 69 64 71 67 66 64 63 63 61 67 73 70 74 78 80 82 83 82 78 80 80 82 83 83 82 81 81 81 81 83 84 84 87 87 88 83 83 83 84
67 74 71 69 71 71 73 68 67 66 64 54 61 62 62 68 72 75 77 74 74 76 74 74 73 79 79 80 81 81 80 79 81 82 82 81 81 83 86 85 86 87 88 87
62 64 71 73 66 70 68 62 52 50 52 51 65 60 62 70 73 75 73 72 74 73 74 73 74 75 78 80 80 80 79 75 76 78 78 78 76 76 76 79 84 83 86 86
54 50 65 70 67 64 64 64 55 44 48 54 63 55 67 71 73 74 74 72 73 71 71 70 72 73 73 73 75 78 77 75 76 76 76 76 76 81 80 80 79 80 82 83
55 55 69 70 71 71 65 59 69 57 58 53 60 62 66 70 70 72 71 70 69 69 71 72 73 73 71 70 72 73 73 72 72 74 74 73 73 72 73 73 73 78 77 80
62 53 64 67 71 71 66 71 56 60 44 44 54 57 61 64 66 68 69 67 68 69 71 70 71 71 73 72 70 71 74 73 73 74 74 74 72 73 73 72 71 72 73 73
66 60 55 62 60 60 62 61 63 61 58 47 46 53 69 68 68 67 69 69 70 70 71 71 71 73 74 74 74 71 71 73 73 73 72 71 71 72 71 70 71 71 71 71
67 59 49 55 62 63 61 60 62 51 50 56 54 53 69 69 70 69 68 69 70 71 72 73 73 73 73 72 73 72 71 71 72 71 71 70 70 69 68 68 68 69 68 69
62 55 42 47 56 61 58 59 59 58 59 51 48 50 66 68 68 70 68 69 69 69 70 71 72 72 71 71 71 71 71 71 70 70 70 69 67 66 66 65 66 66 66 67
63 53 49 45 47 58 53 57 60 58 47 50 51 44 56 61 63 66 67 68 70 69 66 68 68 70 70 70 69 68 69 69 69 68 67 66 65 65 64 64 64 64 65 64
62 51 54 52 54 57 57 56 57 56 57 51 56 55 59 63 64 66 67 67 67 67 68 66 66 67 67 67 67 66 66 66 66 65 64 64 64 64 64 63 62 62 62 62
57 50 53 47 52 54 53 55 56 56 56 55 56 55 66 66 68 65 65 65 66 65 64 64 65 65 64 64 63 63 63 64 64 62 62 63 63 63 61 60 60 59 58 58
56 53 50 46 51 51 48 55 56 56 57 57 53 58 63 60 61 62 63 64 62 61 61 62 62 62 62 61 61 61 61 62 61 60 61 61 60 58 57 56 55 53 53 54
55 53 54 47 47 38 51 59 58 57 56 59 57 58 60 61 62 64 65 62 60 60 61 61 62 61 60 60 60 59 59 58 59 59 59 58 55 53 53 52 53 52 52 50
60 54 44 41 43 47 49 54 55 55 51 58 58 59 60 61 63 59 60 60 59 59 60 60 60 59 57 57 57 55 55 56 56 55 53 54 52 51 52 51 52 52 51 49
56 56 47 45 37 37 49 55 59 60 39 57 59 57 57 60 57 49 60 60 60 60 59 58 57 56 56 56 54 51 51 52 50 52 50 54 55 53 51 51 50 51 51 49
45 46 40 44 40 46 52 54 57 43 40 56 58 56 56 54 55 57 59 57 58 57 56 55 55 54 53 51 50 48 49 46 44 49 53 55 54 51 50 50 51 51 49 49
42 38 37 42 37 34 56 56 47 51 57 57 56 55 54 55 56 56 56 55 53 51 51 51 49 48 48 49 47 45 40 44 48 50 50 49 49 50 53 51 53 54 50 49
41 47 43 46 43 52 57 54 58 58 56 55 55 54 53 53 52 53 51 50 47 45 45 46 45 44 47 46 41 38 43 47 46 45 45 48 52 55 54 52 51 49 48 48
51 56 51 50 48 51 52 55 56 57 55 55 55 53 53 51 50 48 45 43 43 43 42 43 43 41 38 39 41 43 46 45 43 42 44 49 52 54 54 54 55 54 47 48
52 55 52 45 44 47 49 53 52 52 55 55 54 53 51 49 45 42 41 40 41 40 41 40 37 35 36 40 40 42 43 43 40 41 43 47 53 53 52 49 49 48 51 49
55 51 47 43 52 51 48 50 51 53 53 53 53 52 52 49 43 42 40 40 39 37 36 35 35 35 37 38 40 41 42 41 39 38 41 45 48 51 48 46 46 46 44 43

GFSCGP_sfc_temp_117.txt.gz
Temp
71 65 62 68 71 73 72 69 68 72 78 75 73 73 77 82 82 83 85 86 87 88 91 85 83 88 89 90 83 85 85 88 92 92 91 91 91 93 94 95 94 86 91 89
67 62 73 76 74 70 70 67 67 72 77 75 73 71 77 80 81 83 84 84 86 88 90 88 79 86 87 81 82 81 83 87 89 92 91 94 94 95 95 96 89 84 86 87
65 70 75 73 70 67 67 66 66 66 72 75 72 69 73 79 82 84 85 86 87 87 88 89 85 81 82 79 82 83 81 84 84 87 91 90 90 92 93 93 92 88 86 85
69 76 72 70 67 70 62 72 70 68 65 59 70 57 68 74 76 80 83 85 86 87 88 88 88 83 81 85 84 86 83 82 83 83 85 81 82 86 91 92 93 90 85 87
66 69 69 66 67 72 66 74 71 69 65 64 64 56 63 72 72 77 81 83 86 88 88 87 89 87 88 87 85 82 82 80 82 82 82 83 82 89 89 90 83 86 85 87
71 78 75 72 74 74 75 71 70 69 67 54 62 54 56 61 64 77 81 84 84 87 85 82 85 86 85 86 83 81 80 81 83 81 81 83 83 85 88 87 85 87 88 86
66 70 75 76 68 74 72 65 54 50 53 52 67 59 59 60 58 76 79 78 79 81 82 82 82 82 81 81 83 80 81 79 81 82 82 81 79 79 79 81 86 85 88 89
56 54 68 74 69 67 68 65 56 44 47 55 66 56 64 68 70 78 79 79 79 79 80 79 79 80 82 82 82 80 78 76 79 79 77 75 77 84 84 80 80 81 83 85
57 58 73 73 74 74 66 62 71 58 57 54 59 65 70 74 74 75 74 75 74 75 75 76 77 77 76 76 75 76 75 74 76 75 76 75 75 74 75 74 74 77 77 79
63 53 68 71 74 74 69 71 57 62 42 41 52 51 61 67 69 72 71 71 73 75 76 76 76 75 76 76 75 76 77 74 74 74 73 74 75 76 74 74 73 73 73 74
65 58 59 67 64 63 66 60 61 62 61 49 43 46 63 66 72 71 72 73 74 74 76 76 77 78 78 79 78 75 76 76 75 75 74 73 73 72 73 72 72 72 72 72
67 59 52 59 69 72 70 65 58 51 46 56 55 56 67 55 75 74 74 74 76 76 77 78 77 77 77 77 77 75 74 75 75 75 73 72 72 71 69 68 69 70 70 71
66 58 45 47 49 65 61 64 64 58 58 47 45 50 70 69 73 74 73 73 74 75 76 76 77 76 76 75 74 75 75 74 74 74 74 72 70 69 68 68 68 69 68 68
67 60 53 46 53 60 56 61 63 57 40 47 46 45 58 65 66 69 72 73 75 74 74 73 73 74 74 73 73 73 73 73 73 72 71 69 68 68 67 67 67 67 67 67
64 53 59 49 58 56 56 60 60 58 59 52 57 56 58 61 61 66 70 72 72 72 72 71 70 70 72 71 71 71 70 70 70 69 68 67 67 68 67 66 65 64 62 61
60 52 58 50 57 54 46 59 61 61 61 61 61 58 66 61 68 68 68 69 69 68 70 69 69 69 68 68 68 68 68 68 68 66 66 67 67 66 65 62 61 59 59 59
53 56 52 47 55 56 49 57 59 61 63 63 57 64 70 66 67 68 69 69 68 67 66 67 67 67 66 65 65 65 65 66 65 65 65 66 65 61 59 59 58 56 55 55
56 56 57 47 53 40 55 65 66 63 63 64 63 63 66 67 68 69 70 64 65 65 65 66 66 65 64 64 64 64 63 63 63 63 63 62 60 59 58 56 54 53 53 52
63 57 49 45 48 52 54 59 61 60 56 63 61 63 65 66 63 62 65 65 64 64 65 65 65 63 62 62 63 60 59 60 60 59 58 59 59 56 55 53 53 53 53 54
61 62 53 52 43 41 54 61 67 65 46 61 60 57 58 63 50 49 61 64 63 64 64 62 61 61 60 60 58 55 54 54 53 56 54 53 56 56 55 54 54 54 55 56
52 52 46 49 45 49 58 61 63 47 40 58 58 58 59 56 55 60 63 62 63 62 59 59 58 57 56 54 52 50 50 50 51 51 53 55 56 56 56 54 52 55 54 51
49 44 46 49 43 36 61 60 49 50 56 58 58 59 58 59 60 60 60 58 57 55 55 55 53 52 50 50 48 47 46 46 48 52 52 53 55 54 52 53 55 54 54 52
46 53 47 49 43 54 58 55 58 58 56 59 59 59 59 57 56 56 54 54 52 50 49 49 47 46 47 47 45 40 42 47 49 49 51 52 53 52 55 54 52 50 54 55
55 58 48 50 49 51 55 58 59 61 59 60 59 58 57 54 53 51 51 48 46 45 43 44 43 42 40 40 40 42 45 47 48 48 50 50 49 51 56 55 53 49 48 49
55 58 46 44 50 54 56 58 59 59 60 59 59 58 56 53 51 49 46 43 42 41 41 41 38 35 35 37 40 44 45 47 46 47 46 47 51 53 54 52 49 48 50 49
58 54 49 46 54 54 53 58 60 58 57 58 57 56 56 55 50 48 43 41 39 38 36 36 35 34 35 38 40 41 42 41 41 41 43 44 47 52 52 50 48 47 44 43

GFSCGP_sfc_temp_123.txt.gz
Temp
63 55 49 54 57 60 60 58 56 63 69 64 63 61 65 70 70 69 69 70 70 74 76 78 79 77 72 70 68 68 65 65 67 67 66 64 64 67 69 81 83 82 81 76
57 50 59 63 62 60 59 56 57 63 70 64 60 60 65 68 68 71 71 71 71 70 71 74 73 76 74 71 70 69 69 70 66 66 66 63 63 68 71 79 81 79 76 72
52 57 64 62 60 58 58 55 57 57 65 65 61 54 60 68 70 71 70 71 72 71 72 72 76 74 72 69 69 71 72 69 64 64 65 63 62 66 62 72 73 73 75 74
56 63 62 60 58 61 53 64 64 62 56 46 59 43 55 62 65 67 71 68 69 71 73 72 70 70 69 70 71 69 69 71 74 73 71 66 71 71 71 71 73 72 73 72
54 58 57 57 60 65 59 67 63 61 53 47 53 44 51 60 60 62 63 66 66 69 71 71 72 76 77 75 72 71 70 70 72 73 72 71 70 70 72 71 71 71 73 74
59 69 65 62 68 67 69 62 58 57 49 39 49 47 48 53 59 60 62 64 67 67 64 65 65 76 71 70 71 69 68 69 71 72 72 71 68 68 67 68 66 68 69 69
57 59 67 70 62 67 62 50 37 34 36 38 53 49 53 56 61 61 59 63 65 66 62 62 62 62 62 64 67 69 66 66 65 64 65 63 64 65 63 63 64 64 66 65
45 45 60 69 64 57 57 52 38 31 35 43 57 46 51 58 57 59 60 61 64 64 63 63 62 61 62 62 63 65 64 63 63 62 62 62 62 64 61 60 62 64 62 62
47 48 67 69 71 65 57 51 56 45 48 41 46 50 57 60 57 59 59 62 61 65 63 60 60 59 61 61 61 62 61 60 62 61 62 61 60 62 63 62 61 60 62 65
50 44 62 67 69 68 62 63 48 43 34 31 42 49 46 50 48 52 58 58 60 62 62 63 62 60 61 60 61 63 62 62 60 60 58 59 59 60 59 59 58 58 59 59
51 43 47 55 55 56 56 54 53 47 42 32 31 36 51 50 54 48 53 56 58 58 59 59 62 62 62 64 63 63 65 64 64 63 60 60 59 59 59 58 58 58 58 58
52 43 38 43 54 63 62 55 52 37 38 39 35 35 50 51 52 52 55 57 61 60 60 60 60 61 61 61 62 62 63 63 63 63 61 59 58 58 57 57 57 58 57 57
51 42 35 38 49 58 56 59 56 51 44 39 34 36 54 53 52 55 55 55 64 64 61 60 61 60 60 61 62 60 61 60 60 62 60 57 57 56 55 56 56 56 55 54
49 43 40 35 45 52 52 56 56 48 37 41 41 41 46 48 50 53 54 59 61 64 61 59 58 57 58 60 60 60 60 61 59 59 57 56 55 55 54 53 53 53 53 52
46 42 45 48 48 51 54 57 54 49 49 43 45 44 45 48 50 52 53 62 63 61 60 60 57 55 56 56 57 58 57 58 58 58 57 55 55 54 53 52 51 51 51 51
49 41 44 43 48 51 49 54 55 53 50 52 53 46 53 54 54 52 55 60 60 62 61 61 58 57 56 55 55 56 55 55 55 55 55 56 55 54 51 51 50 49 48 48
46 44 39 34 45 46 42 47 50 54 52 47 44 48 53 52 52 52 55 60 59 59 58 56 55 53 52 52 53 50 51 52 52 52 55 55 53 51 50 50 49 47 46 45
45 44 38 36 42 32 46 51 54 54 55 56 54 53 53 52 54 56 58 56 54 54 53 52 51 50 50 50 50 49 50 50 51 50 51 52 50 49 49 48 47 46 45 45
46 45 39 35 34 45 48 51 49 48 47 58 54 53 53 54 54 51 57 55 53 51 50 49 49 48 47 47 47 47 46 47 48 48 48 49 49 49 48 46 46 45 44 46
48 45 41 40 35 31 47 54 61 56 38 53 53 52 52 52 40 42 51 52 50 49 48 46 47 46 44 44 44 43 44 45 44 46 46 48 52 51 50 49 44 44 46 51
36 39 37 38 34 40 53 59 63 38 39 53 52 50 48 44 45 47 49 47 47 45 44 44 43 41 41 41 42 40 41 41 43 45 46 49 51 50 50 45 49 51 51 51
36 36 36 38 34 31 56 52 43 46 52 52 50 48 46 46 47 45 44 43 42 41 42 42 40 40 42 40 40 38 39 41 43 45 47 48 49 50 48 49 51 50 50 47
38 43 38 40 39 48 52 49 53 53 48 49 47 47 47 44 42 41 39 39 39 40 40 41 39 38 39 39 39 37 39 42 43 43 44 46 47 47 48 48 49 49 49 48
48 53 43 44 46 47 49 53 53 52 49 50 49 46 45 41 41 38 38 37 37 38 37 38 36 35 35 36 38 38 40 41 40 40 41 44 43 42 43 48 49 49 47 47
47 49 45 44 48 49 51 51 51 51 51 50 49 47 44 41 38 37 36 36 36 36 36 36 34 33 33 35 36 38 39 40 38 38 40 40 41 39 41 44 48 49 51 47
48 45 40 39 47 47 49 51 52 50 49 49 46 44 44 41 37 36 36 36 35 35 34 33 33 33 34 35 35 37 38 41 38 37 38 39 39 40 42 44 45 47 44 44

GFSCGP_sfc_temp_129.txt.gz
Temp
52 44 41 46 50 51 50 48 47 51 58 54 51 52 57 61 61 63 65 63 63 63 69 69 70 70 67 67 67 66 67 67 68 67 66 64 65 66 67 67 70 69 69 70
46 41 50 55 54 51 50 47 45 52 57 53 52 53 57 59 59 62 66 66 63 61 63 68 66 67 65 68 67 67 67 65 68 68 64 64 64 65 66 66 67 68 67 67
46 49 56 54 52 49 49 47 47 48 54 54 51 49 52 59 59 62 63 66 67 64 64 67 66 65 67 65 65 67 66 65 67 64 62 61 63 61 62 62 64 66 68 68
47 56 53 51 49 52 44 54 54 52 47 39 51 37 47 53 57 57 61 61 65 65 63 66 67 64 65 68 69 66 64 63 63 63 61 60 60 61 61 61 64 66 68 69
46 49 49 49 51 56 50 58 55 54 47 42 43 40 46 50 52 54 57 61 61 63 63 63 67 69 68 65 63 63 63 63 62 62 62 60 59 61 62 60 61 62 66 66
51 60 56 54 59 59 60 56 53 52 43 33 42 42 42 46 50 54 57 56 55 54 55 57 61 64 61 63 64 63 62 63 63 63 62 61 61 61 62 61 61 63 64 62
49 52 58 61 54 58 56 48 33 29 29 30 44 41 41 46 50 52 53 51 52 53 54 56 56 57 59 60 59 60 59 57 58 59 59 58 58 57 57 57 59 59 59 60
38 36 52 59 54 47 50 45 31 27 27 34 46 38 40 50 52 52 52 52 53 54 54 54 55 56 57 58 58 58 58 56 57 57 56 56 56 55 56 56 56 56 56 56
38 39 58 59 61 58 50 43 50 41 40 38 40 44 50 51 50 52 52 52 52 52 53 54 55 56 56 56 56 57 56 55 56 56 56 55 56 56 56 56 56 56 56 59
45 38 54 58 61 60 55 56 42 40 30 29 37 38 37 43 46 49 49 50 51 54 54 55 55 55 55 55 54 54 55 55 54 54 54 55 55 55 57 56 55 55 55 54
47 42 44 54 48 46 50 49 48 45 38 31 28 36 47 45 46 48 48 49 49 51 52 53 54 54 53 54 52 53 54 54 54 54 54 55 55 57 57 55 54 53 53 52
49 41 36 44 50 56 50 48 45 36 35 35 33 35 49 47 48 50 50 51 52 52 51 53 54 54 54 53 54 53 54 54 52 53 53 52 53 53 53 53 53 52 51 51
49 41 32 38 46 51 48 50 48 44 41 36 32 36 48 49 49 51 51 52 54 52 52 52 52 52 52 52 52 52 51 51 52 53 51 50 49 50 50 50 49 50 49 49
52 41 36 32 41 45 46 50 53 46 36 36 36 40 45 47 48 49 50 51 52 53 52 50 49 47 49 50 50 51 50 50 51 51 49 47 47 47 48 48 48 48 48 47
47 38 39 45 50 51 51 50 50 47 45 40 41 43 44 47 47 49 50 52 51 50 50 49 47 45 46 46 47 49 49 49 49 49 47 46 46 47 47 47 47 47 47 46
44 39 41 41 48 50 47 52 54 50 49 46 44 43 52 48 50 51 50 50 48 49 48 47 46 46 45 45 45 46 46 46 46 46 45 47 46 46 45 45 45 45 45 45
41 40 36 35 45 47 39 43 46 46 47 47 41 44 49 49 49 47 46 48 46 45 44 43 42 42 42 42 43 41 43 44 44 44 46 46 45 45 44 44 44 43 42 42
40 41 39 36 40 29 42 49 52 48 48 47 47 49 51 45 46 47 48 45 43 42 41 40 38 38 38 39 40 41 42 42 42 41 43 44 44 44 44 43 42 41 41 41
46 40 37 34 34 40 44 49 49 46 43 50 49 45 45 45 44 40 44 43 41 40 38 38 38 36 36 36 37 38 38 38 40 40 40 42 43 48 48 42 41 41 42 48
44 43 38 36 32 32 43 50 54 52 35 50 47 45 46 51 40 33 41 42 40 40 38 37 37 36 35 34 34 35 35 36 36 39 40 41 47 48 41 40 42 48 49 49
38 40 34 34 34 39 48 53 56 40 37 49 49 48 42 35 36 38 39 38 38 38 38 36 35 32 32 34 35 36 39 36 40 42 40 42 46 45 41 43 46 47 49 49
35 35 35 36 34 32 52 52 43 41 42 42 41 40 37 37 37 36 36 35 35 34 34 34 33 32 33 38 37 37 34 37 41 41 38 39 41 43 42 42 46 47 48 47
36 40 35 35 33 43 45 43 46 46 41 41 41 41 39 36 33 33 32 32 33 32 32 35 34 34 35 35 35 35 35 40 40 40 40 41 42 41 38 42 43 44 47 45
43 47 36 36 38 39 40 42 43 44 41 42 42 38 36 32 33 32 32 32 31 32 33 36 35 34 34 37 37 37 39 40 40 38 39 41 38 36 36 40 42 44 45 44
42 42 36 35 39 40 41 42 42 41 41 38 38 36 34 34 34 34 34 33 34 34 34 35 33 33 34 36 37 38 39 40 38 38 39 38 39 34 34 36 37 42 46 42
43 41 38 35 43 39 39 43 43 40 37 37 35 34 35 35 34 35 34 34 34 34 35 34 34 34 34 36 36 38 39 40 37 36 37 37 38 38 34 33 38 42 41 40

GFSCGP_sfc_temp_132.txt.gz
Temp
48 43 37 43 47 49 49 45 45 48 55 52 48 49 55 57 55 58 60 61 61 61 67 68 67 67 66 67 66 66 67 67 68 67 67 66 66 66 68 69 70 71 70 70
42 38 47 51 50 48 47 44 43 49 55 51 49 49 54 55 57 58 60 60 61 60 62 64 64 64 65 67 66 65 66 67 68 68 65 66 65 66 66 67 68 69 69 69
40 46 52 50 46 45 46 44 44 47 51 50 48 45 50 56 56 58 60 61 61 62 62 62 63 64 64 63 64 66 65 65 66 64 63 63 63 63 64 64 65 67 69 69
44 52 49 47 46 48 40 50 51 50 45 37 47 34 44 49 53 56 59 59 58 60 62 62 63 61 62 65 64 64 63 64 64 63 63 63 62 61 62 62 65 67 68 69
42 46 47 44 47 51 45 54 52 52 44 38 40 38 43 47 48 54 53 53 52 53 58 61 62 67 64 63 61 62 62 62 63 63 62 62 62 62 62 62 63 63 66 67
48 55 53 51 54 55 56 53 52 47 40 31 38 39 40 43 44 47 52 51 52 52 53 55 58 61 60 62 62 64 64 62 62 62 62 62 62 61 61 61 62 61 63 61
44 48 53 56 49 54 53 47 33 29 28 28 41 39 40 44 48 49 51 49 52 54 56 55 54 57 58 59 59 61 60 58 59 58 58 58 57 57 57 58 58 57 57 57
35 33 46 55 51 48 47 46 30 25 25 29 42 35 40 47 49 51 52 52 54 54 54 55 57 56 55 56 57 57 57 56 57 57 56 56 56 55 55 55 55 55 56 56
37 38 53 56 57 55 49 43 46 36 35 33 35 39 46 49 48 51 51 52 52 53 54 54 54 53 54 54 54 55 55 55 55 56 56 56 56 56 55 55 55 55 55 58
42 37 50 54 58 58 53 54 41 38 28 26 33 34 37 43 46 49 49 50 52 53 53 54 53 53 53 53 53 54 54 54 54 55 55 55 55 55 55 54 53 53 53 55
45 41 41 52 47 44 47 47 46 43 35 28 28 33 44 45 46 48 49 50 49 49 50 50 50 51 51 52 53 53 54 54 53 53 53 53 53 53 53 52 52 52 52 52
46 41 33 39 47 54 48 48 41 31 32 32 31 36 48 47 47 49 49 48 48 49 49 51 52 52 51 50 51 51 52 52 52 52 52 51 51 51 50 50 51 52 51 52
47 39 32 37 43 48 44 49 48 42 38 34 30 34 48 49 50 49 47 48 50 50 50 49 49 49 49 50 50 50 50 50 51 51 50 49 49 48 48 49 50 50 50 50
50 39 35 31 36 41 42 48 50 46 34 36 35 40 45 46 47 47 47 49 50 49 48 47 46 45 46 48 48 48 48 49 49 49 48 47 46 47 48 48 48 49 50 49
45 38 39 46 50 51 49 49 50 46 44 43 40 42 45 46 48 46 48 49 48 46 45 45 43 43 44 45 46 47 47 47 48 47 46 46 47 47 48 47 47 48 48 48
44 36 41 42 49 52 49 52 52 50 45 46 44 42 49 48 48 47 48 48 45 43 43 43 43 43 42 43 44 44 44 45 46 45 45 46 46 47 46 46 46 46 46 46
41 39 35 34 45 48 40 43 46 46 47 46 41 45 50 47 47 46 46 47 44 44 43 41 39 39 39 40 41 41 42 43 43 43 45 45 45 46 46 46 46 45 44 44
41 39 36 34 39 30 41 48 49 44 46 48 47 49 48 43 43 44 46 44 42 41 40 37 37 36 37 38 39 40 41 41 42 41 42 44 44 45 46 45 44 44 45 45
43 39 37 34 32 40 44 46 46 44 42 50 44 41 40 42 42 37 42 42 40 39 38 37 37 36 37 36 37 39 38 39 40 40 41 42 43 48 45 43 43 44 47 49
44 44 38 36 33 31 41 49 53 52 37 46 43 41 41 48 38 34 40 40 38 39 38 37 37 37 36 35 36 37 37 37 37 40 40 42 46 46 42 42 43 48 48 49
37 36 35 35 34 39 47 52 52 38 37 46 46 46 44 36 36 36 38 37 37 37 37 37 36 34 35 38 40 38 37 35 39 42 42 41 44 44 42 43 46 46 47 49
35 34 34 34 35 33 46 48 43 42 45 43 40 37 34 35 36 36 36 35 35 35 35 36 34 34 35 36 37 35 34 37 40 41 41 40 41 43 43 42 45 46 46 48
34 37 32 34 33 39 42 41 44 45 40 39 38 39 38 35 34 34 33 32 32 33 35 36 35 35 37 38 38 36 38 41 41 40 40 41 42 42 41 42 43 43 46 45
40 44 35 36 35 36 38 40 41 41 37 39 39 38 36 33 32 31 31 32 33 34 34 36 36 35 35 37 38 38 39 40 39 39 39 40 40 39 39 41 43 43 43 43
39 40 35 33 35 38 36 38 38 37 38 37 37 36 34 33 32 32 33 33 34 34 35 35 34 34 34 35 37 38 39 40 38 38 37 36 38 39 38 39 41 43 41 39
39 37 37 34 38 35 33 39 41 37 36 37 35 33 35 34 33 33 31 31 32 30 30 29 29 33 32 35 36 38 39 39 37 36 36 35 35 36 38 37 40 41 40 39

GFSCGP_sfc_temp_135.txt.gz
Temp
49 45 43 50 54 58 59 54 54 59 62 62 61 61 67 73 70 73 75 74 74 75 82 80 79 79 78 77 76 76 76 76 76 75 76 77 77 78 78 79 80 80 80 80
45 40 53 56 55 54 53 53 53 59 63 62 60 60 66 70 71 73 75 76 75 77 78 80 78 77 77 77 77 76 76 75 76 78 75 78 77 77 78 77 77 78 77 77
44 50 55 52 51 49 51 51 53 55 59 62 60 58 62 68 71 73 74 77 77 77 78 79 78 77 78 77 76 76 75 75 76 74 73 72 73 73 75 75 76 75 77 76
48 55 53 50 49 52 46 56 56 56 55 50 60 51 57 65 67 69 74 75 76 76 76 78 78 78 76 78 77 75 75 74 73 73 73 72 72 73 74 75 74 76 75 75
46 49 49 48 50 54 52 57 56 57 54 53 53 53 59 60 62 68 65 66 68 69 72 76 78 78 78 75 75 74 74 73 72 73 73 73 70 71 73 72 71 71 71 71
52 59 56 54 56 56 60 55 56 56 53 44 53 53 55 60 61 60 62 60 59 64 67 69 73 74 73 75 74 72 71 69 71 72 71 71 70 70 70 68 67 66 65 69
47 50 57 59 51 56 57 51 41 39 41 43 54 51 57 56 57 59 59 56 57 61 66 68 66 63 62 63 65 67 66 63 66 68 68 68 68 68 66 66 68 66 68 68
35 34 50 58 54 49 52 53 45 35 39 43 51 47 56 56 55 55 56 56 57 56 59 60 59 60 62 65 67 67 66 64 66 65 65 65 64 66 65 65 66 66 65 65
35 40 55 57 60 58 51 49 59 48 51 46 49 50 53 56 52 53 53 54 54 55 56 57 60 62 63 64 64 66 66 65 65 65 65 64 64 64 63 62 63 64 64 66
48 39 53 55 60 60 56 61 47 52 38 37 44 47 54 51 49 51 51 52 53 55 57 59 60 61 63 63 63 65 66 65 65 65 65 65 64 63 63 63 61 60 61 62
42 48 46 51 47 49 51 51 54 53 51 42 38 46 56 56 52 50 51 51 53 55 57 58 58 60 62 65 65 64 64 65 65 65 64 63 63 63 63 62 62 61 61 61
43 42 38 40 53 61 59 54 56 47 41 47 49 42 57 55 52 52 49 51 54 55 55 56 57 59 60 63 64 63 63 64 63 63 62 61 62 62 61 60 60 61 60 61
47 39 34 35 41 47 53 56 57 55 52 47 45 40 53 54 50 50 49 51 53 55 57 59 60 60 60 61 61 62 62 62 62 63 62 60 59 60 59 59 60 60 60 60
48 44 37 40 43 43 46 52 57 55 48 47 48 42 46 48 46 48 50 52 54 54 55 56 56 57 58 58 59 59 59 61 61 61 60 58 58 58 58 58 59 59 60 60
46 43 44 48 47 49 51 51 55 54 55 53 48 48 48 48 47 49 50 51 52 52 53 53 53 54 55 55 56 57 57 57 58 58 58 56 57 58 58 57 58 58 58 59
46 44 48 44 49 50 48 53 55 57 52 51 52 46 55 51 51 50 51 52 51 50 50 51 52 52 51 52 53 53 53 54 56 55 55 55 56 57 56 56 56 57 57 58
41 45 46 37 49 49 43 52 54 53 54 53 47 48 50 48 49 49 51 51 50 49 49 49 48 48 49 49 51 51 51 53 52 52 53 53 54 55 55 56 56 56 56 57
44 46 44 38 45 32 49 54 59 53 53 55 53 50 51 51 50 52 53 51 48 46 46 46 48 47 47 49 49 50 50 50 51 50 51 53 54 54 55 55 55 55 56 57
49 46 42 37 38 43 46 51 51 52 44 56 51 47 44 44 45 41 46 46 44 45 41 44 45 46 46 46 47 48 48 49 50 50 50 51 53 53 53 53 53 55 56 57
50 49 45 43 37 35 43 52 56 57 38 48 46 42 44 52 45 37 41 41 40 40 39 39 41 42 44 45 47 47 47 47 47 48 49 50 50 52 52 52 53 55 54 55
37 40 41 40 36 42 42 48 54 46 45 47 48 49 51 46 47 42 43 41 41 42 41 41 43 42 42 44 46 44 45 45 47 49 47 49 51 51 52 52 54 53 53 54
36 35 36 41 37 34 42 50 48 46 48 49 49 44 40 40 41 40 40 38 36 35 37 38 38 37 39 41 41 39 40 43 47 48 48 49 50 51 52 51 53 50 50 52
34 36 34 34 32 37 42 44 49 50 45 43 42 42 42 39 36 36 35 36 37 37 37 39 39 39 40 41 41 40 42 46 46 47 47 48 48 48 49 50 50 49 49 48
39 44 36 37 33 35 38 42 43 44 41 41 41 40 37 33 34 34 36 37 37 38 37 39 39 38 38 40 42 43 44 45 45 44 45 46 45 47 49 51 49 45 44 44
37 39 35 32 34 36 35 36 37 37 37 35 37 36 36 38 37 37 36 37 37 37 38 38 36 36 37 40 42 43 42 43 42 41 41 39 38 41 47 48 45 44 41 39
35 36 37 32 35 33 32 34 37 36 35 36 37 37 40 40 39 39 38 38 37 37 37 35 35 36 38 41 42 43 43 42 40 41 42 37 37 38 41 42 44 39 39 39

GFSCGP_sfc_temp_138.txt.gz
Temp
56 53 52 59 62 65 68 65 62 66 73 69 70 71 77 80 80 80 82 84 84 87 93 94 91 90 89 86 85 85 85 84 85 82 83 85 85 87 88 88 87 86 87 86
49 48 61 65 65 63 65 63 61 67 71 70 69 69 75 79 80 81 82 84 85 87 89 89 87 87 86 85 84 84 84 83 83 85 85 87 87 89 89 89 85 86 85 84
51 55 61 62 61 59 60 61 61 63 66 70 69 66 69 76 80 81 84 87 87 88 89 89 86 85 86 84 83 83 84 83 83 85 83 81 82 82 82 84 85 84 83 83
55 63 59 57 57 61 54 66 65 63 60 56 68 57 66 73 74 77 81 84 86 87 89 91 90 87 86 86 86 84 83 82 82 81 82 80 83 83 83 85 84 85 82 82
52 56 56 54 57 62 58 66 64 64 61 62 61 60 68 72 70 74 79 83 86 86 88 89 89 90 89 86 84 83 82 82 81 81 82 81 79 81 82 81 78 77 77 78
57 65 60 61 63 64 66 62 62 64 62 49 59 60 65 67 71 75 80 80 80 82 83 84 86 85 84 85 84 82 80 79 80 81 79 79 78 79 81 79 78 77 79 78
52 56 63 63 55 61 59 54 46 44 47 49 64 59 67 69 72 78 75 74 74 78 82 82 82 82 80 81 81 79 75 74 78 78 78 78 76 74 73 77 77 77 77 76
43 41 56 61 56 53 55 57 52 41 45 52 64 54 64 68 67 70 70 66 68 75 78 75 74 73 75 77 77 77 76 76 76 75 74 75 76 77 75 73 75 74 74 72
40 47 61 62 62 61 55 52 68 58 60 56 57 60 63 64 57 59 60 59 57 60 65 74 76 77 77 76 75 76 75 74 74 73 73 72 73 71 70 70 71 71 71 73
48 38 58 60 65 62 59 66 53 59 46 45 52 55 59 60 52 54 53 54 57 60 62 64 66 68 71 72 73 74 75 74 74 74 74 73 71 71 70 70 67 67 68 69
45 46 50 57 51 54 57 56 59 62 59 50 46 55 69 65 56 53 53 56 61 63 64 65 68 71 74 75 75 73 74 73 73 72 71 71 71 70 70 69 69 68 68 69
47 45 44 50 62 65 64 58 60 52 50 58 56 50 68 64 56 53 53 57 61 63 64 66 68 69 69 71 73 72 72 72 72 71 70 70 70 69 67 67 67 68 67 69
44 42 39 36 45 61 56 59 63 62 61 53 52 46 54 53 50 52 53 55 58 60 62 63 66 67 68 71 71 71 71 71 72 72 70 68 67 66 65 66 66 67 67 68
46 49 45 38 47 53 50 58 63 61 54 56 59 47 47 47 47 50 52 55 57 59 60 64 66 68 68 68 68 68 69 70 70 70 69 66 65 65 65 65 66 66 66 66
45 45 42 46 55 56 55 57 60 58 60 56 56 52 47 47 48 51 54 56 58 61 63 64 64 65 66 65 65 66 66 67 68 68 66 64 65 65 65 64 64 64 65 66
50 45 47 47 55 55 54 58 59 61 60 60 61 49 52 52 53 52 54 59 60 62 62 62 62 62 62 62 63 63 63 63 65 64 64 64 64 64 63 63 63 64 64 65
44 48 42 37 47 46 43 55 58 60 62 63 56 48 52 47 50 52 55 59 60 60 60 60 59 59 59 59 61 60 61 63 62 62 62 62 62 62 62 63 63 62 62 64
43 48 48 39 41 33 49 61 63 61 62 64 55 51 51 50 52 55 60 59 58 59 58 58 58 57 57 59 59 60 61 60 60 60 60 61 62 61 61 62 61 61 63 62
56 53 42 37 41 46 50 57 57 55 50 59 53 52 51 52 51 49 57 59 57 56 55 53 55 56 56 57 57 58 58 58 59 59 59 59 60 58 59 59 60 60 61 62
58 56 52 48 41 34 44 54 63 64 45 59 58 53 50 51 46 39 50 52 53 52 50 50 48 54 54 54 56 56 55 57 57 57 58 57 58 56 56 59 59 59 60 62
44 50 46 46 42 41 42 52 60 48 52 57 57 52 52 55 55 46 50 49 49 50 50 47 47 46 49 51 53 51 53 52 55 57 57 57 57 57 58 59 59 57 59 61
35 37 37 45 42 35 42 55 52 52 56 56 55 55 51 49 50 49 47 44 45 45 47 46 44 44 46 48 49 50 50 52 55 56 55 55 56 57 60 58 58 56 56 57
36 37 36 34 32 38 43 49 55 58 54 52 52 53 52 50 48 47 44 44 40 39 40 43 45 46 46 46 48 48 49 53 53 52 51 52 53 56 59 57 56 57 55 56
39 42 37 38 32 35 39 44 51 53 52 50 51 51 50 46 46 44 45 43 43 45 45 47 46 43 43 46 48 48 47 51 50 49 49 49 47 51 56 59 57 54 52 53
34 37 37 32 33 35 35 38 41 43 43 41 40 40 39 39 39 41 45 45 47 47 45 44 41 41 42 45 46 46 46 48 48 49 48 46 44 49 52 51 50 53 47 43
33 35 36 29 34 32 31 35 38 36 35 37 39 39 41 41 45 48 46 47 46 43 42 39 39 40 43 46 47 46 46 46 44 46 47 44 44 42 45 51 51 38 39 38

GFSCGP_sfc_temp_141.txt.gz
Temp
62 56 53 60 65 67 70 68 67 73 79 73 72 75 78 84 86 85 86 86 87 89 95 97 96 96 91 89 88 88 88 86 84 84 84 82 80 81 87 89 91 86 87 87
56 50 62 67 67 66 66 67 68 73 79 74 72 73 79 84 83 86 86 86 88 90 93 94 94 93 92 88 87 88 88 86 86 85 86 89 86 80 81 81 86 86 88 88
52 57 64 64 65 62 64 63 68 68 73 76 71 69 75 82 85 86 87 89 90 89 90 92 91 90 91 87 86 84 86 85 86 85 83 86 85 81 87 84 81 83 85 84
55 65 61 59 60 65 59 70 71 68 66 59 72 59 70 77 78 82 84 87 89 90 92 92 90 88 88 87 84 82 81 81 83 84 84 83 84 82 83 80 80 79 81 83
49 59 59 57 60 67 64 72 70 69 66 63 65 62 70 76 74 77 82 86 89 91 92 92 92 90 91 86 82 80 79 79 81 85 86 84 85 83 86 86 81 79 79 80
59 67 64 63 67 68 71 67 68 69 66 51 64 63 66 71 74 79 82 86 88 90 92 93 94 93 91 92 88 82 78 78 80 82 83 82 81 81 84 82 81 82 83 80
54 56 63 67 61 67 65 59 49 48 49 52 68 61 69 78 80 81 81 85 88 90 90 90 89 88 87 86 86 84 79 76 78 77 78 78 77 79 77 79 82 81 80 78
42 43 54 65 61 59 59 58 50 41 46 54 67 58 64 78 81 85 86 85 84 85 89 88 88 87 87 85 84 82 80 77 77 74 73 74 79 81 80 78 79 79 78 75
42 49 63 63 65 64 61 53 66 59 62 59 63 63 68 73 72 73 74 75 77 83 82 81 81 83 83 82 81 80 78 76 77 77 76 76 77 75 73 73 75 75 74 76
48 44 61 61 66 64 62 68 54 60 47 47 58 58 61 62 65 66 65 62 68 76 79 81 82 81 81 78 75 77 78 76 77 77 76 75 74 74 73 72 70 70 71 72
47 48 53 60 55 53 58 55 61 62 61 52 50 58 73 66 65 57 56 59 64 67 67 71 75 77 78 79 78 76 77 76 75 75 74 73 73 73 72 72 71 71 71 71
47 45 47 53 62 66 65 60 62 54 52 59 59 52 75 69 63 57 57 65 70 71 74 77 77 78 77 77 77 76 75 75 75 75 74 72 72 72 70 70 70 71 70 72
47 39 39 44 50 49 53 64 65 63 62 56 53 46 62 58 55 58 61 64 69 72 73 74 75 75 75 75 75 75 76 75 76 75 73 71 70 70 68 68 69 70 70 71
47 44 48 41 46 49 50 58 63 62 54 56 55 44 47 49 51 56 58 63 66 68 69 71 71 72 73 73 74 73 74 75 75 74 72 69 68 68 68 68 68 69 70 70
43 43 52 48 56 61 59 54 62 59 62 59 51 47 47 49 51 55 60 63 63 65 66 67 67 70 70 70 70 71 71 72 73 72 70 68 69 69 68 68 68 68 68 69
45 45 53 42 49 56 56 61 64 64 63 61 61 48 56 53 56 55 58 61 62 63 65 68 68 68 68 68 68 68 68 68 70 68 68 68 68 68 67 67 67 67 67 67
43 49 41 36 50 57 52 60 60 61 66 57 48 47 51 50 52 54 59 61 62 64 66 66 65 65 64 65 66 65 66 68 67 68 67 67 67 67 66 67 67 64 62 63
41 46 45 40 43 32 59 68 63 63 59 58 49 49 52 52 55 61 65 63 63 64 64 64 64 63 63 65 65 65 66 66 67 66 66 66 66 65 65 65 63 60 62 61
44 49 47 39 39 46 52 61 62 57 45 51 49 50 52 55 57 55 62 63 64 63 63 63 63 62 61 62 63 64 64 65 66 65 64 64 64 63 62 59 58 58 59 62
58 61 49 42 38 34 40 54 63 65 41 51 52 50 51 55 48 48 58 60 60 60 59 59 60 60 59 59 62 62 62 62 61 62 62 62 62 59 58 58 57 57 60 59
40 39 43 48 39 35 40 50 62 42 45 55 56 54 56 58 53 53 57 55 56 55 54 54 56 55 55 57 59 58 58 57 60 62 62 61 60 58 59 58 57 58 59 61
34 36 36 46 41 34 42 58 51 51 60 59 57 58 52 51 52 52 52 53 54 54 55 54 50 51 53 56 58 56 54 58 59 60 59 58 57 60 61 57 56 58 59 59
34 36 34 32 31 38 42 50 60 62 58 59 60 56 57 55 53 52 50 50 50 50 52 54 52 51 52 54 54 52 53 56 56 55 54 54 54 57 58 57 55 60 59 59
37 41 36 36 32 34 40 47 54 56 54 56 58 57 57 52 52 50 47 44 45 48 49 51 52 50 49 51 52 51 52 54 54 53 52 52 52 52 55 55 57 58 55 56
33 35 36 31 33 37 36 41 43 45 48 52 53 53 52 51 50 49 50 50 52 52 50 49 47 47 48 51 51 52 52 51 50 50 50 49 50 50 52 52 50 53 48 46
33 32 33 28 33 33 32 38 41 39 39 41 42 43 46 48 49 50 51 52 51 49 48 45 45 48 50 53 51 50 50 47 46 47 47 46 47 46 46 47 47 38 40 39